[[{"header":{"parameterUnit":"m.s-1","parameterCategory":1,"la1":30.6,"la2":29.2853,"lo1":-89.7004,"lo2":-87.6739,"dy":0.0162,"dx":0.0183,"nx":112,"ny":82,"refTime":"2024-03-22T00:00:00:Z","depth":0,"parameterNumber":2,"parameterNumberName":"U-component_of_WINDS"},"data":[0.0,0.0,0.0,0.0,0.0,0.0,0.0,0.0,0.0,0.0,0.0,0.0,0.0,0.0,0.0,0.0,0.0,0.0,0.0,0.0,0.0,0.0,0.0,0.0,0.0,0.0,0.0,0.0,0.0,0.0,0.0,0.0,0.0,0.0,0.0,0.0,0.0,0.0,0.0,0.0,0.0,0.0,0.0,0.0,0.0,0.0,0.0,0.0,0.0,0.0,0.0,0.0,0.0,0.0,0.0,0.0,0.0,0.0,0.0,0.0,0.0,0.0,0.0,0.0,0.0,0.0,0.0,0.0,0.0,0.0,0.0,0.0,0.0,0.0,0.0,0.0,0.0,0.0,0.0,0.0,0.0,0.0,0.0,0.0,0.0,0.0,0.0,0.0,0.0,0.0,-5.6061,-5.705,-5.7352,-5.7241,-5.6606,-5.6483,-5.6102,-5.5341,0.0,0.0,0.0,0.0,0.0,0.0,0.0,0.0,0.0,0.0,0.0,0.0,0.0,0.0,0.0,0.0,0.0,0.0,0.0,0.0,0.0,0.0,0.0,0.0,0.0,0.0,0.0,0.0,0.0,0.0,0.0,0.0,0.0,0.0,0.0,0.0,0.0,0.0,0.0,0.0,0.0,0.0,0.0,0.0,0.0,0.0,0.0,0.0,0.0,0.0,0.0,0.0,0.0,0.0,0.0,0.0,0.0,0.0,0.0,0.0,0.0,0.0,0.0,0.0,0.0,0.0,0.0,0.0,0.0,0.0,0.0,0.0,0.0,0.0,0.0,0.0,0.0,0.0,0.0,0.0,0.0,0.0,0.0,0.0,0.0,0.0,0.0,0.0,0.0,0.0,0.0,0.0,0.0,0.0,0.0,0.0,0.0,0.0,0.0,0.0,0.0,0.0,0.0,0.0,-5.6699,-5.7192,-5.7359,-5.7377,-5.7317,-5.6759,-5.6331,-5.6216,0.0,0.0,0.0,0.0,0.0,0.0,0.0,0.0,0.0,0.0,0.0,0.0,0.0,0.0,0.0,0.0,0.0,0.0,0.0,0.0,0.0,0.0,0.0,0.0,0.0,0.0,0.0,0.0,0.0,0.0,0.0,0.0,0.0,0.0,0.0,0.0,0.0,0.0,0.0,0.0,0.0,0.0,0.0,0.0,0.0,0.0,0.0,0.0,0.0,0.0,0.0,0.0,0.0,0.0,0.0,0.0,0.0,0.0,0.0,0.0,0.0,0.0,0.0,0.0,0.0,0.0,0.0,0.0,0.0,0.0,0.0,0.0,0.0,0.0,0.0,0.0,0.0,0.0,0.0,0.0,0.0,0.0,0.0,0.0,0.0,0.0,0.0,0.0,0.0,0.0,0.0,0.0,0.0,0.0,0.0,0.0,0.0,0.0,0.0,0.0,0.0,0.0,0.0,-5.7454,-5.8238,-5.8487,-5.8551,-5.8429,-5.8008,-5.7662,-5.7087,-5.6178,-5.542,0.0,0.0,0.0,0.0,0.0,0.0,0.0,0.0,0.0,0.0,0.0,0.0,0.0,0.0,0.0,0.0,0.0,0.0,0.0,0.0,0.0,0.0,0.0,0.0,0.0,0.0,0.0,0.0,0.0,0.0,0.0,0.0,0.0,0.0,0.0,0.0,0.0,0.0,0.0,0.0,0.0,0.0,0.0,0.0,0.0,0.0,0.0,0.0,0.0,0.0,0.0,0.0,0.0,0.0,0.0,0.0,0.0,0.0,0.0,0.0,0.0,0.0,0.0,0.0,0.0,0.0,0.0,0.0,0.0,0.0,0.0,0.0,0.0,0.0,0.0,0.0,0.0,0.0,0.0,0.0,0.0,0.0,0.0,0.0,0.0,0.0,0.0,0.0,0.0,0.0,0.0,0.0,0.0,0.0,0.0,0.0,0.0,0.0,0.0,0.0,0.0,0.0,-5.8689,-5.929,-5.9438,-5.951,-5.9282,-5.8748,-5.8521,-5.7767,-5.6295,-5.5993,0.0,0.0,0.0,0.0,0.0,0.0,0.0,0.0,0.0,0.0,0.0,0.0,0.0,0.0,0.0,0.0,0.0,0.0,0.0,0.0,0.0,0.0,0.0,0.0,0.0,0.0,0.0,0.0,0.0,0.0,0.0,0.0,0.0,0.0,0.0,0.0,0.0,0.0,0.0,0.0,0.0,0.0,0.0,0.0,0.0,0.0,0.0,0.0,0.0,0.0,0.0,0.0,0.0,0.0,0.0,0.0,0.0,0.0,0.0,0.0,0.0,0.0,0.0,0.0,0.0,0.0,0.0,0.0,0.0,0.0,0.0,0.0,0.0,0.0,0.0,0.0,0.0,0.0,0.0,0.0,0.0,0.0,0.0,0.0,0.0,0.0,0.0,0.0,0.0,0.0,0.0,0.0,0.0,0.0,0.0,0.0,0.0,0.0,0.0,0.0,0.0,0.0,-5.8821,-5.9059,-5.929,-5.929,-5.94,-5.9505,-5.8823,-5.7993,-5.7088,-5.6295,0.0,0.0,0.0,0.0,0.0,0.0,0.0,0.0,0.0,0.0,0.0,0.0,0.0,0.0,0.0,0.0,0.0,0.0,0.0,0.0,0.0,0.0,0.0,0.0,0.0,0.0,0.0,0.0,0.0,0.0,0.0,0.0,0.0,0.0,0.0,0.0,0.0,0.0,0.0,0.0,0.0,0.0,0.0,0.0,0.0,0.0,0.0,0.0,0.0,0.0,0.0,0.0,0.0,0.0,0.0,0.0,0.0,0.0,0.0,0.0,0.0,0.0,0.0,0.0,0.0,0.0,0.0,0.0,0.0,0.0,0.0,0.0,0.0,0.0,0.0,0.0,0.0,0.0,0.0,0.0,0.0,0.0,0.0,0.0,0.0,0.0,0.0,0.0,0.0,0.0,0.0,0.0,0.0,0.0,0.0,0.0,0.0,0.0,0.0,0.0,0.0,0.0,-5.8818,-5.898,-5.9101,-5.9101,-5.914,-5.9215,-5.8953,-5.8428,-5.7603,0.0,0.0,0.0,0.0,0.0,0.0,0.0,0.0,0.0,0.0,0.0,0.0,0.0,0.0,0.0,0.0,0.0,0.0,0.0,0.0,0.0,0.0,0.0,0.0,0.0,0.0,0.0,0.0,0.0,0.0,0.0,0.0,0.0,0.0,0.0,0.0,0.0,0.0,0.0,0.0,0.0,0.0,0.0,0.0,0.0,0.0,0.0,0.0,0.0,0.0,0.0,0.0,0.0,0.0,0.0,0.0,0.0,0.0,0.0,0.0,0.0,0.0,0.0,0.0,0.0,0.0,0.0,0.0,0.0,0.0,0.0,0.0,0.0,0.0,0.0,0.0,0.0,0.0,0.0,0.0,0.0,0.0,0.0,0.0,0.0,0.0,0.0,0.0,0.0,0.0,0.0,0.0,0.0,0.0,0.0,0.0,0.0,0.0,0.0,0.0,0.0,0.0,-5.89,-5.9064,-5.9301,-5.9611,-5.9465,-5.9356,-5.9358,-5.9134,-5.8648,-5.7864,0.0,0.0,0.0,0.0,0.0,0.0,0.0,0.0,0.0,0.0,0.0,0.0,0.0,0.0,0.0,0.0,0.0,0.0,0.0,0.0,0.0,0.0,0.0,0.0,0.0,0.0,0.0,0.0,0.0,0.0,0.0,0.0,0.0,0.0,0.0,0.0,0.0,0.0,0.0,0.0,0.0,0.0,0.0,0.0,0.0,0.0,0.0,0.0,0.0,0.0,0.0,0.0,0.0,0.0,0.0,0.0,0.0,0.0,0.0,0.0,0.0,0.0,0.0,0.0,0.0,0.0,0.0,0.0,0.0,0.0,0.0,0.0,0.0,0.0,0.0,0.0,0.0,0.0,0.0,0.0,0.0,0.0,0.0,0.0,0.0,0.0,0.0,0.0,0.0,0.0,0.0,0.0,0.0,0.0,0.0,0.0,0.0,0.0,0.0,0.0,0.0,0.0,-5.9283,-5.9656,-6.0129,-6.0995,-6.0492,-6.0133,-6.0217,-5.947,-5.8648,0.0,0.0,0.0,0.0,0.0,0.0,0.0,0.0,0.0,0.0,0.0,0.0,0.0,0.0,0.0,0.0,0.0,0.0,0.0,0.0,0.0,0.0,0.0,0.0,0.0,0.0,0.0,0.0,0.0,0.0,0.0,0.0,0.0,0.0,0.0,0.0,0.0,0.0,0.0,0.0,0.0,0.0,0.0,0.0,0.0,0.0,0.0,0.0,0.0,0.0,0.0,0.0,0.0,0.0,0.0,0.0,0.0,0.0,0.0,0.0,0.0,0.0,0.0,0.0,0.0,0.0,0.0,0.0,0.0,0.0,0.0,0.0,0.0,0.0,0.0,0.0,0.0,0.0,0.0,0.0,0.0,0.0,0.0,0.0,0.0,0.0,0.0,0.0,0.0,0.0,0.0,0.0,0.0,0.0,0.0,0.0,0.0,0.0,0.0,0.0,0.0,0.0,0.0,-6.013,-6.0416,-6.0581,-6.0885,-6.0744,-6.0381,-5.9832,-5.9573,-5.9091,-5.8275,0.0,0.0,0.0,0.0,0.0,0.0,0.0,0.0,0.0,0.0,0.0,0.0,0.0,0.0,0.0,0.0,0.0,0.0,0.0,0.0,0.0,0.0,0.0,0.0,0.0,0.0,0.0,0.0,0.0,0.0,0.0,0.0,0.0,0.0,0.0,0.0,0.0,0.0,0.0,0.0,0.0,0.0,0.0,0.0,0.0,0.0,0.0,0.0,0.0,0.0,0.0,0.0,0.0,0.0,0.0,0.0,0.0,0.0,0.0,0.0,0.0,0.0,0.0,0.0,0.0,0.0,0.0,0.0,0.0,0.0,0.0,0.0,0.0,0.0,0.0,0.0,0.0,0.0,0.0,0.0,0.0,0.0,0.0,0.0,0.0,0.0,0.0,0.0,0.0,0.0,0.0,0.0,0.0,0.0,0.0,0.0,0.0,0.0,0.0,0.0,0.0,0.0,-6.0786,-6.104,-6.1245,-6.1624,-6.1449,-6.1089,-6.0609,-5.9981,-5.939,-5.891,0.0,0.0,0.0,0.0,0.0,0.0,0.0,0.0,0.0,0.0,0.0,0.0,0.0,0.0,0.0,0.0,0.0,0.0,0.0,0.0,0.0,0.0,0.0,0.0,0.0,0.0,0.0,0.0,0.0,0.0,0.0,0.0,0.0,0.0,0.0,0.0,0.0,0.0,0.0,0.0,0.0,0.0,0.0,0.0,0.0,0.0,0.0,0.0,0.0,0.0,0.0,0.0,0.0,0.0,0.0,0.0,0.0,0.0,0.0,0.0,0.0,0.0,0.0,0.0,0.0,0.0,0.0,0.0,0.0,0.0,0.0,0.0,0.0,0.0,0.0,0.0,0.0,0.0,0.0,0.0,0.0,0.0,0.0,0.0,0.0,0.0,0.0,0.0,0.0,0.0,0.0,0.0,0.0,0.0,0.0,0.0,0.0,0.0,0.0,0.0,0.0,0.0,-6.1382,-6.1605,-6.1998,-6.288,-6.2424,-6.1993,-6.1919,-6.0554,-5.9715,-5.9567,0.0,0.0,0.0,0.0,0.0,0.0,0.0,0.0,0.0,0.0,0.0,0.0,0.0,0.0,0.0,0.0,0.0,0.0,0.0,0.0,0.0,0.0,0.0,0.0,0.0,0.0,0.0,0.0,0.0,0.0,0.0,0.0,0.0,0.0,0.0,0.0,0.0,0.0,0.0,0.0,0.0,0.0,0.0,0.0,0.0,0.0,0.0,0.0,0.0,0.0,0.0,0.0,0.0,0.0,0.0,0.0,0.0,0.0,0.0,0.0,-2.2445,-2.3144,0.0,0.0,0.0,0.0,0.0,0.0,0.0,0.0,0.0,0.0,0.0,0.0,0.0,0.0,0.0,0.0,0.0,0.0,0.0,0.0,0.0,0.0,0.0,0.0,0.0,0.0,0.0,0.0,0.0,0.0,0.0,0.0,0.0,0.0,0.0,0.0,0.0,0.0,0.0,0.0,-6.2068,-6.2193,-6.2318,-6.25,-6.2406,-6.204,-6.1419,-6.1053,-6.0322,-5.9042,-5.864,0.0,0.0,0.0,0.0,0.0,0.0,0.0,0.0,0.0,0.0,0.0,0.0,0.0,0.0,0.0,0.0,0.0,0.0,0.0,0.0,0.0,0.0,0.0,0.0,0.0,0.0,0.0,0.0,0.0,0.0,0.0,0.0,0.0,0.0,0.0,0.0,0.0,0.0,0.0,0.0,0.0,0.0,0.0,0.0,0.0,0.0,0.0,0.0,0.0,0.0,0.0,0.0,0.0,0.0,0.0,0.0,0.0,0.0,0.0,-2.6084,-2.6358,0.0,0.0,0.0,0.0,0.0,0.0,0.0,0.0,0.0,0.0,0.0,0.0,0.0,0.0,0.0,0.0,0.0,0.0,0.0,0.0,0.0,0.0,0.0,0.0,0.0,0.0,0.0,0.0,0.0,0.0,0.0,0.0,0.0,0.0,0.0,0.0,0.0,0.0,0.0,0.0,-6.2149,-6.2238,-6.2328,-6.2397,-6.2433,-6.2251,-6.1813,-6.1412,-6.0632,-5.9343,-5.8856,0.0,0.0,0.0,0.0,0.0,0.0,0.0,0.0,0.0,0.0,0.0,0.0,0.0,0.0,0.0,0.0,0.0,0.0,0.0,0.0,0.0,0.0,0.0,0.0,0.0,0.0,0.0,0.0,0.0,0.0,0.0,0.0,0.0,0.0,0.0,0.0,0.0,0.0,0.0,0.0,0.0,0.0,0.0,0.0,0.0,0.0,0.0,0.0,0.0,0.0,0.0,0.0,0.0,-2.2983,-2.4674,-2.6336,-2.7866,-2.9514,-3.092,-2.9872,-2.9931,-3.0854,-3.2799,0.0,0.0,0.0,0.0,0.0,0.0,0.0,0.0,0.0,0.0,0.0,0.0,0.0,0.0,0.0,0.0,0.0,0.0,0.0,0.0,0.0,0.0,-5.217,-5.3287,-5.4033,-5.4462,-5.4493,0.0,0.0,0.0,0.0,0.0,0.0,0.0,0.0,0.0,0.0,0.0,-6.2076,-6.2241,-6.2349,-6.2457,-6.2457,-6.242,-6.2275,-6.1656,-6.0877,-5.9937,-5.9035,-5.7846,0.0,0.0,0.0,0.0,0.0,0.0,0.0,0.0,0.0,0.0,0.0,0.0,0.0,0.0,0.0,0.0,0.0,0.0,0.0,0.0,0.0,0.0,0.0,0.0,0.0,0.0,0.0,0.0,0.0,0.0,0.0,0.0,0.1292,-0.0737,0.0,0.0,0.0,0.0,0.0,0.0,0.0,0.0,0.0,0.0,0.0,0.0,0.0,-1.8103,-1.9396,-2.079,-2.2198,-2.3907,-2.5604,-2.7136,-2.8777,-3.0367,-3.2098,-3.3965,-3.5369,0.0,-3.3685,-3.4916,0.0,0.0,0.0,0.0,0.0,0.0,0.0,0.0,0.0,0.0,0.0,0.0,0.0,0.0,0.0,0.0,0.0,0.0,0.0,0.0,0.0,0.0,-5.3432,-5.3987,-5.4655,-5.5302,-5.5482,-5.6064,-5.6759,-5.7304,-5.8149,-5.902,0.0,0.0,0.0,0.0,0.0,0.0,-6.2551,-6.2623,-6.2623,-6.2681,-6.2681,-6.2429,-6.1744,-6.16,-6.1204,-6.0375,-5.9528,-5.8664,-5.7765,-5.6237,0.0,0.0,0.0,0.0,0.0,0.0,0.0,0.0,0.0,0.0,0.0,0.0,0.0,0.0,0.0,0.0,0.0,0.0,0.0,0.0,0.0,0.0,0.0,0.0,0.0,0.0,0.0,0.0,0.0,0.1149,-0.044,-0.1484,-0.314,-0.4527,0.0,0.0,0.0,0.0,0.0,0.0,0.0,0.0,0.0,-1.8012,-1.9427,-2.09,-2.2298,-2.3847,-2.5321,-2.689,-2.8724,-3.0552,-3.2209,-3.3751,-3.5392,-3.7113,-3.8566,-3.9081,-3.8996,-3.9213,-3.9905,-4.1057,0.0,0.0,0.0,0.0,-4.5623,-4.6243,-4.6409,-4.6867,-4.7253,-4.7249,0.0,0.0,0.0,0.0,0.0,0.0,0.0,-5.1883,-5.2539,-5.3068,-5.3636,-5.4569,-5.5198,-5.5743,-5.6689,-5.7185,-5.7467,-5.7659,-5.8736,-5.9643,-5.9894,-6.0812,0.0,0.0,0.0,-6.2701,-6.3059,-6.3274,-6.3392,-6.3392,-6.2997,-6.2601,-6.2242,-6.1846,-6.1178,-6.0182,-5.9394,-5.8458,-5.7504,-5.6007,-5.4973,0.0,0.0,0.0,0.0,0.0,0.0,0.0,0.0,0.0,0.0,0.0,0.0,0.0,0.0,0.0,0.0,0.0,0.0,0.0,0.0,0.0,0.0,0.0,0.0,0.0,0.0,0.0,0.0,-0.0146,-0.1638,-0.2549,-0.4537,-0.5969,0.0,0.0,0.0,0.0,0.0,0.0,-1.5872,-1.7463,-1.9095,-2.0475,-2.2053,-2.3756,-2.5281,-2.6854,-2.8544,-3.0217,-3.2049,-3.3873,-3.5539,-3.7161,-3.8754,-4.0329,-4.1433,-4.2859,-4.4134,-4.3117,-4.3368,-4.4362,-4.5011,-4.5666,-4.6334,-4.7186,-4.797,-4.8464,-4.8797,-4.923,-4.9575,-4.9334,-4.9417,-4.9567,-4.9667,0.0,0.0,0.0,0.0,-5.2303,-5.3082,-5.3488,-5.4064,-5.5214,-5.5732,-5.6279,-5.7722,-5.8113,-5.8167,-5.8187,-5.921,-6.0194,-6.0323,-6.1248,0.0,-6.1997,-6.2746,-6.336,-6.3574,-6.3796,-6.3918,-6.3918,-6.3381,-6.288,-6.251,-6.1973,-6.1176,-6.0155,-5.9336,-5.8436,-5.7423,-5.6113,-5.5228,-5.4839,0.0,0.0,0.0,0.0,0.0,0.0,0.0,0.0,0.0,0.0,0.0,0.0,0.0,0.0,0.0,0.0,0.0,0.0,0.0,0.0,0.0,0.0,0.0,0.0,0.0,0.0,0.0,0.0,0.0,-0.4606,-0.5695,0.0,0.0,0.0,0.0,-1.2762,-1.4525,-1.6199,-1.8145,-1.9912,-2.1712,-2.3493,-2.5112,-2.6693,-2.8431,-3.004,-3.1825,-3.3595,-3.5279,-3.6805,-3.8501,-4.0136,-4.1895,-4.3788,-4.485,-4.631,-4.782,-4.5657,-4.5534,-4.6858,-4.7521,-4.8402,-4.9335,-4.9328,-4.9693,-5.029,-5.0626,-5.1017,-5.1497,-5.1741,-5.1896,-5.1977,-5.1908,-5.1942,0.0,0.0,-5.3284,-5.3545,-5.4433,-5.4851,-5.5181,-5.5861,-5.6336,-5.6967,-5.8117,-5.8665,-5.8948,-5.8944,-5.9599,-6.0324,-6.0866,0.0,-6.242,-6.2581,-6.2746,-6.3194,-6.3937,-6.4108,-6.4108,-6.4108,-6.4073,-6.347,-6.1982,-6.1805,-6.145,-6.0609,-5.9795,-5.9016,-5.8273,-5.7423,-5.629,-5.4839,-5.4732,0.0,0.0,0.0,0.0,0.0,0.0,0.0,0.0,0.0,0.0,0.0,0.0,0.0,0.0,0.0,0.0,0.0,0.0,0.0,0.0,0.0,0.0,0.0,0.0,0.0,0.0,0.0,0.0,-0.5444,-0.6744,0.0,-0.9657,-1.1267,-1.2922,-1.4677,-1.6572,-1.8503,-2.0354,-2.2296,-2.4263,-2.5929,-2.7716,-2.9223,-3.0786,-3.2364,-3.3942,-3.5331,-3.7338,-3.9012,-4.0684,-4.246,-4.4207,-4.5946,-4.7283,-4.8724,-5.0181,-5.0348,-4.9977,-4.9456,-5.0194,-5.0927,-5.1741,-5.2436,-5.2707,-5.2471,-5.2722,-5.2646,-5.2544,-5.2704,-5.3025,-5.3391,-5.3526,-5.3621,-5.3806,-5.4538,-5.475,-5.4898,-5.5693,-5.6039,-5.6381,-5.6885,-5.7348,-5.7851,-5.8594,-5.8975,-5.9261,-5.9593,-6.0347,-6.098,-6.119,-6.2092,-6.2786,-6.2855,-6.3412,-6.3969,-6.425,-6.4489,-6.4658,-6.4658,-6.4199,-6.367,-6.3105,-6.2088,-6.1254,-6.0879,-5.965,-5.8535,-5.7701,-5.6895,-5.5984,-5.4968,-5.4384,-5.3952,0.0,0.0,0.0,0.0,0.0,0.0,0.0,0.0,0.0,0.0,0.0,0.0,0.0,0.0,0.0,0.0,0.0,0.0,0.0,0.0,0.0,0.0,0.0,0.0,0.0,-0.337,-0.53,-0.5987,-0.7648,-0.9181,-1.0745,-1.2579,-1.4452,-1.6253,-1.8247,-2.023,-2.2212,-2.4022,-2.5969,-2.788,-2.9673,-3.1335,-3.3066,-3.4801,-3.6375,-3.7896,-3.9758,-4.1595,-4.3236,-4.4997,-4.6751,-4.817,-4.9511,-5.0911,-5.2404,-5.3632,-5.3627,-5.2849,-5.2879,-5.3171,-5.378,-5.4594,-5.4691,-5.4446,-5.455,-5.4466,-5.4268,-5.3901,-5.4117,-5.4439,-5.4416,-5.4449,-5.4636,-5.5193,-5.5407,-5.5649,-5.6246,-5.6599,-5.6861,-5.7377,-5.7716,-5.8198,-5.8954,-5.9344,-5.9651,-6.036,-6.0959,-6.1307,-6.1452,-6.2468,-6.3167,-6.3167,-6.3832,-6.4358,-6.4358,-6.4568,-6.4741,-6.4741,-6.425,-6.3863,-6.3583,-6.222,-6.1247,-6.0936,-5.9683,-5.8636,-5.7706,-5.6941,-5.614,-5.5375,-5.4365,-5.3903,-5.4115,0.0,0.0,0.0,0.0,0.0,0.0,0.0,0.0,0.0,0.0,0.0,0.0,0.0,0.0,0.0,0.0,0.0,0.0,0.0,0.0,0.0,0.0,0.0,-0.1543,-0.3743,-0.5525,-0.6387,-0.8067,-0.9946,-1.1861,-1.3809,-1.5624,-1.7636,-1.9677,-2.1484,-2.331,-2.5133,-2.7086,-2.9198,-3.084,-3.2949,-3.5416,-3.7188,-3.9096,-4.1152,-4.283,-4.4525,-4.6195,-4.7772,-4.9198,-5.0741,-5.1731,-5.2833,-5.4236,-5.5095,-5.6129,-5.6875,-5.5619,-5.5362,-5.5564,-5.5516,-5.5692,-5.6006,-5.6065,-5.6545,-5.6768,-5.5463,-5.5201,-5.521,-5.4599,-5.4604,-5.4791,-5.507,-5.5347,-5.5621,-5.601,-5.6366,-5.675,-5.7356,-5.7527,-5.7975,-5.9333,-5.9862,-6.034,-6.1168,-6.13,-6.1341,-6.1797,-6.2787,-6.36,-6.36,-6.3892,0.0,-6.418,-6.418,-6.418,-6.418,-6.418,-6.3902,-6.3101,-6.2336,-6.157,-6.0736,-5.9972,-5.9172,-5.8372,-5.7642,-5.6877,-5.6043,-5.4583,-5.3938,-5.4115,0.0,0.0,0.0,0.0,0.0,0.0,0.0,0.0,0.0,0.0,0.0,0.0,0.0,0.0,0.0,0.0,0.0,0.0,0.0,0.0,0.0,0.1547,-0.0781,-0.2969,-0.4419,-0.5765,-0.7347,-0.925,-1.118,-1.3471,-1.547,-1.7449,-1.9696,-2.1747,-2.3729,-2.5403,-2.7429,-2.9424,-3.1167,-3.3227,-3.5375,-3.727,-3.9336,-4.1254,-4.3,-4.5012,-4.6855,-4.8366,-4.9899,-5.132,-5.2874,-5.381,-5.4891,-5.5942,-5.7223,-5.8143,-5.8491,-5.7961,-5.7627,-5.7625,-5.846,-5.8543,-5.8068,-5.7613,-5.7375,-5.722,-5.6854,-5.6592,-5.6326,-5.6173,-5.6207,-5.6303,-5.6462,-5.6652,-5.6746,-5.7306,-5.7551,-5.7825,-5.8186,-5.8663,-5.9166,-5.9621,-5.9997,-6.0487,-6.1053,-6.1168,-6.1361,-6.2154,-6.2634,-6.3,-6.3152,-6.3302,-6.3302,-6.3302,-6.3452,-6.3526,-6.3526,-6.3526,-6.3457,-6.3216,-6.183,-6.0933,-6.0693,-5.9492,-5.8427,-5.7638,-5.7398,-5.6744,-5.5602,-5.489,-5.4252,0.0,0.0,0.0,0.0,0.0,0.0,0.0,0.0,0.0,0.0,0.0,0.0,0.0,0.0,0.0,0.0,0.0,0.0,0.0,0.0,0.0,0.0,0.157,-0.0953,-0.3527,-0.468,-0.6032,-0.8132,-1.0065,-1.2029,-1.4527,-1.6568,-1.856,-2.0597,-2.267,-2.472,-2.6707,-2.8892,-3.0898,-3.2875,-3.5079,-3.7015,-3.8978,-4.1,-4.2882,-4.4783,-4.6652,-4.849,-5.0146,-5.1584,-5.3045,-5.4594,-5.5747,-5.6823,-5.7786,-5.9192,-5.9825,-6.0048,0.0,0.0,0.0,0.0,-6.0076,-5.9497,-5.8826,-5.8543,-5.8377,-5.8101,-5.7648,-5.7192,-5.7192,-5.6977,-5.6858,-5.6923,-5.7019,-5.718,-5.7495,-5.7746,-5.8026,-5.8303,-5.876,-5.9152,-5.9363,-5.9804,-6.0239,-6.0496,-6.0666,0.0,-6.1547,-6.211,-6.2425,-6.2581,-6.2659,-6.2736,-6.2736,-6.2813,-6.2889,-6.3,-6.3,-6.3076,-6.3152,-6.1947,0.0,0.0,0.0,-5.8456,-5.7363,-5.7021,0.0,0.0,0.0,-5.435,-5.3963,-5.3897,0.0,0.0,-5.2501,-5.2465,0.0,0.0,0.0,0.0,0.0,0.0,0.0,0.0,0.0,0.0,0.0,0.0,0.0,0.0,0.0,0.0,0.1591,-0.097,-0.3638,-0.4809,-0.6324,-0.8566,-1.0699,-1.269,-1.5042,-1.727,-1.9121,-2.1029,-2.3115,-2.5235,-2.7413,-2.9801,0.0,0.0,0.0,-3.8554,-4.0684,-4.25,-4.4433,-4.6492,-4.8211,-4.988,-5.1521,-5.3059,-5.4612,-5.6158,-5.7456,-5.8612,-5.945,-6.0637,-6.1257,-6.1375,-6.0675,-6.076,-6.1297,-6.1122,-6.0806,-6.0512,-5.9838,0.0,0.0,-5.9101,-5.8423,-5.7869,-5.7808,-5.7346,-5.6854,-5.6792,-5.6923,-5.7084,-5.7084,-5.7306,-5.759,-5.8026,-5.8119,-5.8303,-5.8792,-5.9274,-5.9628,-5.9628,-5.9946,-6.0378,-6.0548,-6.135,-6.1837,-6.1917,-6.2076,-6.2234,-6.2234,-6.2234,-6.2347,-6.2537,-6.2615,0.0,-6.2847,-6.2097,-6.1347,-6.0632,-5.9814,-5.8723,-5.736,-5.6679,-5.5928,-5.5212,-5.4624,-5.4342,-5.4431,-5.3929,-5.3862,-5.422,-5.3802,-5.3708,0.0,0.0,0.0,0.0,0.0,0.0,0.0,0.0,0.0,0.0,0.0,0.0,0.0,0.0,0.0,0.3974,0.1621,-0.0991,-0.3852,-0.5235,-0.6792,-0.8675,-1.1069,-1.3467,-1.5737,-1.781,-2.0085,-2.2532,-2.4846,-2.7068,-2.9071,-3.1495,-3.3584,-3.5521,-3.7634,-3.9793,-4.1934,-4.4057,-4.6176,-4.8401,-5.0426,0.0,-5.3784,-5.5246,-5.6752,-5.8117,-5.91,-6.0041,-6.0835,-6.1557,-6.2198,-6.2612,-6.1957,-6.2198,-6.2817,-6.1737,-6.14,-6.1397,-6.0721,-6.024,-5.9778,-5.9624,-5.9131,-5.8485,-5.7931,-5.7685,0.0,-5.6915,-5.6858,-5.6954,-5.7115,-5.7084,-5.7275,-5.7559,-5.7778,-5.8058,-5.8303,-5.861,-5.8972,-5.9331,-5.9419,-5.9684,-6.0087,-6.06,-6.1136,-6.1465,-6.1547,-6.1628,-6.179,-6.179,-6.187,-6.187,-6.187,-6.187,-6.1951,-6.1245,-6.0505,-5.9799,-5.8488,-5.7581,-5.7312,-5.6896,-5.6328,-5.5583,-5.5144,-5.4727,-5.4239,-5.4293,-5.4475,-5.4809,-5.3879,-5.3599,0.0,0.0,0.0,0.0,0.0,0.0,0.0,0.0,0.0,0.0,0.0,1.1682,1.0022,0.0,0.6036,0.4665,0.2136,-0.067,-0.373,-0.5673,-0.7284,-0.9189,-1.1535,-1.4116,-1.6553,-1.876,-2.1008,-2.3358,-2.5838,-2.8056,-3.0253,-3.252,-3.4827,-3.7064,-3.9263,-4.1545,-4.3687,-4.5697,-4.7571,-4.9472,-5.1339,-5.3195,-5.4695,-5.6182,-5.777,-5.928,-6.0346,-6.137,-6.2068,-6.2715,-6.3445,-6.39,-6.335,-6.3234,-6.3312,-6.2964,-6.2394,-6.1748,-6.1649,-6.0959,-6.0301,-6.0301,-5.9839,-5.9224,-5.8785,-5.8101,-5.7488,-5.7052,-5.6617,-5.647,-5.6537,-5.6634,-5.6827,-5.6988,-5.7275,-5.759,-5.7746,-5.8058,-5.8335,-5.8669,-5.8882,-5.9062,-5.9419,-5.9684,-6.012,-6.0802,-6.0886,-6.0969,-6.1053,-6.1053,-6.1053,-6.1219,-6.1219,-6.1219,-6.135,-6.0684,-5.9951,-5.9252,-5.823,-5.7539,-5.7172,-5.6734,-5.6342,-5.6115,-5.528,-5.4702,-5.4527,-5.4411,-5.4557,-5.4834,-5.4489,-5.4486,0.0,0.0,0.0,0.0,0.0,0.0,0.0,1.8132,1.6767,1.5696,1.4032,1.2285,1.0762,0.8655,0.6752,0.5535,0.266,-0.0508,-0.3771,-0.5929,-0.7765,-0.974,-1.2208,-1.459,-1.7339,-1.9701,-2.1944,-2.413,-2.6631,-2.8881,-3.1113,-3.3558,-3.5913,-3.846,-4.0668,-4.2863,-4.5169,-4.6951,-4.8684,-5.0588,-5.2283,-5.3948,-5.5435,-5.704,-5.8612,-6.0012,-6.1654,-6.2783,-6.3388,-6.4097,-6.4597,-6.4873,-6.4666,-6.4168,-6.3807,-6.412,-6.3485,-6.2285,-6.2321,-6.1784,-6.0978,-6.0824,-6.0424,-5.986,-5.9532,-5.8604,-5.7586,-5.7111,-5.6555,-5.613,-5.6009,-5.6176,-5.6372,-5.6537,-5.67,-5.6988,-5.7306,-5.7495,-5.7778,-5.8026,-5.8211,-5.8518,-5.8701,-5.8824,-5.9062,-6.0033,-6.0206,-6.0206,-6.0292,-6.0292,-6.0292,-6.0463,-6.0548,-6.06,-6.082,-6.0109,-5.9465,-5.8771,-5.8171,-5.7598,-5.6867,-5.6529,-5.6278,-5.6292,-5.537,-5.4803,-5.4737,-5.4459,-5.4505,-5.4648,-5.5018,-5.5437,2.5035,2.4237,2.3247,2.2295,2.1806,2.1264,0.0,1.8798,1.7704,1.6174,1.4572,1.2747,1.0898,0.8921,0.7321,0.643,0.3029,-0.0514,-0.3812,-0.5955,-0.781,-0.9941,-1.2663,-1.5363,-1.789,-2.0008,-2.2358,-2.4924,-2.7256,-2.9866,-3.2308,-3.4766,-3.7052,-3.9519,-4.136,-4.3507,-4.6144,-4.789,-4.992,-5.2283,-5.3948,-5.5582,-5.704,-5.8612,-6.0012,-6.1166,-6.3282,-6.4364,-6.4852,-6.5469,-6.544,-6.4904,-6.5185,-6.5126,-6.4703,-6.4414,-6.4181,-6.3871,-6.2662,-6.2093,-6.1594,-6.0978,-6.0524,-6.0267,-5.9551,-5.907,-5.8468,-5.7254,-5.6859,-5.6677,-5.613,-5.5979,-5.6077,-5.6077,-5.6077,-5.6244,-5.67,-5.6796,-5.6988,-5.7464,-5.759,-5.7684,-5.7965,-5.8058,-5.8335,-5.9331,-5.9419,-5.9508,-5.9772,-5.9772,-5.9804,-5.9859,-5.9827,-5.9914,-6.0087,-5.9435,-5.8801,-5.8331,-5.7609,-5.6887,-5.6277,-5.6459,-5.6359,-5.5696,-5.6051,-5.5744,-5.4499,-5.4872,-5.4826,-5.4494,-5.4869,-5.5319,2.5186,2.465,2.4054,2.3332,2.2511,2.17,2.0641,1.9476,1.8124,1.6783,1.5119,1.337,1.1348,0.9507,0.7733,0.6673,0.3403,-0.0173,-0.3853,-0.6013,-0.787,-0.9978,-1.3132,-1.6122,-1.8199,-2.0639,-2.2945,-2.5727,-2.8258,-3.0807,-3.3058,-3.5352,-3.7774,-4.0331,-4.2178,-4.4494,-4.6951,-4.8684,-5.0565,-5.2588,-5.4248,-5.5876,-5.7328,-5.8894,-6.0701,-6.262,-6.4325,-6.5202,-6.5689,-6.6252,-6.6126,-6.548,-6.5687,-6.5472,-6.5156,-6.4987,-6.4506,-6.3904,-6.3158,-6.2359,-6.1686,-6.0801,-6.0481,-6.0316,-5.9622,-5.9078,-5.8459,-5.7152,-5.6509,-5.6059,-5.5197,-5.525,-5.5481,-5.5481,-5.578,-5.6077,-5.6244,-5.6244,-5.6439,-5.67,-5.6892,-5.7084,-5.7401,-5.759,-5.7778,-5.8211,-5.861,-5.8972,-5.9241,-5.9241,-5.9241,-5.9331,-5.9331,-5.9331,-5.9419,-5.9161,-5.8678,-5.8023,-5.7566,-5.7019,-5.6336,-5.6362,-5.6315,-5.6249,-5.6046,-5.5917,-5.5639,-5.5179,-5.4937,-5.4987,-5.5015,-5.5294,2.5549,2.5129,2.4669,2.4098,2.3213,2.2232,2.1377,2.0163,1.8923,1.7485,1.5937,1.4152,1.1956,1.0082,0.8127,0.6405,0.3432,-0.0,-0.3351,-0.5889,-0.7945,-1.0025,-1.3418,-1.6491,-1.8685,-2.1086,-2.37,-2.6435,-2.9156,-3.1465,-3.3601,-3.6047,-3.846,-4.1173,-4.301,-4.5311,-4.7752,-4.9494,-5.1208,-5.2916,-5.4546,-5.6168,-5.7641,-5.9595,-6.1519,-6.3675,-6.4967,-6.5727,-6.6103,-6.6914,-6.6816,-6.6118,-6.62,-6.5861,-6.5466,-6.528,-6.4768,-6.4135,-6.3671,-6.2884,-6.1858,-6.0971,-6.053,-6.0167,-5.9529,-5.8984,-5.8338,-5.6941,-5.6242,-5.5574,-5.4613,-5.4641,-5.4976,-5.4976,-5.525,-5.5551,-5.578,-5.578,-5.588,-5.6145,-5.6311,-5.6537,-5.673,-5.6923,-5.7115,-5.718,-5.7653,-5.8119,-5.8518,-5.861,-5.861,-5.861,-5.861,-5.861,-5.8701,-5.8701,-5.8414,-5.7803,-5.7419,-5.6969,-5.6344,-5.6043,-5.6053,-5.6369,-5.6029,-5.6046,-5.6365,-5.5646,-5.5315,-5.5272,-5.5237,-5.5348,2.6296,2.5872,2.5348,2.4289,2.3938,2.3413,2.1885,2.1018,2.0047,1.813,1.6653,1.4955,1.2582,1.046,0.8305,0.5778,0.3101,0.0349,-0.2468,-0.5388,-0.8031,-1.0311,-1.3548,-1.6657,-1.9242,-2.1859,-2.4441,-2.7365,-2.9515,-3.182,-3.4653,-3.6896,-3.9313,-4.1528,-4.3837,-4.5961,-4.823,-4.9786,-5.1647,-5.3822,-5.546,-5.6921,-5.8523,-6.1138,-6.2914,-6.4095,-6.5094,-6.5727,-6.6132,-6.7457,-6.7514,-6.6816,-6.6905,-6.6457,-6.578,-6.5134,-6.5077,-6.5173,-6.4491,-6.3595,-6.2564,-6.1676,-6.0715,-5.988,-5.9315,-5.8882,-5.8367,-5.674,-5.6279,-5.5955,-5.4628,-5.4304,-5.4304,-5.4304,-5.4304,-5.4509,-5.5078,-5.5179,-5.5381,-5.588,-5.5979,-5.5979,-5.6077,-5.6077,-5.6145,-5.6311,-5.6409,-5.67,-5.7495,-5.759,-5.759,-5.759,-5.759,-5.7684,-5.7871,-5.7965,-5.7866,-5.7502,-5.6893,-5.628,-5.5837,-5.555,-5.5409,-5.5409,-5.6257,-5.6392,-5.5921,-5.6477,-5.6197,-5.5108,-5.5563,-5.5653,2.6987,2.6362,2.5889,2.5426,2.4673,2.3687,2.278,2.1558,2.0114,1.8632,1.7007,1.5264,1.3089,1.0857,0.8399,0.5845,0.3116,0.035,-0.2492,-0.5414,-0.8035,-1.0316,-1.3929,-1.7042,-1.9436,-2.2228,-2.4978,-2.7546,-3.0052,-3.2543,-3.5177,-3.743,-3.9992,-4.2512,-4.4658,-4.693,-4.9022,-5.103,-5.2869,-5.4546,-5.7065,-5.8947,-6.048,-6.1951,-6.3178,-6.4095,-6.5251,-6.5882,-6.6132,-6.7487,-6.7545,-6.6847,-6.6936,-6.6488,-6.5842,-6.5165,-6.4998,-6.4906,-6.4196,-6.3379,-6.238,-6.1493,-6.0395,-5.9345,-5.8912,-5.8664,-5.8039,-5.6447,-5.6065,-5.5664,-5.4136,-5.3919,-5.3993,-5.3993,-5.42,-5.4406,-5.4539,-5.4641,-5.4641,-5.4815,-5.5149,-5.5481,-5.5481,-5.578,-5.6077,-5.6047,-5.6342,-5.67,-5.6892,-5.6988,-5.6988,-5.6988,-5.6988,-5.7084,-5.7401,-5.7401,-5.7371,-5.7526,-5.6958,-5.6536,-5.5986,-5.5634,-5.5397,-5.5409,-5.5814,-5.6159,-5.6392,-5.6526,-5.6292,-5.5621,-5.574,-5.5591,2.7622,2.6988,2.6223,2.6177,2.5279,2.414,2.3365,2.2203,2.0717,1.9302,1.7474,1.5671,1.3486,1.1083,0.8618,0.6222,0.3297,0.0525,-0.1967,-0.5261,-0.8247,-1.0504,-1.4158,-1.7474,-1.9816,-2.277,-2.5525,-2.7727,-3.0588,-3.3249,-3.57,-3.8118,-4.0668,-4.3156,-4.5311,-4.7571,-4.9651,-5.167,-5.3648,-5.5876,-5.8186,-6.0065,-6.1302,-6.2487,-6.3413,-6.4224,-6.5504,-6.6007,-6.6257,-6.7487,-6.7697,-6.7329,-6.7028,-6.6642,-6.615,-6.5226,-6.4777,-6.4685,-6.4224,-6.3268,-6.2195,-6.1334,-6.0144,-5.8991,-5.8555,-5.8114,-5.7599,-5.6012,-5.5525,-5.5018,-5.3637,-5.329,-5.35,-5.35,-5.371,-5.3919,-5.3993,-5.4097,-5.42,-5.4304,-5.4641,-5.4845,-5.4845,-5.5149,-5.535,-5.535,-5.562,-5.6017,-5.6439,-5.6439,-5.6439,-5.6439,-5.6439,-5.6537,-5.673,-5.673,-5.6827,-5.718,-5.6747,-5.6246,-5.592,-5.5462,-5.5197,-5.5081,-5.5409,-5.5894,-5.6603,-5.6671,-5.6511,-5.6265,-5.6093,-5.5854,2.8196,2.7455,2.6634,2.6268,2.5751,2.5049,2.3918,2.2965,2.1719,1.9828,1.8026,1.6015,1.4099,1.147,0.8959,0.7087,0.3644,0.0701,-0.1073,-0.4924,-0.8489,-1.0876,-1.4421,-1.7779,-2.0751,-2.3687,-2.6253,-2.8256,-3.1109,-3.3777,-3.6047,-3.8785,-4.1341,-4.3652,-4.5799,-4.8049,-5.0121,-5.1824,-5.4373,-5.7354,-5.8894,-6.0177,-6.1302,-6.2753,-6.3834,-6.4512,-6.5504,-6.6132,-6.6629,-6.7608,-6.797,-6.7938,-6.7212,-6.6919,-6.6735,-6.538,-6.4635,-6.4382,-6.4382,-6.3495,-6.2177,-6.1408,-6.0176,-5.8882,-5.8003,-5.7528,-5.693,-5.5464,-5.4759,-5.4251,-5.2994,-5.268,-5.268,-5.268,-5.2894,-5.3107,-5.3395,-5.371,-5.389,-5.42,-5.4304,-5.4304,-5.4304,-5.4304,-5.4304,-5.4304,-5.4304,-5.4713,-5.575,-5.588,-5.588,-5.588,-5.588,-5.588,-5.5979,-5.5979,-5.6145,-5.6603,-5.6019,-5.5688,-5.547,-5.5202,-5.4861,-5.4476,-5.4998,-5.5653,-5.6402,-5.6757,-5.6921,-5.6799,-5.6611,-5.6391,2.8576,2.8067,2.7442,2.7244,2.6511,2.5538,2.4596,2.3239,2.1719,2.0288,1.8505,1.6501,1.4592,1.221,0.9719,0.7266,0.4016,0.1059,-0.1074,-0.4924,-0.8489,-1.0876,-1.4421,-1.7779,-2.0751,-2.3687,-2.6616,-2.9335,-3.1834,-3.4303,-3.6584,-3.9296,-4.1825,-4.4001,-4.6608,-4.8684,-5.0565,-5.3624,-5.634,-5.8212,-5.9482,-6.0591,-6.1681,-6.2886,-6.3834,-6.4512,-6.5504,-6.6132,-6.6506,-6.7365,-6.7729,-6.7818,-6.6717,-6.6314,-6.6361,-6.4819,-6.4218,-6.4075,-6.3478,-6.2491,-6.1408,-6.1186,-5.9733,-5.8003,-5.7528,-5.722,-5.6705,-5.5131,-5.4537,-5.4251,-5.2994,-5.268,-5.268,-5.268,-5.2787,-5.2787,-5.2894,-5.3107,-5.3319,-5.3424,-5.371,-5.4097,-5.4304,-5.4304,-5.4304,-5.4304,-5.4304,-5.4406,-5.4713,-5.4713,-5.4713,-5.4713,-5.4713,-5.4815,-5.5048,-5.528,-5.5581,-5.5849,-5.5895,-5.5822,-5.5719,-5.5101,-5.4875,-5.4948,-5.492,-5.5213,-5.5894,-5.6525,-5.6696,-5.6583,-5.6915,-5.6675,2.8892,2.8494,2.8142,2.7676,2.6875,2.588,2.4864,2.3426,2.1905,2.0583,1.873,1.6686,1.4845,1.2612,0.9918,0.727,0.4199,0.1239,-0.1074,-0.4924,-0.8489,-1.1237,-1.46,-1.7957,-2.149,-2.4064,-2.6797,-3.0052,-3.2366,-3.489,-3.7665,-4.0243,-4.2778,-4.5122,-4.7385,-4.9671,-5.2107,-5.4843,-5.6921,-5.8523,-5.9761,-6.1002,-6.2086,-6.315,-6.4095,-6.474,-6.563,-6.6132,-6.6506,-6.7243,-6.7427,-6.7304,-6.6391,-6.59,-6.562,-6.4471,-6.3849,-6.3448,-6.2804,-6.1685,-6.0482,-6.0482,-5.9173,-5.7528,-5.722,-5.688,-5.6166,-5.4572,-5.3979,-5.3585,-5.2234,-5.2033,-5.2141,-5.2141,-5.2358,-5.2465,-5.2465,-5.268,-5.2894,-5.2894,-5.3213,-5.3395,-5.3605,-5.3576,-5.3576,-5.3576,-5.3576,-5.3576,-5.3576,-5.3993,-5.4304,-5.4304,-5.4304,-5.4406,-5.4509,-5.4743,-5.4947,-5.5381,-5.5581,-5.5577,-5.5363,-5.488,-5.476,-5.4794,-5.4591,-5.48,-5.5572,-5.61,-5.6525,-5.6761,-5.7043,-5.6987,2.9143,2.8972,2.8773,2.7971,2.7197,2.6239,2.4904,2.3426,2.194,2.0769,1.8976,1.688,1.4959,1.2675,1.0109,0.727,0.4205,0.1419,-0.1074,-0.4924,-0.8668,-1.1598,-1.4785,-1.8338,-2.2238,-2.443,-2.6966,-3.0396,-3.2925,-3.5541,-3.8646,-4.1097,-4.3813,-4.6804,-4.8349,-5.0816,-5.3972,-5.546,-5.7065,-5.8664,-6.0039,-6.1275,-6.2381,-6.3573,-6.4354,-6.4996,-6.5756,-6.6132,-6.6506,-6.7243,-6.7095,-6.6432,-6.6005,-6.5456,-6.4904,-6.4122,-6.3394,-6.2814,-6.2157,-6.0931,-5.9682,-5.9595,-5.8519,-5.7191,-5.688,-5.6308,-5.5591,-5.4007,-5.3329,-5.2795,-5.1321,-5.1155,-5.1376,-5.1376,-5.1706,-5.2113,-5.2113,-5.2358,-5.268,-5.268,-5.268,-5.268,-5.268,-5.2737,-5.2794,-5.2794,-5.288,-5.2937,-5.2937,-5.3588,-5.4097,-5.4097,-5.4097,-5.4097,-5.4097,-5.42,-5.4436,-5.4976,-5.5078,-5.511,-5.5001,-5.4813,-5.4607,-5.4473,-5.4229,-5.4507,-5.5328,-5.5781,-5.6336,-5.6987,-5.706,-5.7257,2.9851,2.9705,2.9542,2.8679,2.7939,2.6969,2.5492,2.4153,2.283,2.1223,1.9604,1.7517,1.5123,1.3263,1.0881,0.7454,0.4584,0.1788,-0.1076,-0.4924,-0.8668,-1.1598,-1.4785,-1.8338,-2.2238,-2.443,-2.7148,-3.0931,-3.3294,-3.5779,-3.8837,-4.1421,-4.4945,-4.9402,-5.0748,-5.2483,-5.4695,-5.6047,-5.7523,-5.8947,-6.0177,-6.1275,-6.2381,-6.3573,-6.4354,-6.4996,-6.5756,-6.6132,-6.6506,-6.6876,-6.6853,-6.6432,-6.5532,-6.4958,-6.4412,-6.3318,-6.2731,-6.2496,-6.1379,-6.0267,-5.9277,-5.8725,-5.7799,-5.688,-5.5961,-5.5613,-5.5243,-5.3407,-5.2816,-5.2539,-5.121,-5.0906,-5.1017,-5.1017,-5.1266,-5.1486,-5.1486,-5.1924,-5.2358,-5.268,-5.268,-5.268,-5.268,-5.3109,-5.3452,-5.3452,-5.388,-5.4223,-5.4223,-5.3525,-5.2972,-5.2972,-5.2972,-5.2972,-5.2972,-5.3395,-5.371,-5.3844,-5.4466,-5.4947,-5.51,-5.4933,-5.4844,-5.4638,-5.4715,-5.4758,-5.48,-5.5458,-5.6132,-5.6757,-5.7305,-5.7412,3.0497,3.0316,2.9928,2.925,2.8274,2.726,2.5786,2.4449,2.298,2.1688,1.9918,1.7836,1.5787,1.362,1.1251,0.7799,0.4767,0.1971,-0.1076,-0.4924,-0.8668,-1.1598,-1.4785,-1.8338,-2.2238,-2.4613,-2.7316,-3.1109,-3.3886,-3.6804,-3.9809,-4.3575,-4.7134,-5.044,-5.1753,-5.3195,-5.4992,-5.634,-5.7784,-5.9114,-6.0342,-6.1546,-6.2648,-6.3573,-6.4354,-6.4996,-6.5756,-6.6132,-6.6257,-6.6753,-6.6522,-6.5712,-6.5024,-6.4307,-6.3351,-6.2587,-6.2145,-6.1644,-6.0414,-5.9392,-5.8636,-5.7282,-5.6536,-5.6077,-5.5613,-5.5261,-5.4686,-5.2972,-5.2498,-5.2223,-5.0761,-5.0572,-5.0711,-5.0711,-5.1045,-5.1404,-5.1404,-5.1706,-5.2004,-5.2221,-5.2505,-5.2703,-5.2703,-5.3241,-5.3666,-5.3666,-5.3921,-5.3979,-5.3867,-5.3359,-5.2989,-5.3194,-5.288,-5.268,-5.268,-5.3001,-5.3184,-5.35,-5.3948,-5.4363,-5.5006,-5.462,-5.4516,-5.4449,-5.4419,-5.4417,-5.4412,-5.5081,-5.5733,-5.6336,-5.7139,-5.7533,3.1185,3.0865,3.0442,2.9585,2.8563,2.755,2.6239,2.4757,2.3279,2.2152,2.0064,1.8154,1.6286,1.3964,1.1251,0.7972,0.4943,0.1973,-0.1079,-0.493,-0.8676,-1.1635,-1.4805,-1.8338,-2.2238,-2.4785,-2.7677,-3.1109,-3.4994,-3.8359,-4.1467,-4.5748,-4.9075,-5.0777,-5.1977,-5.3497,-5.5287,-5.675,-5.807,-5.9228,-6.0618,-6.1844,-6.2753,-6.3704,-6.4354,-6.4996,-6.563,-6.5882,-6.5882,-6.6506,-6.5978,-6.4785,-6.4575,-6.3654,-6.2498,-6.1998,-6.1642,-6.1019,-5.9595,-5.8663,-5.7871,-5.6035,-5.5496,-5.5496,-5.5261,-5.4936,-5.4212,-5.2533,-5.2178,-5.1905,-5.0335,-5.015,-5.0375,-5.0487,-5.0934,-5.1266,-5.1376,-5.168,-5.1983,-5.1983,-5.2489,-5.2911,-5.2911,-5.3445,-5.3866,-5.3752,-5.3865,-5.3834,-5.349,-5.3379,-5.3329,-5.361,-5.3011,-5.2665,-5.2665,-5.2658,-5.2759,-5.3184,-5.3395,-5.3844,-5.4466,-5.4369,-5.4368,-5.4379,-5.4237,-5.4193,-5.4238,-5.4761,-5.5328,-5.5941,-5.6834,-5.7514,3.1598,3.1565,3.1277,3.014,2.9282,2.8274,2.6677,2.5345,2.4026,2.2603,2.0533,1.8461,1.645,1.3964,1.1251,0.7972,0.4943,0.1798,-0.109,-0.4951,-0.87,-1.1748,-1.4865,-1.8338,-2.2238,-2.4785,-2.7677,-3.1109,-3.6964,-4.1449,-4.3938,-4.6629,-4.8926,-5.0746,-5.2387,-5.4098,-5.6072,-5.721,-5.8355,-5.9508,-6.0755,-6.1709,-6.2515,-6.3573,-6.4224,-6.4612,-6.5222,-6.5601,-6.5601,-6.5882,-6.5365,-6.4213,-6.4213,-6.3266,-6.2116,-6.1552,-6.1193,-6.0899,-5.9004,-5.7951,-5.7246,-5.5889,-5.5496,-5.5379,-5.4433,-5.4194,-5.3828,-5.1944,-5.1711,-5.1557,-4.9993,-4.9783,-5.0123,-5.0402,-5.0711,-5.1017,-5.1376,-5.2016,-5.263,-5.263,-5.3135,-5.3585,-5.3585,-5.4091,-5.4397,-5.4167,-5.4497,-5.4741,-5.456,-5.3917,-5.3558,-5.3619,-5.2795,-5.2324,-5.2324,-5.2234,-5.2221,-5.2329,-5.3078,-5.353,-5.3635,-5.4611,-5.486,-5.4466,-5.4568,-5.4667,-5.4731,-5.4698,-5.5049,-5.5701,-5.6447,-5.7063,3.2294,3.1878,3.1418,3.0442,2.9425,2.8403,2.71,2.5639,2.4175,2.2923,2.1001,1.8937,1.7104,1.463,1.1589,0.8313,0.5651,0.2698,-0.0909,-0.477,-0.8331,-1.1764,-1.5059,-1.8516,-2.2238,-2.5343,-2.9427,-3.5018,-3.8642,-4.1922,-4.4941,-4.7318,-4.9415,-5.1154,-5.2694,-5.4397,-5.6219,-5.7498,-5.8638,-5.9648,-6.1002,-6.1816,-6.2381,-6.3573,-6.4224,-6.4512,-6.5222,-6.5475,-6.5446,-6.5441,-6.4887,-6.4062,-6.3407,-6.2582,-6.1523,-6.1073,-6.0451,-5.9537,-5.8263,-5.7218,-5.6289,-5.4828,-5.4314,-5.4314,-5.3954,-5.347,-5.2836,-5.1442,-5.1213,-5.0944,-4.9879,-4.9783,-5.001,-5.015,-5.0487,-5.0793,-5.1488,-5.2101,-5.2631,-5.322,-5.3782,-5.4231,-5.4231,-5.4622,-5.4781,-5.4664,-5.4651,-5.4699,-5.4341,-5.4121,-5.3837,-5.3599,-5.3,-5.2346,-5.2071,-5.2156,-5.2208,-5.1924,-5.2437,-5.2972,-5.35,-5.4126,-5.4315,-5.4261,-5.48,-5.4791,-5.4317,-5.4743,-5.508,-5.5328,-5.5974,-5.6647,3.2905,3.2561,3.1718,3.0868,2.9855,2.8691,2.739,2.6078,2.4621,2.3384,2.1468,1.9411,1.7584,1.4959,1.1927,0.8654,0.618,0.3242,-0.0913,-0.4595,-0.8339,-1.1626,-1.5265,-1.8702,-2.2238,-2.6423,-3.1469,-3.7418,-3.9513,-4.2044,-4.5401,-4.761,-4.9524,-5.1108,-5.2929,-5.457,-5.6219,-5.7784,-5.8947,-5.9648,-6.1138,-6.1951,-6.2248,-6.3442,-6.4095,-6.4354,-6.5094,-6.5348,-6.529,-6.4898,-6.4282,-6.3515,-6.2628,-6.1745,-6.0831,-6.0438,-5.955,-5.8438,-5.7426,-5.6475,-5.5381,-5.4051,-5.3349,-5.3105,-5.3105,-5.2754,-5.2135,-5.103,-5.0498,-5.0164,-4.9657,-4.9783,-4.9897,-5.001,-5.0399,-5.0983,-5.1594,-5.2321,-5.3078,-5.3866,-5.4428,-5.485,-5.4734,-5.4865,-5.4908,-5.479,-5.458,-5.4341,-5.3954,-5.3954,-5.3833,-5.3592,-5.3216,-5.2801,-5.2283,-5.2152,-5.2101,-5.1986,-5.2008,-5.2437,-5.3184,-5.3605,-5.3892,-5.4261,-5.4745,-5.4874,-5.4452,-5.4894,-5.5153,-5.532,-5.5718,-5.6414,3.3716,3.326,3.2421,3.1294,3.0425,2.9425,2.7825,2.6663,2.5376,2.3832,2.1768,1.9717,1.7747,1.4959,1.1927,0.8654,0.618,0.3251,-0.0922,-0.4801,-0.8358,-1.1736,-1.5327,-1.8702,-2.2238,-2.8205,-3.353,-3.725,-3.9721,-4.2292,-4.5483,-4.7296,-4.9025,-5.0565,-5.274,-5.457,-5.6219,-5.7784,-5.8947,-5.9648,-6.1138,-6.1789,-6.1789,-6.3282,-6.3965,-6.4095,-6.474,-6.4996,-6.4938,-6.4299,-6.341,-6.2496,-6.1862,-6.0983,-6.0194,-5.9454,-5.8812,-5.8165,-5.6842,-5.5621,-5.4379,-5.3782,-5.2983,-5.2121,-5.2121,-5.1971,-5.1656,-5.0684,-4.9587,-4.8921,-4.9469,-4.9556,-4.967,-4.9897,-5.0699,-5.1505,-5.1704,-5.2986,-5.4222,-5.4569,-5.5074,-5.5379,-5.5026,-5.5026,-5.479,-5.4194,-5.4074,-5.3954,-5.3592,-5.3592,-5.3592,-5.3592,-5.3592,-5.3468,-5.3225,-5.2393,-5.193,-5.2296,-5.2042,-5.2113,-5.268,-5.3184,-5.3919,-5.4743,-5.459,-5.4916,-5.5715,-5.5124,-5.5146,-5.5773,-5.5733,-5.6414,3.3539,3.3477,3.3121,3.17,3.0852,2.9838,2.8243,2.6808,2.5376,2.3832,2.209,2.02,1.7756,1.5127,1.2441,0.918,0.6892,0.3973,-0.0553,-0.5359,-0.9305,-1.1741,-1.7375,-2.2402,-2.6253,-2.9847,-3.353,-3.725,-3.963,-4.2312,-4.5463,-4.7328,-4.9175,-5.1053,-5.2892,-5.457,-5.6219,-5.7784,-5.8947,-5.9648,-6.1138,-6.1789,-6.1789,-6.3018,-6.3704,-6.3965,-6.4483,-6.4352,-6.389,-6.3255,-6.2496,-6.149,-6.086,-6.0242,-5.9397,-5.8851,-5.7796,-5.6541,-5.547,-5.4379,-5.3497,-5.2791,-5.2218,-5.1747,-5.1497,-5.123,-5.0821,-4.985,-4.9153,-4.8779,-4.9125,-4.9764,-5.0317,-5.0519,-5.1211,-5.1898,-5.263,-5.3364,-5.4013,-5.4781,-5.5239,-5.5379,-5.5026,-5.4817,-5.458,-5.4194,-5.3954,-5.3713,-5.3592,-5.3592,-5.3592,-5.3592,-5.3592,-5.3347,-5.287,-5.2814,-5.2498,-5.1673,-5.1989,-5.2126,-5.2141,-5.2865,-5.35,-5.4126,-5.4637,-5.5137,-5.5459,-5.5596,-5.5794,-5.6027,-5.614,-5.6603,3.3741,3.3532,3.3339,3.2088,3.1277,3.0266,2.8691,2.7245,2.5806,2.4291,2.2567,2.0526,1.8072,1.563,1.279,0.9525,0.742,0.4514,-0.0184,-0.5544,-1.0421,-1.3983,-1.9419,-2.4247,-2.8076,-3.0917,-3.3837,-3.7052,-3.9777,-4.2459,-4.5223,-4.7098,-4.9179,-5.1385,-5.2916,-5.457,-5.6219,-5.7784,-5.8947,-5.9648,-6.1138,-6.1789,-6.1789,-6.2886,-6.3545,-6.3806,-6.3837,-6.375,0.0,-6.2428,-6.1479,-6.0677,-6.0052,-5.9454,-5.8746,-5.7855,-5.6748,-5.5523,-5.4457,-5.3493,-5.2492,-5.1996,-5.1465,-5.0857,-5.04,-5.024,-5.0089,-4.9061,-4.8603,-4.86,-4.9276,-4.9854,-5.0524,-5.1088,-5.1719,-5.238,-5.3116,-5.3598,-5.4228,-5.4825,-5.5144,-5.5261,-5.4936,-5.458,-5.4341,-5.3954,-5.3713,-5.3592,-5.3592,-5.347,-5.3349,-5.3349,-5.3349,-5.3066,-5.2836,-5.2951,-5.2752,-5.2103,-5.2094,-5.2101,-5.2152,-5.2658,-5.3184,-5.371,-5.4539,-5.517,-5.5439,-5.6028,-5.6203,-5.6027,-5.6352,-5.6789,0.0,3.3853,3.3185,3.2438,3.17,3.071,2.9122,2.7825,0.0,2.5219,2.3174,2.0998,1.856,1.5973,1.3133,0.9525,0.7952,0.5236,-0.0,-0.5734,-1.1541,-1.7343,-2.1093,-2.4602,-2.8076,-3.1451,-3.4447,-3.674,-3.9992,-4.2697,-4.5005,-4.7111,-4.9179,-5.1385,-5.2916,-5.457,-5.6219,-5.7784,-5.8947,-5.9648,-6.1138,-6.1789,-6.1789,-6.2886,-6.3385,-6.3328,-6.3122,-6.2936,-6.2765,-6.1594,-6.058,-5.9964,-5.9304,-5.8676,-5.7933,-5.6668,-5.5817,-5.497,-5.3779,-5.2569,-5.1471,-5.1471,-5.0706,-4.964,-4.9102,-4.9142,-4.9153,-4.8368,-4.8224,-4.8498,-4.9728,-5.0057,-5.0361,-5.1629,-5.2343,-5.2897,-5.3134,-5.3956,-5.4699,-5.4908,-5.5026,-5.4908,-5.4607,-5.4341,-5.3954,-5.3592,-5.3592,-5.3592,-5.3592,-5.3349,-5.3132,-5.3132,-5.2861,-5.2738,-5.3105,-5.2863,-5.287,-5.3198,-5.2333,-5.2126,-5.2603,-5.2727,-5.3029,-5.35,-5.4333,-5.5048,-5.5681,-5.6433,-5.6536,-5.5965,-5.6608,-5.6953,3.4348,0.0,3.4003,3.3568,3.2684,3.1542,0.0,2.8691,2.6983,2.5496,2.3328,2.0998,1.8894,1.6141,1.3304,1.0386,0.8301,0.5416,0.0368,-0.6724,-1.3017,-1.7561,-2.1093,-2.4602,-2.8076,-3.1451,-3.4447,-3.7241,-4.0313,-4.3176,-4.5311,-4.7592,-4.9651,-5.1824,-5.3044,-5.457,-5.6219,-5.7784,-5.8947,-5.9648,-6.1138,-6.1789,-6.1789,-6.2648,-6.2925,-6.2705,-6.2664,-6.2068,-6.116,-6.0596,-5.9823,-5.9025,-5.8633,-5.7768,-5.6641,-5.5916,-5.4566,-5.3097,-5.2266,-5.1476,-5.0842,-5.0487,-4.9977,-4.9291,-4.8706,-4.8615,-4.8635,-4.8028,-4.8394,-4.9022,-4.9834,-5.067,-5.151,-5.236,-5.2968,-5.3402,-5.3522,-5.4112,-5.4607,-5.4699,-5.4817,-5.4908,-5.4607,-5.4341,-5.3954,-5.3592,-5.3592,-5.3592,-5.3592,-5.3349,-5.3132,-5.3132,-5.2861,-5.2738,-5.3105,-5.2998,-5.2971,-5.287,-5.3014,-5.2784,-5.2071,-5.2905,-5.3382,-5.3184,-5.4641,-5.5651,-5.6115,-5.6591,-5.692,-5.714,-5.7462,-5.7773,3.5093,3.4681,3.4394,3.3724,3.2977,3.1965,3.0693,2.9107,2.7422,2.5951,2.3778,2.1615,1.9371,1.6801,1.3981,1.0725,0.8828,0.5051,-0.313,-0.8812,-1.3639,-1.7569,-2.1277,-2.4967,-2.8424,-3.1806,-3.4972,-3.7757,-4.065,-4.3322,-4.5474,-4.789,-5.0121,-5.1954,-5.3346,-5.4868,-5.651,-5.7784,-5.8947,-5.9648,-6.1002,-6.1544,-6.1402,-6.1936,-6.2155,-6.1824,-6.1385,-6.075,-6.0104,-5.9542,-5.8729,-5.7916,-5.7514,-5.6677,-5.566,-5.452,-5.3382,-5.2406,-5.1428,-5.0842,-5.0359,-4.9976,-4.9292,-4.8611,-4.8585,-4.8375,-4.8146,-4.8076,-4.8588,-4.9337,-5.0552,-5.1283,-5.1964,-5.2929,-5.3375,-5.3592,-5.3592,-5.3981,-5.4341,-5.4341,-5.4433,-5.4552,-5.446,-5.4074,-5.3833,-5.3592,-5.3592,-5.3592,-5.3592,-5.3227,-5.2861,-5.2861,-5.2465,-5.2342,-5.2861,-5.2861,-5.2971,-5.313,-5.3453,-5.3337,-5.2674,-5.3246,-5.3633,-5.371,-5.4641,-5.5551,-5.6145,-5.6712,-5.7025,-5.7168,-5.7763,-5.8176,3.5894,3.5369,3.458,3.3662,3.3092,3.2386,3.0977,2.9393,2.786,2.6418,2.4406,2.2241,1.9856,1.7469,1.4493,1.0897,0.8673,0.3437,-0.7562,-1.089,-1.3639,-1.7569,-2.1646,-2.532,-2.8771,-3.216,-3.5336,-3.8118,-4.0819,-4.3322,-4.5637,-4.8049,-5.0254,-5.2107,-5.3648,-5.514,-5.6946,-5.7953,-5.8947,-5.9648,-6.0647,-6.1026,-6.0905,-6.1059,-6.1091,-6.079,-5.9846,-5.944,-5.9173,-5.8419,-5.7633,-5.6984,-5.634,-5.5633,-5.4724,-5.2979,-5.2305,-5.1895,-5.0768,-5.0104,-4.9873,-4.959,-4.876,-4.8008,-4.8611,-4.8308,-4.7866,-4.8575,-4.8963,-4.9677,-5.1402,-5.1842,-5.2272,-5.3362,-5.3592,-5.3592,-5.3592,-5.3833,-5.4074,-5.4074,-5.4074,-5.4101,-5.4211,-5.397,-5.3754,-5.3863,-5.3863,-5.3863,-5.3863,-5.3251,-5.2855,-5.2855,-5.2154,-5.1977,-5.2722,-5.2642,-5.2861,-5.3592,-5.3608,-5.3751,-5.3757,-5.3613,-5.3877,-5.4348,-5.4568,-5.5149,-5.5979,-5.673,-5.7089,-5.6992,-5.7956,-5.8421,3.5645,3.5509,3.5329,3.472,3.3779,3.2824,3.17,2.9981,2.8297,2.7187,2.4866,2.2397,2.0653,1.7794,1.4664,1.1412,0.5368,-0.1288,-0.8136,-1.089,-1.3639,-1.7569,-2.1646,-2.532,-2.8771,-3.216,-3.5336,-3.8597,-4.0987,-4.3487,-4.5961,-4.8367,-5.041,-5.2389,-5.3798,-5.5287,-5.7235,-5.8096,-5.8947,-5.9648,-6.0213,-6.0453,-6.0478,-6.0248,-5.993,-5.9377,-5.9266,-5.8677,-5.7953,-5.7486,-5.6875,-5.6003,-5.5279,-5.4126,-5.2848,-5.2282,-5.1408,-5.0359,-4.9615,-4.9072,-4.8837,-4.9072,-4.8779,-4.8305,-4.8761,-4.856,-4.8502,-4.9358,-4.9884,-5.0428,-5.1467,-5.2135,-5.2604,-5.3443,-5.3592,-5.3592,-5.3592,-5.3833,-5.4074,-5.4074,-5.4074,-5.4238,-5.4786,-5.4597,-5.4514,-5.5057,-5.5138,-5.5138,-5.5138,-5.4485,-5.4107,-5.4107,-5.3023,-5.2607,-5.3236,-5.2908,-5.2861,-5.3592,-5.3872,-5.4165,-5.4338,-5.3808,-5.3971,-5.4709,-5.4702,-5.5149,-5.5979,-5.673,-5.7338,-5.7714,-5.869,-5.9337,3.6055,3.6101,3.6071,3.5225,3.4429,3.3539,3.2403,3.0843,2.9112,2.7817,2.5598,2.3236,2.1167,1.8199,1.4714,1.0379,0.4161,-0.2217,-0.8324,-1.089,-1.3639,-1.7569,-2.1646,-2.5503,-2.913,-3.2337,-3.551,-3.9125,-4.1155,-4.3487,-4.6144,-4.8504,-5.0565,-5.226,-5.3798,-5.5311,-5.6632,-5.732,-5.8166,-5.9142,-5.921,-5.9315,-5.9385,-5.9243,-5.8934,-5.8356,-5.8099,-5.7677,-5.699,-5.6176,-5.5492,-5.4784,-5.3763,-5.2698,-5.182,-5.0972,-5.0074,-4.9227,-4.8967,-4.8706,-4.86,-4.8837,-4.8595,-4.8352,-4.8882,-4.8812,-4.8862,-4.9924,-5.0249,-5.0591,-5.1891,-5.2402,-5.2711,-5.347,-5.3592,-5.3592,-5.3592,-5.3713,-5.3833,-5.3833,-5.4106,-5.4406,-5.4706,-5.4882,-5.5084,-5.5383,-5.541,-5.541,-5.541,-5.4781,-5.4373,-5.4373,-5.3523,-5.3238,-5.3974,-5.3441,-5.3332,-5.3861,-5.4221,-5.4394,-5.4453,-5.4601,-5.4639,-5.4778,-5.4907,-5.5304,-5.5979,-5.6439,-5.6988,-5.7684,-5.8518,-5.9241,3.6667,3.6603,3.6547,3.5601,3.495,3.4214,3.2945,3.1548,3.0032,2.8282,2.6167,2.4049,2.1491,1.8121,1.3939,0.9286,0.3825,-0.2216,-0.8324,-1.089,-1.3639,-1.7569,-2.1646,-2.5503,-2.9475,-3.2337,-3.5684,-3.9466,-4.1323,-4.3487,-4.6144,-4.8662,-5.0565,-5.1954,-5.3678,-5.5063,-5.5796,-5.6252,-5.7155,-5.8392,-5.8214,-5.8078,-5.8173,-5.8037,-5.7738,-5.7303,-5.7044,-5.6574,-5.5996,-5.5049,-5.4184,-5.3452,-5.2182,-5.1254,-5.0713,-4.9766,-4.8967,-4.8445,-4.8445,-4.8445,-4.8313,-4.8445,-4.8435,-4.8447,-4.8948,-4.9032,-4.9165,-5.0359,-5.0533,-5.0675,-5.2112,-5.2588,-5.2738,-5.3349,-5.3592,-5.3592,-5.3592,-5.37,-5.3809,-5.3809,-5.4297,-5.4758,-5.4894,-5.5301,-5.5681,-5.5817,-5.5817,-5.5817,-5.5817,-5.531,-5.4928,-5.48,-5.4179,-5.4047,-5.4527,-5.4092,-5.3928,-5.432,-5.4543,-5.4595,-5.4678,-5.5225,-5.5386,-5.5109,-5.5242,-5.5589,-5.6191,-5.6305,-5.67,-5.7495,-5.8243,-5.8972,3.6911,3.6854,3.6676,3.6269,3.5465,3.4452,3.3085,3.1691,3.0324,2.8746,2.6613,2.451,2.247,1.7027,1.1975,0.9113,0.4005,-0.1846,-0.8139,-1.089,-1.3639,-1.7569,-2.1646,-2.5503,-2.9475,-3.2337,-3.5668,-3.9296,-4.1323,-4.3487,-4.6144,-4.8367,-5.0254,-5.1977,-5.3168,-5.4254,-5.539,-5.5064,-5.5779,-5.7425,-5.7223,-5.7171,-5.7091,-5.6556,-5.6289,-5.6236,-5.6263,-5.555,-5.4394,-5.421,-5.3192,-5.1588,-5.0836,-4.9856,-4.878,-4.8731,-4.8445,-4.8026,-4.8026,-4.7894,-4.763,-4.7894,-4.8289,-4.8657,-4.8942,-4.9307,-4.9668,-5.0461,-5.0563,-5.079,-5.1846,-5.2368,-5.2738,-5.2983,-5.3349,-5.3592,-5.3592,-5.4026,-5.4433,-5.4433,-5.4921,-5.5518,-5.6061,-5.6197,-5.6441,-5.6984,-5.7065,-5.7065,-5.7065,-5.6807,-5.6417,-5.5998,-5.5519,-5.5088,-5.4907,-5.4592,-5.461,-5.495,-5.4671,-5.4671,-5.497,-5.5366,-5.5676,-5.6229,-5.5606,-5.5797,-5.6829,-5.6518,-5.67,-5.7495,-5.8243,-5.8972,3.7645,3.7588,3.7273,3.6746,3.6196,3.5412,3.3798,3.2451,3.1023,2.9225,2.7241,2.4589,2.0196,1.5676,1.1726,0.8583,0.4007,-0.1107,-0.7019,-1.0128,-1.3257,-1.7569,-2.1646,-2.532,-2.895,-3.216,-3.5336,-3.8614,-4.0987,-4.3322,-4.5799,-4.8208,-4.9964,-5.1056,-5.2655,-5.3716,-5.3911,-5.4353,-5.4765,-5.532,-5.5893,-5.6187,-5.6451,-5.6211,-5.5656,-5.4919,-5.4919,-5.4184,-5.2956,-5.2097,-5.1452,-5.0655,-4.9651,-4.8879,-4.8182,-4.8182,-4.8026,-4.763,-4.763,-4.763,-4.7497,-4.763,-4.805,-4.86,-4.8706,-4.9227,-4.9719,-5.0461,-5.0588,-5.0842,-5.1872,-5.2368,-5.2711,-5.2983,-5.3349,-5.37,-5.408,-5.4324,-5.4596,-5.4976,-5.5545,-5.6034,-5.6251,-5.6604,-5.6929,-5.7146,-5.7174,-5.7174,-5.7174,-5.6942,-5.6682,-5.6524,-5.6337,-5.5961,-5.5498,-5.5609,-5.5551,-5.5304,-5.4819,-5.4699,-5.5026,-5.5735,-5.6107,-5.6041,-5.6318,-5.6525,-5.6647,-5.6677,-5.6905,-5.7495,-5.8119,-5.8882,3.8231,3.8217,3.7954,3.7363,3.7003,3.6287,3.4658,3.3358,3.1776,2.9853,2.7311,2.3968,1.8838,1.5436,1.2137,0.8587,0.4371,-0.0369,-0.6089,-0.9373,-1.2693,-1.7196,-2.1093,-2.4956,-2.8591,-3.1983,-3.5162,-3.8118,-4.065,-4.3176,-4.5474,-4.774,-4.9252,-5.0323,-5.1929,-5.2743,-5.2607,-5.3418,-5.3833,-5.37,-5.4671,-5.5206,-5.5445,-5.5261,-5.4708,-5.3921,-5.3607,-5.2799,-5.158,-5.0701,-4.9925,-4.9331,-4.846,-4.7894,-4.7497,-4.7497,-4.7497,-4.7364,-4.7364,-4.7364,-4.7497,-4.7497,-4.805,-4.86,-4.86,-4.9097,-4.9719,-5.0461,-5.0588,-5.0842,-5.1747,-5.2218,-5.2588,-5.2861,-5.3362,-5.3999,-5.4406,-5.4786,-5.5193,-5.56,-5.617,-5.6577,-5.6577,-5.6929,-5.7174,-5.7174,-5.7174,-5.7174,-5.7174,-5.7071,-5.6812,-5.6812,-5.6812,-5.665,-5.6246,-5.6286,-5.6205,-5.6126,-5.5325,-5.5011,-5.5144,-5.5961,-5.6422,-5.6358,-5.6903,-5.7238,-5.7281,-5.7031,-5.7174,-5.7807,-5.8027,-5.876,3.8598,3.8715,3.8695,3.8164,3.7554,3.6793,3.5711,3.4251,3.2492,3.0595,2.6833,2.2754,1.9072,1.6136,1.3022,0.9299,0.4914,0.0185,-0.5354,-0.8629,-1.2134,-1.6076,-2.0168,-2.4043,-2.8038,-3.1423,-3.4781,-3.8118,-4.0331,-4.2844,-4.5474,-4.6807,-4.8277,-4.9995,-5.0507,-5.1009,-5.1489,-5.2461,-5.2879,-5.2879,-5.3563,-5.3971,-5.3971,-5.3407,-5.3151,-5.31,-5.2139,-5.1185,-5.0419,-4.9999,-4.891,-4.7497,-4.7098,-4.6697,-4.6405,-4.6405,-4.6697,-4.6965,-4.6965,-4.7232,-4.7497,-4.7497,-4.805,-4.86,-4.86,-4.9097,-4.9719,-5.0461,-5.0588,-5.0715,-5.1471,-5.2094,-5.2615,-5.2615,-5.3562,-5.4487,-5.4487,-5.5437,-5.6305,-5.6305,-5.6794,-5.7174,-5.7174,-5.7174,-5.7174,-5.7174,-5.7174,-5.7174,-5.7174,-5.7174,-5.7174,-5.7174,-5.6942,-5.6812,-5.7174,-5.6631,-5.6559,-5.7287,-5.6182,-5.5455,-5.5524,-5.6077,-5.6623,-5.7303,-5.7247,-5.7791,-5.8849,-5.7588,-5.7419,-5.8494,-5.8279,-5.876,3.9388,3.9103,3.8781,3.8544,3.7914,3.7199,3.6128,3.4697,3.2809,2.9854,2.668,2.343,2.0417,1.7337,1.4075,1.0184,0.6737,0.277,-0.2768,-0.6936,-1.1182,-1.5507,-1.9613,-2.3494,-2.7148,-3.0369,-3.3571,-3.6221,-3.9049,-4.1744,-4.3692,-4.5512,-4.7158,-4.8501,-4.9545,-5.0265,-5.0912,-5.1449,-5.1771,-5.2074,-5.1955,-5.2302,-5.2953,-5.28,-5.2051,-5.0896,-5.0588,-4.9818,-4.8665,-4.8137,-4.7375,-4.6697,-4.6563,-4.6563,-4.6405,-4.6405,-4.6405,-4.6563,-4.6831,-4.7122,-4.7232,-4.7364,-4.805,-4.86,-4.86,-4.9097,-4.9719,-5.0461,-5.0588,-5.0715,-5.1471,-5.2411,-5.3228,-5.3228,-5.3858,-5.4704,-5.5573,-5.6034,-5.6441,-5.6848,-5.7065,-5.7174,-5.7174,-5.7174,-5.7174,-5.7174,-5.7174,-5.7174,-5.7174,-5.7174,-5.7174,-5.7174,-5.7044,-5.7044,-5.7174,-5.7038,-5.6995,-5.7314,-5.6541,-5.6187,-5.6524,-5.642,-5.6623,-5.7303,-5.7687,-5.8129,-5.864,-5.8455,-5.8613,-5.9242,-5.9002,-5.9402,3.9791,3.9588,3.9182,3.9085,3.8528,3.7644,3.634,3.4648,3.2456,2.9513,2.6961,2.4258,2.1254,1.8198,1.4956,1.1245,0.7982,0.4226,-0.1107,-0.5605,-1.0005,-1.4377,-1.8499,-2.2392,-2.5878,-2.9296,-3.2455,-3.4799,-3.7827,-4.0474,-4.243,-4.4249,-4.5762,-4.7153,-4.8316,-4.9259,-4.9818,-5.0364,-5.0833,-5.0756,-5.0718,-5.0602,-5.0702,-5.113,-5.0647,-4.947,-4.8984,-4.8185,-4.7364,-4.6831,-4.6429,-4.616,-4.6025,-4.6025,-4.6025,-4.6025,-4.616,-4.6294,-4.6697,-4.6831,-4.7122,-4.7364,-4.805,-4.86,-4.86,-4.9097,-4.9719,-5.0461,-5.0588,-5.0766,-5.1758,-5.2728,-5.3521,-5.3521,-5.4369,-5.541,-5.6142,-5.6495,-5.6766,-5.7119,-5.7174,-5.7174,-5.7174,-5.7174,-5.7255,-5.7499,-5.7743,-5.7906,-5.7906,-5.7689,-5.7526,-5.7526,-5.7309,-5.7174,-5.7174,-5.7174,-5.7295,-5.7673,-5.7066,-5.6948,-5.7412,-5.6764,-5.6737,-5.7416,-5.7974,-5.8456,-5.9063,-5.8971,-5.9257,-5.9991,-5.9726,-6.0227,4.0281,4.0062,3.9811,3.9736,3.9252,3.8212,3.6509,3.443,3.2159,2.9559,2.7748,2.5388,2.1922,1.9057,1.6011,1.2131,0.8836,0.4924,-0.0,-0.4459,-0.8622,-1.2847,-1.6964,-2.0677,-2.4354,-2.7963,-3.124,-3.3751,-3.6592,-3.9116,-4.1361,-4.2683,-4.4194,-4.5748,-4.6988,-4.7772,-4.8186,-4.9318,-4.9606,-4.906,-4.9456,-4.8929,-4.7614,-4.8804,-4.9047,-4.8463,-4.7313,-4.6697,-4.6271,-4.589,-4.5754,-4.5754,-4.5483,-4.537,-4.5347,-4.537,-4.5619,-4.589,-4.6271,-4.6697,-4.6965,-4.7364,-4.805,-4.86,-4.86,-4.9097,-4.9719,-5.0461,-5.0639,-5.0921,-5.2227,-5.3071,-5.3681,-5.3681,-5.4988,-5.6332,-5.6359,-5.6794,-5.7174,-5.7174,-5.7174,-5.7201,-5.7255,-5.7255,-5.7472,-5.8069,-5.8639,-5.8992,-5.8992,-5.8503,-5.8123,-5.8069,-5.7581,-5.7255,-5.7174,-5.7174,-5.7431,-5.8198,-5.7618,-5.7657,-5.8303,-5.7165,-5.6937,-5.7781,-5.8114,-5.8773,-6.0016,-5.9348,-5.9563,-6.0677,-6.0449,-6.0961,4.0548,4.0208,3.9811,4.0146,3.9206,3.7986,3.6521,3.5248,3.3833,3.1315,2.8719,2.607,2.3253,2.0255,1.6888,1.3192,0.9554,0.582,0.146,-0.3679,-0.8147,-1.1299,-1.516,-1.8992,-2.2778,-2.5973,-2.895,-3.2028,-3.447,-3.6929,-3.9157,-4.0679,-4.247,-4.4023,-4.5299,-4.6271,-4.6915,-4.747,-4.7647,-4.7399,-4.7144,-4.6704,-4.6495,-4.759,-4.7647,-4.6839,-4.6048,-4.5595,-4.546,-4.4937,-4.4663,-4.4663,-4.48,-4.4937,-4.4937,-4.521,-4.5483,-4.5619,-4.616,-4.6405,-4.6697,-4.7232,-4.805,-4.86,-4.86,-4.9097,-4.9719,-5.0461,-5.0921,-5.1434,-5.2331,-5.3678,-5.4879,-5.4879,-5.5579,-5.6441,-5.6902,-5.7092,-5.7174,-5.7174,-5.7174,-5.7336,-5.7798,-5.7879,-5.8096,-5.872,-5.891,-5.8992,-5.8992,-5.8883,-5.8612,-5.8123,-5.796,-5.7689,-5.7228,-5.7174,-5.7431,-5.8198,-5.7618,-5.7852,-5.8931,-5.7851,-5.7513,-5.8114,-5.8195,-5.8773,-6.0016,-5.9864,-6.0267,-6.1364,-6.1141,-6.1567,4.0912,4.0432,3.9811,3.9758,3.9239,3.8247,3.6984,3.5906,3.4689,3.2571,3.0039,2.723,2.4234,2.1536,1.8356,1.4773,1.0936,0.7224,0.3451,-0.2008,-0.6605,-0.9574,-1.3418,-1.7238,-2.0657,-2.4041,-2.7159,-2.9968,-3.251,-3.5015,-3.7147,-3.9012,-4.0627,-4.233,-4.3497,-4.4634,-4.5281,-4.5911,-4.5984,-4.5749,-4.564,-4.5413,-4.5324,-4.6011,-4.6122,-4.5595,-4.5074,-4.48,-4.48,-4.4388,-4.4273,-4.4273,-4.4663,-4.48,-4.48,-4.521,-4.537,-4.5483,-4.616,-4.6405,-4.654,-4.7232,-4.805,-4.86,-4.86,-4.9097,-4.9769,-5.0819,-5.1229,-5.1717,-5.3035,-5.4129,-5.5176,-5.5599,-5.6198,-5.6821,-5.7119,-5.7174,-5.7174,-5.7174,-5.7418,-5.7716,-5.8015,-5.8557,-5.9046,-5.9371,-5.967,-5.986,-5.986,-5.9589,-5.929,-5.8964,-5.8422,-5.7933,-5.7635,-5.7363,-5.7431,-5.8198,-5.7894,-5.8215,-5.913,-5.8622,-5.8407,-5.8696,-5.8372,-5.8773,-6.0016,-6.0016,-6.0617,-6.1582,-6.1707,-6.2396,4.1038,4.0555,3.9796,3.9519,3.9176,3.8722,3.7667,3.6576,3.5366,3.3785,3.1307,2.8485,2.5375,2.2788,1.9952,1.6514,1.2479,0.8778,0.5429,0.0181,-0.4365,-0.7513,-1.1523,-1.5153,-1.8228,-2.1975,-2.5243,-2.7932,-3.0465,-3.3052,-3.5399,-3.7152,-3.8882,-4.053,-4.1867,-4.2807,-4.3405,-4.4337,-4.4475,-4.385,-4.4273,-4.4213,-4.3836,-4.425,-4.4526,-4.4663,-4.4388,-4.4273,-4.4135,-4.4135,-4.4135,-4.4135,-4.4526,-4.4663,-4.48,-4.521,-4.5347,-4.5483,-4.616,-4.6405,-4.654,-4.7232,-4.805,-4.86,-4.86,-4.9172,-4.9971,-5.1202,-5.1613,-5.2102,-5.3818,-5.4525,-5.5128,-5.5867,-5.6655,-5.7174,-5.7174,-5.7255,-5.7336,-5.7336,-5.7906,-5.8395,-5.8395,-5.9317,-6.005,-6.005,-6.0457,-6.0782,-6.0782,-6.0348,-5.9996,-5.9887,-5.8992,-5.8286,-5.8096,-5.7738,-5.7669,-5.8198,-5.8198,-5.8606,-5.9301,-5.9308,-5.9331,-5.9581,-5.8785,-5.8892,-6.0016,-6.0016,-6.0586,-6.1582,-6.2184,-6.2939,4.0952,4.0778,4.0323,4.0256,3.9747,3.8999,3.8286,3.7332,3.6054,3.4619,3.1911,2.9109,2.6659,2.3781,2.0808,1.7389,1.3716,1.0002,0.6627,0.2868,-0.0897,-0.4489,-0.8607,-1.2349,-1.5712,-1.9232,-2.2524,-2.6078,-2.846,-3.0969,-3.3592,-3.5383,-3.7011,-3.842,-4.0048,-4.0873,-4.0853,-4.196,-4.2285,-4.182,-4.2244,-4.2364,-4.23,-4.2278,-4.3141,-4.4411,-4.3997,-4.3858,-4.3697,-4.3441,-4.3324,-4.3324,-4.3719,-4.4112,-4.4411,-4.48,-4.5074,-4.5483,-4.616,-4.6405,-4.654,-4.7232,-4.805,-4.86,-4.86,-4.942,-5.0449,-5.133,-5.2177,-5.3237,-5.4026,-5.484,-5.5631,-5.5973,-5.6394,-5.6812,-5.7174,-5.7581,-5.796,-5.796,-5.8856,-5.9643,-5.9643,-6.0213,-6.0647,-6.0647,-6.0728,-6.0782,-6.0782,-6.0701,-6.0457,-5.9941,-5.9751,-5.9209,-5.815,-5.8249,-5.8365,-5.8226,-5.8451,-5.9024,-6.0051,-5.9537,-5.9764,-6.0762,-5.9699,-5.9368,-6.0016,-6.0197,-6.0794,-6.1582,-6.2414,-6.3164,4.0875,4.0738,4.0539,4.0278,3.9815,3.9052,3.8404,3.7436,3.6271,3.5068,3.2992,3.0575,2.7859,2.4894,2.1969,1.8949,1.5593,1.2125,0.8753,0.5184,0.1431,-0.2504,-0.6252,-0.9992,-1.3362,-1.688,-2.0366,-2.347,-2.6381,-2.8923,-3.1422,-3.3222,-3.4996,-3.6587,-3.7865,-3.867,-3.9051,-4.0282,-4.1069,-4.1452,-4.1594,-4.1735,-4.2018,-4.2018,-4.2441,-4.3001,-4.3001,-4.3141,-4.3141,-4.3163,-4.3184,-4.3184,-4.358,-4.3997,-4.4411,-4.4663,-4.5074,-4.5483,-4.616,-4.6405,-4.654,-4.7232,-4.805,-4.86,-4.86,-4.947,-5.06,-5.1714,-5.251,-5.3494,-5.4496,-5.5022,-5.5498,-5.6,-5.6503,-5.7007,-5.7559,-5.7879,-5.8259,-5.8964,-5.9534,-5.9996,-6.0321,-6.0593,-6.0782,-6.0782,-6.0782,-6.0782,-6.0782,-6.0782,-6.0674,-6.0403,-6.0077,-5.967,-5.9127,-5.8844,-5.8612,-5.8723,-5.8646,-5.9205,-6.0194,-5.9908,-6.0196,-6.1027,-5.9875,-5.9636,-6.0532,-6.0455,-6.0794,-6.1582,-6.2414,-6.3164,4.0912,4.0705,4.0509,4.0515,3.9994,3.929,3.8657,3.7704,3.6702,3.5649,3.4186,3.2195,2.9306,2.6397,2.3419,2.0517,1.7594,1.438,1.0885,0.7324,0.3755,-0.0,-0.3932,-0.7502,-1.089,-1.459,-1.7929,-2.1068,-2.3995,-2.6863,-2.9147,-3.1242,-3.297,-3.4559,-3.5551,-3.66,-3.7409,-3.8711,-3.9858,-4.0882,-4.0882,-4.1167,-4.1431,-4.1594,-4.1594,-4.1594,-4.2159,-4.2581,-4.2581,-4.2883,-4.3163,-4.3184,-4.3441,-4.3858,-4.4273,-4.4526,-4.5074,-4.5619,-4.6136,-4.6429,-4.6697,-4.7364,-4.805,-4.8625,-4.8879,-4.9693,-5.0877,-5.2199,-5.292,-5.3726,-5.4861,-5.5099,-5.5258,-5.6186,-5.6664,-5.7357,-5.8317,-5.853,-5.8856,-5.9887,-6.0104,-6.024,-6.0701,-6.0782,-6.0782,-6.0782,-6.0782,-6.0782,-6.0782,-6.0782,-6.0782,-6.0782,-6.0375,-6.005,-5.9887,-5.9445,-5.9154,-5.911,-5.905,-5.9373,-6.0194,-6.0194,-6.0572,-6.1292,-6.0288,-6.0083,-6.0927,-6.076,-6.1051,-6.1582,-6.2513,-6.326,4.1516,4.1068,4.0457,4.1069,4.0388,3.9601,3.9269,3.8519,3.7583,3.6827,3.5316,3.3634,3.1517,2.8318,2.5012,2.236,1.9372,1.6175,1.318,0.9642,0.6436,0.3759,-0.0894,-0.5186,-0.8397,-1.1771,-1.5308,-1.8985,-2.1922,-2.4573,-2.7017,-2.9306,-3.0997,-3.2107,-3.358,-3.4772,-3.579,-3.7696,-3.8865,-3.9156,-3.957,-3.9858,-3.9858,-4.0166,-4.0453,-4.0453,-4.1594,-4.23,-4.2581,-4.2581,-4.2861,-4.3184,-4.3184,-4.3719,-4.4273,-4.4273,-4.4937,-4.589,-4.6271,-4.6697,-4.7098,-4.7762,-4.8313,-4.8805,-4.9562,-5.0506,-5.1481,-5.2813,-5.351,-5.4081,-5.4965,-5.5099,-5.5363,-5.6691,-5.6957,-5.7571,-5.94,-5.9806,-5.9968,-6.0593,-6.0728,-6.0728,-6.0755,-6.0782,-6.0782,-6.0782,-6.0782,-6.0782,-6.0782,-6.0782,-6.0782,-6.0782,-6.0728,-6.0484,-5.9941,-6.045,-6.0325,-5.9165,-5.9723,-6.0075,-6.0194,-6.0194,-6.0774,-6.2057,-6.1379,-6.1005,-6.0927,-6.1461,-6.1722,-6.1582,-6.271,-6.3484,4.1539,4.119,4.0682,4.1197,4.0647,3.9996,3.9382,3.8753,3.7806,3.6952,3.5612,3.4255,3.2419,2.9419,2.6344,2.3445,2.094,1.8228,1.4966,1.1828,0.8686,0.5363,0.1253,-0.2863,-0.6439,-0.9824,-1.3154,-1.6562,-1.9647,-2.2288,-2.4579,-2.6862,-2.8787,-3.0317,-3.1649,-3.3297,-3.5157,-3.6497,-3.7383,-3.797,-3.87,-3.9156,-3.9301,-3.9714,-4.0022,-4.031,-4.074,-4.131,-4.1898,-4.2441,-4.2721,-4.2861,-4.3023,-4.358,-4.4273,-4.4273,-4.4937,-4.589,-4.6271,-4.6697,-4.7098,-4.7762,-4.8533,-4.9249,-4.9686,-5.0913,-5.2228,-5.2966,-5.367,-5.4376,-5.4965,-5.536,-5.5992,-5.7754,-5.8536,-5.9184,-6.0267,-6.0457,-6.0511,-6.0728,-6.0782,-6.0782,-6.0782,-6.0782,-6.0782,-6.0782,-6.0782,-6.0782,-6.0782,-6.0782,-6.0782,-6.0782,-6.0782,-6.0674,-6.0484,-6.0483,-6.0474,-6.0297,-5.9912,-6.002,-6.0794,-6.0394,-6.0774,-6.2116,-6.188,-6.1898,-6.2202,-6.1921,-6.1969,-6.2237,-6.2932,-6.3484,4.1424,4.1294,4.1007,4.0972,4.0795,4.0214,3.946,3.8801,3.8007,3.7313,3.6144,3.4847,3.3331,3.0903,2.8072,2.4814,2.2366,1.9716,1.6526,1.3607,1.0513,0.7071,0.3365,-0.0531,-0.4604,-0.7784,-1.0925,-1.4146,-1.7212,-2.0021,-2.2157,-2.4613,-2.6907,-2.9208,-3.0531,-3.225,-3.4406,-3.5306,-3.6201,-3.7089,-3.7696,-3.8282,-3.872,-3.9156,-3.957,-4.0166,-4.0166,-4.076,-4.1473,-4.2159,-4.2441,-4.2581,-4.3023,-4.358,-4.4273,-4.4273,-4.5074,-4.616,-4.6271,-4.6697,-4.7255,-4.8245,-4.8935,-4.9544,-5.034,-5.1632,-5.2775,-5.3247,-5.3958,-5.4671,-5.5174,-5.607,-5.724,-5.8445,-5.9478,-6.0294,-6.0674,-6.0782,-6.0782,-6.0782,-6.0782,-6.0782,-6.0782,-6.0782,-6.0782,-6.0782,-6.0782,-6.0782,-6.0782,-6.0782,-6.0782,-6.0782,-6.0782,-6.0782,-6.0782,-6.0675,-6.0752,-6.0905,-6.0227,-6.0202,-6.1108,-6.0508,-6.0774,-6.2116,-6.2116,-6.2463,-6.3295,-6.2717,-6.2681,-6.2955,-6.3631,-6.4288,0.0,0.0,0.0,4.0671,4.0657,4.0517,3.9473,3.877,3.8275,3.7888,3.6904,3.5724,3.4169,3.2402,3.019,2.6694,2.3516,2.0662,1.8211,1.5175,1.2099,0.9003,0.5721,0.1734,-0.3294,-0.5897,-0.8835,-1.2099,-1.499,-1.7617,-1.9921,-2.2712,-2.568,-2.8744,-3.0423,-3.1807,-3.3196,-3.4406,-3.5306,-3.6052,-3.6516,-3.7255,-3.8009,-3.8428,-3.9011,-3.9714,-4.0166,-4.076,-4.1473,-4.1877,-4.23,-4.2581,-4.3023,-4.358,-4.4273,-4.4273,-4.521,-4.6405,-4.6405,-4.6831,-4.7726,-4.9033,-4.9362,-4.9717,-5.1505,-5.2371,-5.2877,-5.3708,-5.4241,-5.4775,-5.5643,-5.7346,-5.8769,-5.8796,-5.9801,-6.0782,-6.0782,-6.0782,-6.0782,-6.0782,-6.0782,-6.0782,-6.0782,-6.0782,-6.081,-6.081,-6.081,-6.0782,-6.0782,-6.0782,-6.0782,-6.0782,-6.0782,-6.0782,-6.0782,-6.1029,-6.1191,-6.096,-6.0615,-6.065,-6.1165,-6.0537,-6.0802,-6.2116,-6.2116,-6.2701,-6.3993,-6.385,-6.3826,-6.3735,-6.4805,-6.5869,4.0976,0.0,0.0,0.0,0.0,0.0,3.9844,3.9284,3.8718,3.749,3.6977,3.6051,3.4563,3.2844,3.1055,2.8489,2.534,2.2218,1.9493,1.6676,1.3519,1.0204,0.6928,0.3293,-0.0693,-0.3642,-0.6566,-1.0099,-1.279,-1.5409,-1.7891,-2.2128,-2.5327,-2.7476,-2.9182,-3.0577,-3.184,-3.3044,-3.3954,-3.4556,-3.5754,-3.6516,-3.6664,-3.7696,-3.8428,-3.9011,-3.957,-4.0166,-4.074,-4.1594,-4.2018,-4.23,-4.2883,-4.358,-4.4273,-4.4273,-4.521,-4.6405,-4.6405,-4.6831,-4.7726,-4.9033,-4.9608,-5.021,-5.1605,-5.2784,-5.3656,-5.3945,-5.4402,-5.5174,-5.6301,-5.7663,-5.8876,-5.9302,-6.0096,-6.0782,-6.0782,-6.0782,-6.0782,-6.0782,-6.0782,-6.0891,-6.1298,-6.1379,-6.1542,-6.1976,-6.1678,-6.1379,-6.1379,-6.1027,-6.0782,-6.0782,-6.0782,-6.0782,-6.0782,-6.0892,-6.1084,-6.1568,-6.1121,-6.1035,-6.1668,-6.1194,-6.1235,-6.2116,-6.2116,-6.2701,-6.3993,-6.385,-6.4073,-6.4421,-6.5432,-6.629,4.1235,4.1518,4.1696,4.1342,0.0,0.0,4.0127,3.9533,3.8719,3.7839,3.7031,3.6055,3.4809,3.3409,3.163,2.9774,2.6819,2.3852,2.06,1.7817,1.4862,1.1757,0.8539,0.5298,0.1711,-0.1712,-0.4949,-0.7957,-1.0975,-1.4275,-1.7983,-2.1545,-2.4295,-2.6201,-2.7776,-2.9353,-3.0917,-3.1993,-3.2892,-3.3802,-3.4857,-3.5754,-3.6201,-3.7255,-3.8009,-3.8574,-3.9425,-3.9878,-4.031,-4.131,-4.1877,-4.2018,-4.2883,-4.358,-4.4273,-4.4273,-4.521,-4.6405,-4.6405,-4.6974,-4.804,-4.9376,-5.0051,-5.0728,-5.2004,-5.3199,-5.3997,-5.3997,-5.4873,-5.6013,-5.6928,-5.8138,-5.9222,-5.9568,-6.0204,-6.0837,-6.1081,-6.1108,-6.1108,-6.1108,-6.1108,-6.1298,-6.1895,-6.2004,-6.2112,-6.2492,-6.2221,-6.2004,-6.2004,-6.1705,-6.1407,-6.1135,-6.1108,-6.1027,-6.0782,-6.0782,-6.1029,-6.1816,-6.1236,-6.1398,-6.2352,-6.1851,-6.1841,-6.2529,-6.2529,-6.3086,-6.427,-6.4206,-6.4785,-6.5849,-6.6667,-6.7265,4.1494,4.1685,4.1888,4.1715,4.1443,0.0,4.0539,3.9473,3.8653,3.8282,3.7173,3.5895,3.5048,3.3613,3.2126,3.033,2.8061,2.5396,2.1878,1.8799,1.5843,1.3197,1.0211,0.7045,0.4029,-0.0,-0.3358,-0.587,-0.954,-1.3851,-1.8799,-2.0758,-2.2694,-2.4786,-2.6531,-2.8261,-2.9819,-3.0763,-3.1993,-3.3651,-3.4105,-3.5007,-3.6052,-3.696,-3.7696,-3.8574,-3.9281,-3.9878,-4.031,-4.1046,-4.1615,-4.2018,-4.2883,-4.358,-4.4273,-4.4273,-4.521,-4.6429,-4.6476,-4.7345,-4.8522,-4.9916,-5.0567,-5.122,-5.2479,-5.3452,-5.3997,-5.4209,-5.5443,-5.7007,-5.7529,-5.8639,-5.9648,-5.9648,-6.0258,-6.1,-6.1488,-6.1651,-6.1732,-6.1786,-6.1759,-6.1895,-6.2546,-6.2628,-6.2655,-6.2736,-6.2682,-6.2628,-6.2628,-6.2573,-6.2329,-6.1759,-6.1651,-6.1407,-6.0918,-6.081,-6.1166,-6.1789,-6.1292,-6.1649,-6.2894,-6.2479,-6.2534,-6.3236,-6.3267,-6.3794,-6.4795,-6.4906,-6.5777,-6.7388,-6.8,-6.8501,4.159,4.1945,4.231,4.2032,4.1696,0.0,4.0777,3.9866,3.8835,3.7872,3.7092,3.6143,3.4747,3.3705,3.2509,3.0463,2.885,2.6662,2.3312,2.0089,1.7164,1.4024,1.1374,0.8373,0.4865,0.1847,-0.1343,-0.4698,-1.0039,-1.4203,-1.7001,-1.946,-2.1728,-2.3496,-2.5251,-2.6833,-2.8559,-2.9819,-3.1055,-3.2299,-3.3348,-3.4406,-3.5306,-3.6052,-3.6812,-3.7696,-3.8428,-3.9156,-3.9858,-4.074,-4.1452,-4.2018,-4.2581,-4.3419,-4.4273,-4.4273,-4.521,-4.6476,-4.6899,-4.7654,-4.857,-5.0357,-5.0862,-5.122,-5.2479,-5.3452,-5.4209,-5.5216,-5.6451,-5.7529,-5.7634,-5.8639,-5.9648,-5.9648,-6.0554,-6.1461,-6.1569,-6.2004,-6.2492,-6.298,-6.2682,-6.2546,-6.3143,-6.3252,-6.3415,-6.3903,-6.355,-6.3252,-6.3252,-6.2845,-6.2492,-6.2383,-6.1895,-6.1569,-6.1461,-6.1302,-6.1438,-6.1789,-6.1975,-6.2361,-6.2922,-6.2908,-6.3169,-6.3914,-6.4306,-6.457,-6.4795,-6.5235,-6.6236,-6.7388,-6.8,-6.8501,4.2544,4.2516,4.2474,4.2631,4.2132,0.0,0.0,4.0257,3.9188,3.8283,3.724,3.623,3.521,3.4001,3.2594,3.0836,2.9336,2.7226,2.4232,2.1147,1.8137,1.5358,1.221,0.9216,0.6208,0.3358,-0.0503,-0.6038,-0.9878,-1.3211,-1.5851,-1.8309,-2.0434,-2.2533,-2.4455,-2.6201,-2.7947,-2.9197,-3.0454,-3.1686,-3.2892,-3.3954,-3.4707,-3.5754,-3.6664,-3.7402,-3.8282,-3.8991,-3.9714,-4.031,-4.1167,-4.2018,-4.2419,-4.328,-4.4273,-4.4273,-4.521,-4.65,-4.6993,-4.8052,-4.9228,-5.0578,-5.1294,-5.1866,-5.2692,-5.3655,-5.4749,-5.6399,-5.7216,-5.7739,-5.8,-5.885,-5.9728,-6.0021,-6.0849,-6.1759,-6.2383,-6.2763,-6.317,-6.374,-6.3632,-6.3523,-6.3822,-6.3876,-6.3957,-6.4256,-6.4039,-6.3876,-6.3876,-6.3605,-6.3306,-6.3008,-6.2709,-6.2275,-6.1651,-6.1629,-6.174,-6.1816,-6.2248,-6.2773,-6.3508,-6.3479,-6.3832,-6.4563,-6.4751,-6.498,-6.5319,-6.553,-6.6343,-6.7388,-6.8,-6.8501,4.353,4.3113,4.2785,4.3208,4.2546,4.1678,0.0,0.0,0.0,3.8814,3.7595,3.6366,3.5477,3.4189,3.2641,3.1186,2.944,2.752,2.5063,2.2066,1.917,1.65,1.3211,1.0221,0.755,0.4197,-0.0671,-0.7045,-0.9388,-1.1712,-1.4863,-1.7001,-1.9297,-2.1405,-2.3496,-2.5409,-2.7162,-2.8417,-2.9834,-3.1225,-3.2452,-3.35,-3.4255,-3.5456,-3.6497,-3.7255,-3.799,-3.8865,-3.9714,-4.0022,-4.0882,-4.2018,-4.23,-4.328,-4.4273,-4.4273,-4.5279,-4.6641,-4.7158,-4.8499,-5.0035,-5.0823,-5.1842,-5.2679,-5.3193,-5.4174,-5.5529,-5.7233,-5.7739,-5.7921,-5.8392,-5.9167,-5.9941,-6.0394,-6.1226,-6.2221,-6.3225,-6.3523,-6.374,-6.4229,-6.431,-6.431,-6.431,-6.431,-6.431,-6.431,-6.4165,-6.4165,-6.431,-6.4165,-6.3975,-6.3632,-6.3496,-6.3035,-6.2031,-6.2286,-6.2371,-6.201,-6.2414,-6.3026,-6.3965,-6.4224,-6.4549,-6.5005,-6.5141,-6.5467,-6.6027,-6.5902,-6.6362,-6.7388,-6.8,-6.8501,4.3626,4.3374,4.3232,4.3302,4.2546,4.1678,4.1444,0.0,3.9866,3.8946,0.0,3.6539,3.5215,0.0,0.0,3.1148,2.9548,2.7661,2.5671,2.2758,1.9958,1.6957,1.4533,1.1718,0.8386,0.302,-0.1847,-0.5376,-0.8048,-1.0715,-1.3549,-1.5687,-1.7983,-2.012,-2.1889,-2.3656,-2.5422,-2.7004,-2.8573,-3.0284,-3.1533,-3.274,-3.3954,-3.4707,-3.5754,-3.696,-3.7402,-3.8428,-3.9714,-3.9714,-4.0576,-4.2018,-4.2018,-4.3001,-4.4273,-4.4273,-4.5485,-4.7158,-4.7675,-4.8911,-5.0433,-5.1411,-5.2441,-5.3579,-5.4337,-5.5314,-5.6323,-5.7338,-5.8026,-5.8418,-5.8497,-5.9457,-6.0421,-6.0501,-6.1871,-6.3252,-6.3387,-6.3849,-6.4229,-6.431,-6.431,-6.431,-6.431,-6.431,-6.431,-6.431,-6.4019,-6.3873,-6.431,-6.4019,-6.3846,-6.4201,-6.374,-6.336,-6.3225,-6.3414,-6.3253,-6.2673,-6.3297,-6.3715,-6.3993,-6.5124,-6.5558,-6.5005,-6.6042,-6.6742,-6.6704,-6.6585,-6.6834,-6.7388,-6.8,-6.8501,4.4133,4.3784,4.3576,4.3326,4.2822,4.2189,4.1444,4.0906,4.0257,3.921,0.0,0.0,0.0,0.0,0.0,0.0,2.9774,2.7925,2.5513,2.3359,2.1056,1.7778,1.4985,1.1464,0.7045,0.235,-0.1512,-0.4703,-0.7212,-0.9716,-1.205,-1.4863,-1.7173,-1.9144,-2.1405,-2.3336,-2.5104,-2.6689,-2.8261,-2.9834,-3.1071,-3.2299,-3.35,-3.4255,-3.5306,-3.6516,-3.7107,-3.8136,-3.9425,-3.957,-4.0576,-4.2018,-4.2018,-4.3001,-4.4273,-4.4273,-4.5531,-4.7252,-4.7769,-4.9259,-5.0921,-5.204,-5.313,-5.4174,-5.5011,-5.6019,-5.7006,-5.7859,-5.834,-5.8523,-5.8523,-5.951,-6.0607,-6.0927,-6.2221,-6.3523,-6.3876,-6.412,-6.431,-6.431,-6.431,-6.431,-6.431,-6.431,-6.431,-6.431,-6.4165,-6.4165,-6.431,-6.4165,-6.4165,-6.431,-6.4093,-6.3794,-6.3442,-6.388,-6.3888,-6.328,-6.401,-6.433,-6.3993,-6.5251,-6.589,-6.5595,-6.6403,-6.6991,-6.7412,-6.733,-6.7746,-6.8604,-6.8183,-6.8301,4.447,4.4075,4.3678,4.3428,4.3075,4.257,4.1572,4.1164,4.0647,3.9473,3.8416,0.0,0.0,0.0,3.3242,3.1401,0.0,2.8026,2.5499,2.3732,2.1608,1.8327,1.4624,1.052,0.5986,0.2829,-0.05,-0.4013,-0.635,-0.8689,-1.1053,-1.3873,-1.6353,-1.8155,-2.0596,-2.2694,-2.4295,-2.6043,-2.7633,-2.9056,-3.0454,-3.1686,-3.2892,-3.3954,-3.5007,-3.6052,-3.696,-3.799,-3.9156,-3.957,-4.0576,-4.2018,-4.2018,-4.3066,-4.4452,-4.4452,-4.5714,-4.7463,-4.8004,-4.9499,-5.1393,-5.2504,-5.3558,-5.4668,-5.5483,-5.6493,-5.7484,-5.8198,-5.8523,-5.8549,-5.8706,-5.9747,-6.09,-6.1486,-6.2651,-6.3794,-6.4229,-6.431,-6.431,-6.431,-6.431,-6.431,-6.431,-6.431,-6.431,-6.431,-6.4165,-6.4165,-6.431,-6.4165,-6.4165,-6.431,-6.431,-6.412,-6.3686,-6.4374,-6.4523,-6.4166,-6.4639,-6.4679,-6.4222,-6.5338,-6.6007,-6.6132,-6.6854,-6.7566,-6.8266,-6.8189,-6.8627,-6.9788,-6.8852,-6.8687,4.447,4.4075,4.3678,4.3428,4.3075,4.257,4.1572,4.1315,4.0906,3.9473,3.866,3.7709,3.6248,3.4765,3.3242,3.1841,2.9997,0.0,0.0,2.3722,2.122,1.8288,1.3568,0.9244,0.6496,0.4388,0.1306,-0.3304,-0.5286,-0.7628,-1.0549,-1.288,-1.5036,-1.7337,-1.9144,-2.0931,-2.2533,-2.4295,-2.6056,-2.7633,-2.9353,-3.0747,-3.2146,-3.3651,-3.4857,-3.5754,-3.6812,-3.799,-3.9156,-3.957,-4.0576,-4.2018,-4.2018,-4.3262,-4.4945,-4.4945,-4.624,-4.8004,-4.8545,-5.0074,-5.1935,-5.2654,-5.3858,-5.497,-5.5509,-5.6633,-5.7791,-5.834,-5.8523,-5.8627,-5.9202,-6.0328,-6.1513,-6.2126,-6.3269,-6.4283,-6.431,-6.431,-6.431,-6.431,-6.431,-6.431,-6.431,-6.431,-6.431,-6.431,-6.4019,-6.3873,-6.431,-6.4019,-6.3873,-6.431,-6.431,-6.431,-6.4283,-6.5033,-6.5498,-6.5696,-6.5163,-6.4879,-6.485,-6.5571,-6.6132,-6.6506,-6.7457,-6.8417,-6.9325,-6.9018,-6.935,-7.0524,-7.0106,-6.9917,4.5507,4.5254,4.5,4.4489,4.4232,4.3845,4.2542,4.2032,4.1394,3.9944,3.887,3.7709,3.6248,3.4765,3.326,3.1841,3.014,2.8418,0.0,2.2942,1.9563,1.6816,1.2876,0.9636,0.6967,0.4707,0.1952,-0.1797,-0.4276,-0.678,-0.9123,-1.2001,-1.4541,-1.6353,-1.8818,-2.0769,-2.2533,-2.4295,-2.5898,-2.7633,-2.9056,-3.0454,-3.1993,-3.3348,-3.4406,-3.5306,-3.6812,-3.7843,-3.8865,-3.9425,-4.0576,-4.2018,-4.2278,-4.3425,-4.4967,-4.4967,-4.6469,-4.8709,-5.0215,-5.123,-5.2009,-5.3053,-5.4366,-5.5509,-5.6047,-5.7203,-5.8261,-5.847,-5.8523,-5.8653,-5.9202,-6.0354,-6.154,-6.2152,-6.3296,-6.431,-6.431,-6.431,-6.431,-6.431,-6.431,-6.431,-6.431,-6.431,-6.431,-6.431,-6.4165,-6.4165,-6.431,-6.4165,-6.4165,-6.431,-6.431,-6.431,-6.431,-6.506,-6.5639,-6.5972,-6.6094,-6.5898,-6.5302,-6.6078,-6.6546,-6.6506,-6.7487,-6.8447,-6.9387,-6.9485,-7.0042,-7.126,-7.1144,-7.0906,4.6038,4.5934,4.5806,4.5031,4.4901,4.451,4.3193,4.2548,4.1905,4.0437,3.9248,3.7954,3.6621,3.5135,3.3521,3.1982,3.0425,2.8547,0.0,2.2198,1.8754,1.6177,1.3028,1.015,0.7521,0.5291,0.2571,-0.0646,-0.3901,-0.655,-0.8246,-1.1276,-1.3823,-1.5695,-1.7992,-2.012,-2.205,-2.3816,-2.5409,-2.7162,-2.8588,-3.0144,-3.184,-3.3044,-3.4105,-3.5157,-3.6516,-3.7696,-3.872,-3.9425,-4.0576,-4.2039,-4.2612,-4.3828,-4.54,-4.5518,-4.7141,-4.9511,-5.1279,-5.182,-5.2034,-5.3253,-5.4645,-5.5765,-5.6329,-5.7487,-5.8523,-5.8523,-5.8653,-5.8941,-5.966,-6.0842,-6.1859,-6.2618,-6.3603,-6.431,-6.431,-6.431,-6.431,-6.431,-6.431,-6.431,-6.431,-6.431,-6.431,-6.431,-6.431,-6.431,-6.431,-6.431,-6.431,-6.431,-6.431,-6.4455,-6.4745,-6.5204,-6.5751,-6.6559,-6.6771,-6.6691,-6.6228,-6.6879,-6.7234,-6.7205,-6.794,-6.8661,-6.9588,-6.9703,-7.0356,-7.1644,-7.1644,-7.1778]},{"header":{"parameterUnit":"m.s-1","parameterCategory":1,"la1":30.6,"la2":29.2853,"lo1":-89.7004,"lo2":-87.6739,"dy":0.0162,"dx":0.0183,"nx":112,"ny":82,"refTime":"2024-03-22T00:00:00:Z","depth":0,"parameterNumber":3,"parameterNumberName":"V-component_of_WINDS"},"data":[0.0,0.0,0.0,0.0,0.0,0.0,0.0,0.0,0.0,0.0,0.0,0.0,0.0,0.0,0.0,0.0,0.0,0.0,0.0,0.0,0.0,0.0,0.0,0.0,0.0,0.0,0.0,0.0,0.0,0.0,0.0,0.0,0.0,0.0,0.0,0.0,0.0,0.0,0.0,0.0,0.0,0.0,0.0,0.0,0.0,0.0,0.0,0.0,0.0,0.0,0.0,0.0,0.0,0.0,0.0,0.0,0.0,0.0,0.0,0.0,0.0,0.0,0.0,0.0,0.0,0.0,0.0,0.0,0.0,0.0,0.0,0.0,0.0,0.0,0.0,0.0,0.0,0.0,0.0,0.0,0.0,0.0,0.0,0.0,0.0,0.0,0.0,0.0,0.0,0.0,-1.6075,-1.5286,-1.4433,-1.3742,-1.3199,-1.304,-1.2952,-1.2776,0.0,0.0,0.0,0.0,0.0,0.0,0.0,0.0,0.0,0.0,0.0,0.0,0.0,0.0,0.0,0.0,0.0,0.0,0.0,0.0,0.0,0.0,0.0,0.0,0.0,0.0,0.0,0.0,0.0,0.0,0.0,0.0,0.0,0.0,0.0,0.0,0.0,0.0,0.0,0.0,0.0,0.0,0.0,0.0,0.0,0.0,0.0,0.0,0.0,0.0,0.0,0.0,0.0,0.0,0.0,0.0,0.0,0.0,0.0,0.0,0.0,0.0,0.0,0.0,0.0,0.0,0.0,0.0,0.0,0.0,0.0,0.0,0.0,0.0,0.0,0.0,0.0,0.0,0.0,0.0,0.0,0.0,0.0,0.0,0.0,0.0,0.0,0.0,0.0,0.0,0.0,0.0,0.0,0.0,0.0,0.0,0.0,0.0,0.0,0.0,0.0,0.0,0.0,0.0,-1.6258,-1.5057,-1.4567,-1.4173,-1.376,-1.3234,-1.3005,-1.2979,0.0,0.0,0.0,0.0,0.0,0.0,0.0,0.0,0.0,0.0,0.0,0.0,0.0,0.0,0.0,0.0,0.0,0.0,0.0,0.0,0.0,0.0,0.0,0.0,0.0,0.0,0.0,0.0,0.0,0.0,0.0,0.0,0.0,0.0,0.0,0.0,0.0,0.0,0.0,0.0,0.0,0.0,0.0,0.0,0.0,0.0,0.0,0.0,0.0,0.0,0.0,0.0,0.0,0.0,0.0,0.0,0.0,0.0,0.0,0.0,0.0,0.0,0.0,0.0,0.0,0.0,0.0,0.0,0.0,0.0,0.0,0.0,0.0,0.0,0.0,0.0,0.0,0.0,0.0,0.0,0.0,0.0,0.0,0.0,0.0,0.0,0.0,0.0,0.0,0.0,0.0,0.0,0.0,0.0,0.0,0.0,0.0,0.0,0.0,0.0,0.0,0.0,0.0,-1.7292,-1.6562,-1.5808,-1.5415,-1.5111,-1.4867,-1.4644,-1.4366,-1.4137,-1.3946,0.0,0.0,0.0,0.0,0.0,0.0,0.0,0.0,0.0,0.0,0.0,0.0,0.0,0.0,0.0,0.0,0.0,0.0,0.0,0.0,0.0,0.0,0.0,0.0,0.0,0.0,0.0,0.0,0.0,0.0,0.0,0.0,0.0,0.0,0.0,0.0,0.0,0.0,0.0,0.0,0.0,0.0,0.0,0.0,0.0,0.0,0.0,0.0,0.0,0.0,0.0,0.0,0.0,0.0,0.0,0.0,0.0,0.0,0.0,0.0,0.0,0.0,0.0,0.0,0.0,0.0,0.0,0.0,0.0,0.0,0.0,0.0,0.0,0.0,0.0,0.0,0.0,0.0,0.0,0.0,0.0,0.0,0.0,0.0,0.0,0.0,0.0,0.0,0.0,0.0,0.0,0.0,0.0,0.0,0.0,0.0,0.0,0.0,0.0,0.0,0.0,0.0,-1.7663,-1.7141,-1.6623,-1.6364,-1.6162,-1.5741,-1.5681,-1.5479,-1.5084,-1.5003,0.0,0.0,0.0,0.0,0.0,0.0,0.0,0.0,0.0,0.0,0.0,0.0,0.0,0.0,0.0,0.0,0.0,0.0,0.0,0.0,0.0,0.0,0.0,0.0,0.0,0.0,0.0,0.0,0.0,0.0,0.0,0.0,0.0,0.0,0.0,0.0,0.0,0.0,0.0,0.0,0.0,0.0,0.0,0.0,0.0,0.0,0.0,0.0,0.0,0.0,0.0,0.0,0.0,0.0,0.0,0.0,0.0,0.0,0.0,0.0,0.0,0.0,0.0,0.0,0.0,0.0,0.0,0.0,0.0,0.0,0.0,0.0,0.0,0.0,0.0,0.0,0.0,0.0,0.0,0.0,0.0,0.0,0.0,0.0,0.0,0.0,0.0,0.0,0.0,0.0,0.0,0.0,0.0,0.0,0.0,0.0,0.0,0.0,0.0,0.0,0.0,0.0,-1.8688,-1.8056,-1.7001,-1.7001,-1.6613,-1.6084,-1.5762,-1.5539,-1.5297,-1.5084,0.0,0.0,0.0,0.0,0.0,0.0,0.0,0.0,0.0,0.0,0.0,0.0,0.0,0.0,0.0,0.0,0.0,0.0,0.0,0.0,0.0,0.0,0.0,0.0,0.0,0.0,0.0,0.0,0.0,0.0,0.0,0.0,0.0,0.0,0.0,0.0,0.0,0.0,0.0,0.0,0.0,0.0,0.0,0.0,0.0,0.0,0.0,0.0,0.0,0.0,0.0,0.0,0.0,0.0,0.0,0.0,0.0,0.0,0.0,0.0,0.0,0.0,0.0,0.0,0.0,0.0,0.0,0.0,0.0,0.0,0.0,0.0,0.0,0.0,0.0,0.0,0.0,0.0,0.0,0.0,0.0,0.0,0.0,0.0,0.0,0.0,0.0,0.0,0.0,0.0,0.0,0.0,0.0,0.0,0.0,0.0,0.0,0.0,0.0,0.0,0.0,0.0,-1.8828,-1.8314,-1.7647,-1.7647,-1.7518,-1.726,-1.7183,-1.703,-1.679,0.0,0.0,0.0,0.0,0.0,0.0,0.0,0.0,0.0,0.0,0.0,0.0,0.0,0.0,0.0,0.0,0.0,0.0,0.0,0.0,0.0,0.0,0.0,0.0,0.0,0.0,0.0,0.0,0.0,0.0,0.0,0.0,0.0,0.0,0.0,0.0,0.0,0.0,0.0,0.0,0.0,0.0,0.0,0.0,0.0,0.0,0.0,0.0,0.0,0.0,0.0,0.0,0.0,0.0,0.0,0.0,0.0,0.0,0.0,0.0,0.0,0.0,0.0,0.0,0.0,0.0,0.0,0.0,0.0,0.0,0.0,0.0,0.0,0.0,0.0,0.0,0.0,0.0,0.0,0.0,0.0,0.0,0.0,0.0,0.0,0.0,0.0,0.0,0.0,0.0,0.0,0.0,0.0,0.0,0.0,0.0,0.0,0.0,0.0,0.0,0.0,0.0,-1.9708,-1.9334,-1.8983,-1.8652,-1.8464,-1.8289,-1.8148,-1.8079,-1.7931,-1.7691,0.0,0.0,0.0,0.0,0.0,0.0,0.0,0.0,0.0,0.0,0.0,0.0,0.0,0.0,0.0,0.0,0.0,0.0,0.0,0.0,0.0,0.0,0.0,0.0,0.0,0.0,0.0,0.0,0.0,0.0,0.0,0.0,0.0,0.0,0.0,0.0,0.0,0.0,0.0,0.0,0.0,0.0,0.0,0.0,0.0,0.0,0.0,0.0,0.0,0.0,0.0,0.0,0.0,0.0,0.0,0.0,0.0,0.0,0.0,0.0,0.0,0.0,0.0,0.0,0.0,0.0,0.0,0.0,0.0,0.0,0.0,0.0,0.0,0.0,0.0,0.0,0.0,0.0,0.0,0.0,0.0,0.0,0.0,0.0,0.0,0.0,0.0,0.0,0.0,0.0,0.0,0.0,0.0,0.0,0.0,0.0,0.0,0.0,0.0,0.0,0.0,0.0,-2.0993,-2.0396,-1.9973,-1.9966,-1.9364,-1.8816,-1.841,-1.8182,-1.7931,0.0,0.0,0.0,0.0,0.0,0.0,0.0,0.0,0.0,0.0,0.0,0.0,0.0,0.0,0.0,0.0,0.0,0.0,0.0,0.0,0.0,0.0,0.0,0.0,0.0,0.0,0.0,0.0,0.0,0.0,0.0,0.0,0.0,0.0,0.0,0.0,0.0,0.0,0.0,0.0,0.0,0.0,0.0,0.0,0.0,0.0,0.0,0.0,0.0,0.0,0.0,0.0,0.0,0.0,0.0,0.0,0.0,0.0,0.0,0.0,0.0,0.0,0.0,0.0,0.0,0.0,0.0,0.0,0.0,0.0,0.0,0.0,0.0,0.0,0.0,0.0,0.0,0.0,0.0,0.0,0.0,0.0,0.0,0.0,0.0,0.0,0.0,0.0,0.0,0.0,0.0,0.0,0.0,0.0,0.0,0.0,0.0,0.0,0.0,0.0,0.0,0.0,0.0,-2.1293,-2.095,-2.0712,-2.0668,-2.0472,-2.0203,-1.9875,-1.9788,-1.9628,-1.9357,0.0,0.0,0.0,0.0,0.0,0.0,0.0,0.0,0.0,0.0,0.0,0.0,0.0,0.0,0.0,0.0,0.0,0.0,0.0,0.0,0.0,0.0,0.0,0.0,0.0,0.0,0.0,0.0,0.0,0.0,0.0,0.0,0.0,0.0,0.0,0.0,0.0,0.0,0.0,0.0,0.0,0.0,0.0,0.0,0.0,0.0,0.0,0.0,0.0,0.0,0.0,0.0,0.0,0.0,0.0,0.0,0.0,0.0,0.0,0.0,0.0,0.0,0.0,0.0,0.0,0.0,0.0,0.0,0.0,0.0,0.0,0.0,0.0,0.0,0.0,0.0,0.0,0.0,0.0,0.0,0.0,0.0,0.0,0.0,0.0,0.0,0.0,0.0,0.0,0.0,0.0,0.0,0.0,0.0,0.0,0.0,0.0,0.0,0.0,0.0,0.0,0.0,-2.2124,-2.1765,-2.1538,-2.152,-2.1309,-2.1035,-2.0869,-2.0653,-2.045,-2.0284,0.0,0.0,0.0,0.0,0.0,0.0,0.0,0.0,0.0,0.0,0.0,0.0,0.0,0.0,0.0,0.0,0.0,0.0,0.0,0.0,0.0,0.0,0.0,0.0,0.0,0.0,0.0,0.0,0.0,0.0,0.0,0.0,0.0,0.0,0.0,0.0,0.0,0.0,0.0,0.0,0.0,0.0,0.0,0.0,0.0,0.0,0.0,0.0,0.0,0.0,0.0,0.0,0.0,0.0,0.0,0.0,0.0,0.0,0.0,0.0,0.0,0.0,0.0,0.0,0.0,0.0,0.0,0.0,0.0,0.0,0.0,0.0,0.0,0.0,0.0,0.0,0.0,0.0,0.0,0.0,0.0,0.0,0.0,0.0,0.0,0.0,0.0,0.0,0.0,0.0,0.0,0.0,0.0,0.0,0.0,0.0,0.0,0.0,0.0,0.0,0.0,0.0,-2.3103,-2.2727,-2.2565,-2.2421,-2.1952,-2.1649,-2.1623,-2.1147,-2.0707,-2.0656,0.0,0.0,0.0,0.0,0.0,0.0,0.0,0.0,0.0,0.0,0.0,0.0,0.0,0.0,0.0,0.0,0.0,0.0,0.0,0.0,0.0,0.0,0.0,0.0,0.0,0.0,0.0,0.0,0.0,0.0,0.0,0.0,0.0,0.0,0.0,0.0,0.0,0.0,0.0,0.0,0.0,0.0,0.0,0.0,0.0,0.0,0.0,0.0,0.0,0.0,0.0,0.0,0.0,0.0,0.0,0.0,0.0,0.0,0.0,0.0,-6.3825,-6.3159,0.0,0.0,0.0,0.0,0.0,0.0,0.0,0.0,0.0,0.0,0.0,0.0,0.0,0.0,0.0,0.0,0.0,0.0,0.0,0.0,0.0,0.0,0.0,0.0,0.0,0.0,0.0,0.0,0.0,0.0,0.0,0.0,0.0,0.0,0.0,0.0,0.0,0.0,0.0,0.0,-2.3826,-2.3718,-2.361,-2.3679,-2.3488,-2.335,-2.3116,-2.2979,-2.2704,-2.2222,-2.2071,0.0,0.0,0.0,0.0,0.0,0.0,0.0,0.0,0.0,0.0,0.0,0.0,0.0,0.0,0.0,0.0,0.0,0.0,0.0,0.0,0.0,0.0,0.0,0.0,0.0,0.0,0.0,0.0,0.0,0.0,0.0,0.0,0.0,0.0,0.0,0.0,0.0,0.0,0.0,0.0,0.0,0.0,0.0,0.0,0.0,0.0,0.0,0.0,0.0,0.0,0.0,0.0,0.0,0.0,0.0,0.0,0.0,0.0,0.0,-6.4158,-6.3243,0.0,0.0,0.0,0.0,0.0,0.0,0.0,0.0,0.0,0.0,0.0,0.0,0.0,0.0,0.0,0.0,0.0,0.0,0.0,0.0,0.0,0.0,0.0,0.0,0.0,0.0,0.0,0.0,0.0,0.0,0.0,0.0,0.0,0.0,0.0,0.0,0.0,0.0,0.0,0.0,-2.4481,-2.436,-2.4238,-2.3952,-2.3966,-2.3896,-2.3728,-2.3574,-2.3426,-2.3077,-2.3036,0.0,0.0,0.0,0.0,0.0,0.0,0.0,0.0,0.0,0.0,0.0,0.0,0.0,0.0,0.0,0.0,0.0,0.0,0.0,0.0,0.0,0.0,0.0,0.0,0.0,0.0,0.0,0.0,0.0,0.0,0.0,0.0,0.0,0.0,0.0,0.0,0.0,0.0,0.0,0.0,0.0,0.0,0.0,0.0,0.0,0.0,0.0,0.0,0.0,0.0,0.0,0.0,0.0,-7.0735,-7.0163,-6.9514,-6.8114,-6.7075,-6.6309,-6.4427,-6.3105,-6.2223,-6.1043,0.0,0.0,0.0,0.0,0.0,0.0,0.0,0.0,0.0,0.0,0.0,0.0,0.0,0.0,0.0,0.0,0.0,0.0,0.0,0.0,0.0,0.0,-3.4204,-3.3622,-3.2788,-3.1761,-3.0206,0.0,0.0,0.0,0.0,0.0,0.0,0.0,0.0,0.0,0.0,0.0,-2.5396,-2.4989,-2.4717,-2.4445,-2.4445,-2.4431,-2.4374,-2.4132,-2.398,-2.3912,-2.3852,-2.3665,0.0,0.0,0.0,0.0,0.0,0.0,0.0,0.0,0.0,0.0,0.0,0.0,0.0,0.0,0.0,0.0,0.0,0.0,0.0,0.0,0.0,0.0,0.0,0.0,0.0,0.0,0.0,0.0,0.0,0.0,0.0,0.0,-6.5807,-6.7535,0.0,0.0,0.0,0.0,0.0,0.0,0.0,0.0,0.0,0.0,0.0,0.0,0.0,-7.1937,-7.1761,-7.1329,-7.0944,-7.0428,-6.987,-6.9332,-6.8625,-6.7807,-6.6919,-6.5947,-6.4804,0.0,-6.1718,-6.0173,0.0,0.0,0.0,0.0,0.0,0.0,0.0,0.0,0.0,0.0,0.0,0.0,0.0,0.0,0.0,0.0,0.0,0.0,0.0,0.0,0.0,0.0,-3.5199,-3.456,-3.3493,-3.2413,-3.1871,-3.0917,-2.9705,-2.8727,-2.8518,-2.8151,0.0,0.0,0.0,0.0,0.0,0.0,-2.6391,-2.6421,-2.6421,-2.6284,-2.6284,-2.6178,-2.5891,-2.5831,-2.5665,-2.5317,-2.5115,-2.4751,-2.4371,-2.3871,0.0,0.0,0.0,0.0,0.0,0.0,0.0,0.0,0.0,0.0,0.0,0.0,0.0,0.0,0.0,0.0,0.0,0.0,0.0,0.0,0.0,0.0,0.0,0.0,0.0,0.0,0.0,0.0,0.0,-6.5849,-6.7225,-6.7991,-6.8483,-6.907,0.0,0.0,0.0,0.0,0.0,0.0,0.0,0.0,0.0,-7.2241,-7.1874,-7.1704,-7.1813,-7.1272,-7.1011,-7.0975,-7.0211,-6.9435,-6.8682,-6.7326,-6.6213,-6.5264,-6.3869,-6.2543,-6.1212,-6.0096,-5.8885,-5.756,0.0,0.0,0.0,0.0,-5.1116,-5.0026,-4.8692,-4.7485,-4.6435,-4.5034,0.0,0.0,0.0,0.0,0.0,0.0,0.0,-3.8042,-3.7131,-3.6302,-3.567,-3.51,-3.4324,-3.3659,-3.306,-3.2354,-3.1527,-3.0176,-2.9445,-2.8929,-2.8408,-2.8196,0.0,0.0,0.0,-2.7426,-2.7583,-2.7185,-2.6908,-2.6908,-2.6741,-2.6573,-2.642,-2.6252,-2.6126,-2.6168,-2.5825,-2.5722,-2.5753,-2.5082,-2.4619,0.0,0.0,0.0,0.0,0.0,0.0,0.0,0.0,0.0,0.0,0.0,0.0,0.0,0.0,0.0,0.0,0.0,0.0,0.0,0.0,0.0,0.0,0.0,0.0,0.0,0.0,0.0,0.0,-6.7148,-6.8261,-6.8703,-6.9226,-6.998,0.0,0.0,0.0,0.0,0.0,0.0,-7.3101,-7.2738,-7.2528,-7.2598,-7.2134,-7.2043,-7.2392,-7.1824,-7.1547,-7.1621,-7.0734,-6.9836,-6.9003,-6.7386,-6.612,-6.5171,-6.3498,-6.207,-6.1025,-6.017,-5.8877,-5.7294,-5.5584,-5.4182,-5.2834,-5.1494,-5.0549,-4.9967,-4.8373,-4.7541,-4.684,-4.5206,-4.4301,-4.3661,-4.2233,0.0,0.0,0.0,0.0,-3.8526,-3.7514,-3.6933,-3.6295,-3.5685,-3.5164,-3.4657,-3.4001,-3.3721,-3.3077,-3.1265,-3.0495,-2.9848,-2.9585,-2.9378,0.0,-2.9075,-2.876,-2.8542,-2.8638,-2.8237,-2.7958,-2.7958,-2.7724,-2.7504,-2.718,-2.6947,-2.6918,-2.7098,-2.6729,-2.6631,-2.6777,-2.6166,-2.5753,-2.5572,0.0,0.0,0.0,0.0,0.0,0.0,0.0,0.0,0.0,0.0,0.0,0.0,0.0,0.0,0.0,0.0,0.0,0.0,0.0,0.0,0.0,0.0,0.0,0.0,0.0,0.0,0.0,0.0,0.0,-7.0279,-7.0395,0.0,0.0,0.0,0.0,-7.3311,-7.3022,-7.3069,-7.3456,-7.3037,-7.3297,-7.4509,-7.3979,-7.3839,-7.4066,-7.3428,-7.2758,-7.2044,-7.1147,-7.0326,-6.9457,-6.8479,-6.7372,-6.6157,-6.435,-6.2871,-6.1483,-6.0042,-5.8807,-5.7607,-5.5887,-5.4709,-5.3604,-5.1304,-5.0129,-4.9419,-4.7832,-4.6954,-4.6369,-4.5979,-4.4914,-4.3614,-4.2411,-4.1874,0.0,0.0,-4.0152,-3.9803,-3.8648,-3.8052,-3.7572,-3.6624,-3.589,-3.5252,-3.5093,-3.4556,-3.3521,-3.1672,-3.1689,-3.157,-3.0513,0.0,-3.0276,-2.985,-2.9593,-2.9468,-2.9814,-2.9724,-2.9724,-2.9724,-2.9708,-2.9428,-2.8738,-2.8656,-2.8492,-2.8263,-2.7883,-2.752,-2.7173,-2.6777,-2.6248,-2.5572,-2.5522,0.0,0.0,0.0,0.0,0.0,0.0,0.0,0.0,0.0,0.0,0.0,0.0,0.0,0.0,0.0,0.0,0.0,0.0,0.0,0.0,0.0,0.0,0.0,0.0,0.0,0.0,0.0,0.0,-7.1159,-7.1675,0.0,-7.3351,-7.32,-7.3283,-7.3789,-7.3987,-7.4212,-7.4658,-7.4672,-7.4673,-7.4772,-7.4129,-7.3715,-7.3416,-7.2691,-7.1968,-7.1252,-7.0222,-6.9306,-6.8383,-6.7295,-6.616,-6.5012,-6.3609,-6.2364,-6.1146,-5.9737,-5.8258,-5.6643,-5.4777,-5.3666,-5.2882,-5.1304,-5.0236,-4.9576,-4.81,-4.7195,-4.6487,-4.5413,-4.4493,-4.3622,-4.2959,-4.2652,-4.2418,-4.1472,-4.1257,-4.0994,-3.9909,-3.9421,-3.8931,-3.8189,-3.742,-3.6855,-3.6259,-3.5787,-3.5082,-3.3888,-3.2936,-3.2253,-3.1853,-3.1637,-3.1475,-3.1338,-3.1271,-3.12,-3.1337,-3.0932,-3.0667,-3.0667,-3.045,-3.0199,-2.9931,-2.9614,-2.9546,-2.9693,-2.9093,-2.8707,-2.8455,-2.8058,-2.7608,-2.7107,-2.6967,-2.6606,0.0,0.0,0.0,0.0,0.0,0.0,0.0,0.0,0.0,0.0,0.0,0.0,0.0,0.0,0.0,0.0,0.0,0.0,0.0,0.0,0.0,0.0,0.0,0.0,0.0,-7.0153,-7.1327,-7.2056,-7.2763,-7.3452,-7.4108,-7.4175,-7.435,-7.4857,-7.5281,-7.5501,-7.5593,-7.5612,-7.542,-7.5068,-7.4377,-7.382,-7.3404,-7.2554,-7.1778,-7.0898,-6.9916,-6.8884,-6.7866,-6.6711,-6.5543,-6.4507,-6.3087,-6.176,-6.055,-5.9044,-5.7508,-5.5935,-5.4282,-5.3171,-5.2162,-5.091,-5.0115,-4.9456,-4.805,-4.7138,-4.6349,-4.5028,-4.4215,-4.3692,-4.3284,-4.3117,-4.2879,-4.216,-4.1942,-4.1555,-4.0678,-4.0185,-3.9814,-3.9066,-3.8564,-3.7975,-3.7377,-3.6903,-3.6554,-3.591,-3.4489,-3.346,-3.3192,-3.2866,-3.2708,-3.2708,-3.2524,-3.2263,-3.2263,-3.1841,-3.1576,-3.1576,-3.1337,-3.1148,-3.1011,-3.0684,-3.0537,-3.0548,-3.0083,-2.9555,-2.9403,-2.9013,-2.8605,-2.8215,-2.77,-2.7317,-2.6981,0.0,0.0,0.0,0.0,0.0,0.0,0.0,0.0,0.0,0.0,0.0,0.0,0.0,0.0,0.0,0.0,0.0,0.0,0.0,0.0,0.0,0.0,0.0,-7.0725,-7.1425,-7.2211,-7.3002,-7.3661,-7.4298,-7.4887,-7.5426,-7.5948,-7.6389,-7.6776,-7.6818,-7.6243,-7.5661,-7.5441,-7.5571,-7.4916,-7.444,-7.4252,-7.338,-7.2382,-7.1278,-7.0236,-6.9221,-6.8165,-6.6974,-6.5884,-6.4654,-6.2755,-6.1315,-5.9972,-5.8058,-5.6621,-5.5647,-5.4418,-5.2998,-5.1588,-5.0427,-4.9707,-4.9116,-4.7673,-4.6613,-4.597,-4.4913,-4.4304,-4.3916,-4.343,-4.3046,-4.2808,-4.2448,-4.2087,-4.1724,-4.1068,-4.0578,-4.0107,-3.9236,-3.8985,-3.8738,-3.8164,-3.777,-3.7522,-3.7668,-3.6469,-3.5237,-3.4431,-3.4091,-3.3817,-3.3817,-3.326,0.0,-3.2701,-3.2701,-3.2701,-3.2701,-3.2701,-3.256,-3.2152,-3.1762,-3.1371,-3.1114,-3.0722,-3.0312,-2.9903,-2.9529,-2.9137,-2.8709,-2.7961,-2.7335,-2.6981,0.0,0.0,0.0,0.0,0.0,0.0,0.0,0.0,0.0,0.0,0.0,0.0,0.0,0.0,0.0,0.0,0.0,0.0,0.0,0.0,0.0,-7.092,-7.1636,-7.1579,-7.2248,-7.325,-7.46,-7.5333,-7.5939,-7.6399,-7.6897,-7.7113,-7.6852,-7.7109,-7.7013,-7.6477,-7.6397,-7.6154,-7.5711,-7.5513,-7.5006,-7.4345,-7.3981,-7.3288,-7.2277,-7.0996,-6.9793,-6.8754,-6.6823,-6.5391,-6.4141,-6.2175,-6.0696,-5.9729,-5.823,-5.6641,-5.5263,-5.4287,-5.327,-5.2114,-5.0819,-4.9341,-4.8081,-4.7282,-4.6461,-4.5719,-4.5427,-4.4814,-4.4205,-4.4085,-4.3914,-4.3791,-4.3521,-4.3274,-4.3151,-4.2404,-4.2005,-4.1628,-4.1122,-4.0507,-3.9908,-3.965,-3.9149,-3.8534,-3.815,-3.7668,-3.7052,-3.5704,-3.5256,-3.4921,-3.4646,-3.437,-3.437,-3.437,-3.4094,-3.3955,-3.3955,-3.3955,-3.3918,-3.3789,-3.3397,-3.3084,-3.2954,-3.2301,-3.1724,-3.1295,-3.1164,-3.0649,-2.972,-2.8727,-2.8092,0.0,0.0,0.0,0.0,0.0,0.0,0.0,0.0,0.0,0.0,0.0,0.0,0.0,0.0,0.0,0.0,0.0,0.0,0.0,0.0,0.0,0.0,-7.1975,-7.2767,-7.3431,-7.3875,-7.4561,-7.5776,-7.645,-7.7035,-7.7438,-7.7946,-7.8058,-7.7545,-7.7779,-7.7808,-7.7562,-7.7275,-7.6958,-7.6518,-7.6092,-7.5474,-7.4479,-7.3967,-7.3164,-7.2016,-7.0819,-6.9574,-6.839,-6.6622,-6.5213,-6.3921,-6.2186,-6.067,-5.9319,-5.7915,-5.6524,-5.5024,0.0,0.0,0.0,0.0,-4.9084,-4.7751,-4.7213,-4.6567,-4.6021,-4.5803,-4.5242,-4.4683,-4.4683,-4.4515,-4.4223,-4.4075,-4.395,-4.3678,-4.3326,-4.2925,-4.2546,-4.2166,-4.1527,-4.1035,-4.0799,-4.0149,-3.9494,-3.9099,-3.8835,0.0,-3.7348,-3.6403,-3.586,-3.5587,-3.5451,-3.5314,-3.5314,-3.5177,-3.504,-3.4921,-3.4921,-3.4784,-3.4646,-3.4161,0.0,0.0,0.0,-3.2403,-3.1797,-3.1607,0.0,0.0,0.0,-2.8747,-2.8392,-2.7759,0.0,0.0,-2.4761,-2.391,0.0,0.0,0.0,0.0,0.0,0.0,0.0,0.0,0.0,0.0,0.0,0.0,0.0,0.0,0.0,0.0,-7.2912,-7.4134,-7.5733,-7.5902,-7.6105,-7.6671,-7.7349,-7.7919,-7.8295,-7.8713,-7.8887,-7.8481,-7.8666,-7.8833,-7.9054,-7.8143,0.0,0.0,0.0,-7.5666,-7.4542,-7.3612,-7.2508,-7.1251,-7.0147,-6.897,-6.7753,-6.6406,-6.5084,-6.3754,-6.2428,-6.0694,-5.8934,-5.7542,-5.6132,-5.4779,-5.4155,-5.2818,-5.098,-4.9717,-4.8802,-4.7918,-4.7385,0.0,0.0,-4.6175,-4.5645,-4.5213,-4.5164,-4.4804,-4.4419,-4.4371,-4.4075,-4.3802,-4.3802,-4.3576,-4.32,-4.2546,-4.242,-4.2166,-4.155,-4.0928,-4.0409,-4.0409,-3.9866,-3.921,-3.8946,-3.7595,-3.6789,-3.6654,-3.6384,-3.6112,-3.6112,-3.6112,-3.5996,-3.5743,-3.5606,0.0,-3.5196,-3.4776,-3.4356,-3.3955,-3.3497,-3.2886,-3.2123,-3.1579,-3.1161,-3.0762,-2.9968,-2.9505,-2.9094,-2.8373,-2.7741,-2.7033,-2.5662,-2.476,0.0,0.0,0.0,0.0,0.0,0.0,0.0,0.0,0.0,0.0,0.0,0.0,0.0,0.0,0.0,-7.2782,-7.4279,-7.5696,-7.67,-7.7284,-7.7633,-7.7642,-7.8757,-7.9413,-7.9114,-7.9514,-7.9816,-7.9891,-7.9406,-7.9172,-7.9333,-7.8445,-7.7701,-7.705,-7.6737,-7.6037,-7.4878,-7.4421,-7.354,-7.2096,-7.0694,0.0,-6.8224,-6.6132,-6.4429,-6.3147,-6.12,-5.978,-5.8747,-5.6902,-5.5028,-5.324,-5.2683,-5.1729,-5.0416,-4.9328,-4.8622,-4.8184,-4.7654,-4.7064,-4.6704,-4.6583,-4.6199,-4.5694,-4.5261,-4.5068,0.0,-4.4467,-4.4223,-4.4099,-4.3826,-4.3802,-4.3553,-4.3177,-4.2949,-4.257,-4.2166,-4.1806,-4.1293,-4.0777,-4.0647,-4.0257,-3.9583,-3.8793,-3.8017,-3.7482,-3.7348,-3.7213,-3.6944,-3.6944,-3.6809,-3.6809,-3.6809,-3.6809,-3.6674,-3.6256,-3.5818,-3.54,-3.4624,-3.4087,-3.3928,-3.3015,-3.2358,-3.193,-3.0882,-3.0024,-2.945,-2.902,-2.8509,-2.7776,-2.6133,-2.4994,0.0,0.0,0.0,0.0,0.0,0.0,0.0,0.0,0.0,0.0,0.0,-6.7988,-6.9121,0.0,-7.264,-7.3641,-7.5282,-7.6755,-7.7645,-7.8663,-7.9275,-7.9116,-7.9559,-8.0054,-8.0463,-8.0459,-8.0507,-8.0793,-8.0116,-7.9781,-7.9852,-7.8998,-7.8222,-7.7707,-7.7058,-7.6119,-7.4911,-7.4207,-7.3252,-7.1982,-7.0662,-6.9325,-6.8148,-6.6365,-6.4726,-6.3293,-6.1677,-6.0046,-5.8644,-5.5976,-5.3948,-5.2675,-5.199,-5.1206,-5.036,-4.9414,-4.8748,-4.8243,-4.7734,-4.7412,-4.7112,-4.7112,-4.6752,-4.6271,-4.6135,-4.5803,-4.532,-4.5178,-4.5035,-4.4717,-4.457,-4.4446,-4.4199,-4.3927,-4.3553,-4.32,-4.2925,-4.257,-4.2189,-4.1655,-4.1421,-4.1164,-4.0647,-4.0257,-3.9604,-3.8549,-3.8416,-3.8283,-3.815,-3.815,-3.815,-3.7883,-3.7883,-3.7883,-3.7595,-3.7187,-3.6738,-3.6309,-3.5509,-3.4916,-3.4693,-3.3753,-3.3188,-3.2726,-3.1595,-3.0792,-3.0225,-2.9543,-2.8856,-2.8241,-2.7019,-2.6135,0.0,0.0,0.0,0.0,0.0,0.0,0.0,-6.3233,-6.4254,-6.6011,-6.7462,-6.8794,-6.9919,-7.1785,-7.3479,-7.4482,-7.6164,-7.7654,-7.8503,-7.978,-8.0642,-8.0782,-8.0485,-8.0683,-8.1576,-8.1279,-8.1188,-8.1462,-8.0761,-8.0441,-8.0526,-7.9539,-7.8804,-7.842,-7.7298,-7.6148,-7.4803,-7.3698,-7.2517,-7.125,-7.0016,-6.8741,-6.7548,-6.6198,-6.481,-6.3516,-6.1923,-6.0102,-5.8085,-5.5229,-5.3487,-5.2533,-5.1669,-5.1041,-5.0301,-4.9647,-4.8935,-4.8444,-4.7821,-4.7623,-4.7642,-4.7521,-4.7209,-4.6979,-4.7142,-4.6616,-4.6012,-4.6042,-4.5798,-4.5454,-4.5355,-4.5086,-4.484,-4.457,-4.4299,-4.3927,-4.3576,-4.3326,-4.2949,-4.2546,-4.2293,-4.1934,-4.1678,-4.1572,-4.1164,-3.9735,-3.9473,-3.9473,-3.9341,-3.9341,-3.9341,-3.9078,-3.8946,-3.8793,-3.8374,-3.8109,-3.752,-3.7082,-3.6349,-3.5643,-3.519,-3.4472,-3.3983,-3.3656,-3.2453,-3.1641,-3.1127,-3.0187,-2.9287,-2.86,-2.7882,-2.7039,-5.59,-5.71,-5.8268,-5.8848,-6.032,-6.1754,0.0,-6.3975,-6.5501,-6.6097,-6.7827,-6.9624,-7.0807,-7.2657,-7.4328,-7.539,-7.7089,-7.8553,-7.9361,-8.013,-8.1109,-8.245,-8.2273,-8.1892,-8.1537,-8.1767,-8.2007,-8.2162,-8.1459,-8.0955,-8.098,-7.9956,-7.9009,-7.798,-7.6975,-7.5737,-7.4206,-7.3044,-7.1625,-7.0016,-6.8741,-6.7427,-6.6198,-6.481,-6.3516,-6.2515,-6.0315,-5.8464,-5.6624,-5.5669,-5.4185,-5.2558,-5.2083,-5.1341,-5.0551,-4.965,-4.9248,-4.901,-4.8083,-4.7861,-4.8122,-4.7642,-4.7714,-4.7724,-4.7369,-4.7409,-4.7346,-4.6363,-4.6044,-4.5896,-4.5454,-4.5331,-4.5208,-4.5208,-4.5208,-4.4939,-4.4299,-4.4175,-4.3927,-4.3302,-4.32,-4.3075,-4.2696,-4.257,-4.2189,-4.0777,-4.0647,-4.0517,-4.0127,-4.0127,-4.0149,-3.9997,-3.9975,-3.9844,-3.9583,-3.9153,-3.8552,-3.77,-3.7233,-3.6767,-3.6199,-3.5623,-3.5046,-3.4634,-3.3679,-3.2509,-3.1465,-3.073,-2.9923,-2.8975,-2.8259,-2.728,-5.6902,-5.8071,-5.9164,-5.9998,-6.1019,-6.214,-6.3527,-6.4711,-6.5913,-6.7314,-6.8908,-7.0422,-7.1646,-7.345,-7.515,-7.6271,-7.7933,-7.9375,-8.022,-8.091,-8.1731,-8.276,-8.2912,-8.294,-8.2949,-8.2778,-8.2737,-8.2855,-8.2068,-8.1313,-8.0804,-7.987,-7.8753,-7.7475,-7.6485,-7.5161,-7.3698,-7.2517,-7.1218,-6.9787,-6.8505,-6.7183,-6.5948,-6.4554,-6.2858,-6.1002,-5.9202,-5.794,-5.6852,-5.5346,-5.4027,-5.3025,-5.2017,-5.1153,-5.0222,-4.9866,-4.9722,-4.9479,-4.8463,-4.8284,-4.8195,-4.7931,-4.7894,-4.7977,-4.8281,-4.8268,-4.7976,-4.7533,-4.7207,-4.6831,-4.6522,-4.6155,-4.5939,-4.5939,-4.5574,-4.5208,-4.4939,-4.4939,-4.4693,-4.4299,-4.4051,-4.3802,-4.3451,-4.32,-4.2949,-4.2293,-4.1806,-4.1293,-4.0906,-4.0906,-4.0906,-4.0777,-4.0777,-4.0777,-4.0647,-4.0471,-4.014,-3.9506,-3.8647,-3.7919,-3.7465,-3.6427,-3.5704,-3.5148,-3.4513,-3.3598,-3.2611,-3.1378,-3.0452,-2.9545,-2.8487,-2.7418,-5.7723,-5.8843,-5.9926,-6.0788,-6.1675,-6.2781,-6.4355,-6.544,-6.6541,-6.8224,-6.9725,-7.1145,-7.2418,-7.4083,-7.5737,-7.7078,-7.8597,-7.9883,-8.079,-8.1663,-8.2509,-8.3148,-8.3538,-8.3862,-8.4282,-8.3794,-8.3336,-8.3206,-8.2334,-8.1437,-8.0622,-7.9558,-7.842,-7.703,-7.602,-7.4671,-7.3181,-7.2014,-7.0806,-6.9588,-6.8268,-6.6939,-6.5727,-6.3908,-6.2058,-5.99,-5.8497,-5.7641,-5.721,-5.516,-5.4107,-5.3541,-5.2188,-5.1226,-5.0461,-5.0318,-5.0149,-4.9883,-4.9078,-4.869,-4.8546,-4.8282,-4.8148,-4.8289,-4.9072,-4.9057,-4.8735,-4.8632,-4.8248,-4.7886,-4.7266,-4.6874,-4.6541,-4.6541,-4.6155,-4.5793,-4.5574,-4.5574,-4.5453,-4.5061,-4.4792,-4.457,-4.4323,-4.4075,-4.3826,-4.3678,-4.3051,-4.242,-4.1934,-4.1806,-4.1806,-4.1806,-4.1806,-4.1806,-4.1678,-4.1678,-4.1474,-4.0851,-3.9833,-3.8971,-3.8363,-3.727,-3.6401,-3.5911,-3.5352,-3.4513,-3.3534,-3.2289,-3.1137,-3.0167,-2.8908,-2.7747,-5.8374,-5.9501,-6.0447,-6.088,-6.236,-6.3892,-6.4472,-6.6156,-6.7679,-6.8258,-7.0039,-7.1898,-7.3224,-7.4425,-7.5835,-7.7754,-7.8923,-7.9882,-8.0782,-8.2206,-8.3403,-8.3979,-8.4348,-8.4706,-8.5037,-8.4524,-8.3854,-8.2987,-8.2206,-8.1299,-8.0175,-7.9125,-7.7996,-7.6884,-7.5546,-7.4273,-7.2867,-7.1766,-7.0438,-6.8889,-6.7578,-6.6352,-6.4996,-6.2487,-6.0755,-5.9508,-5.8355,-5.7641,-5.7235,-5.5607,-5.4672,-5.4107,-5.2744,-5.1922,-5.1393,-5.0888,-5.0388,-5.0009,-4.9486,-4.924,-4.9101,-4.884,-4.8729,-4.8706,-4.9332,-4.9847,-4.985,-4.9106,-4.8922,-4.8641,-4.7487,-4.7205,-4.7205,-4.7205,-4.7205,-4.6968,-4.6421,-4.6301,-4.6059,-4.5453,-4.5331,-4.5331,-4.5208,-4.5208,-4.5061,-4.4792,-4.4669,-4.4299,-4.3326,-4.32,-4.32,-4.32,-4.32,-4.3075,-4.2822,-4.2696,-4.2236,-4.1206,-4.0581,-3.9959,-3.9097,-3.8001,-3.7374,-3.7374,-3.6013,-3.5067,-3.4268,-3.3267,-3.1957,-3.0547,-2.9544,-2.8357,-5.9218,-6.0268,-6.1364,-6.2148,-6.3039,-6.4207,-6.5693,-6.6844,-6.7904,-6.8932,-7.0839,-7.2592,-7.3293,-7.4881,-7.669,-7.865,-7.9314,-8.0116,-8.1563,-8.2596,-8.3442,-8.4017,-8.4366,-8.4709,-8.5033,-8.4427,-8.3655,-8.2927,-8.2011,-8.1055,-7.9947,-7.8917,-7.765,-7.63,-7.5064,-7.3665,-7.2337,-7.0886,-6.9526,-6.8268,-6.6228,-6.4612,-6.3178,-6.1681,-6.048,-5.9508,-5.8239,-5.7523,-5.7235,-5.5632,-5.4697,-5.4131,-5.2768,-5.1946,-5.1441,-5.0912,-5.0554,-5.0482,-4.9931,-4.9517,-4.9398,-4.9133,-4.9125,-4.9357,-4.9873,-5.0104,-5.0231,-4.9502,-4.9168,-4.9032,-4.8106,-4.7703,-4.756,-4.756,-4.7324,-4.7087,-4.6993,-4.6874,-4.6874,-4.661,-4.6276,-4.5939,-4.5939,-4.5574,-4.5208,-4.5184,-4.4816,-4.4299,-4.4051,-4.3927,-4.3927,-4.3927,-4.3927,-4.3802,-4.3451,-4.3451,-4.3232,-4.2567,-4.1955,-4.1076,-4.0304,-3.9318,-3.843,-3.7374,-3.6767,-3.5949,-3.5067,-3.3797,-3.25,-3.1309,-2.9794,-2.8478,-5.9916,-6.0974,-6.2155,-6.281,-6.3766,-6.4998,-6.6441,-6.7332,-6.8294,-6.96,-7.1409,-7.2945,-7.3658,-7.5282,-7.7137,-7.9052,-7.9502,-8.0193,-8.1968,-8.3036,-8.3735,-8.4033,-8.4605,-8.494,-8.4986,-8.4242,-8.349,-8.2867,-8.1812,-8.0768,-7.9715,-7.8587,-7.7298,-7.5892,-7.4671,-7.3252,-7.1906,-7.0469,-6.8976,-6.7183,-6.5192,-6.3573,-6.2381,-6.1138,-6.0177,-5.9368,-5.7953,-5.7379,-5.7091,-5.5632,-5.482,-5.4279,-5.2841,-5.2067,-5.1682,-5.096,-5.0837,-5.0765,-5.0403,-5.0101,-4.9694,-4.9889,-4.98,-4.9719,-5.0232,-5.0741,-5.0736,-4.9993,-4.9776,-4.9756,-4.872,-4.8405,-4.8172,-4.8172,-4.7938,-4.7703,-4.756,-4.7442,-4.7324,-4.7205,-4.6874,-4.6636,-4.6636,-4.6276,-4.6035,-4.6035,-4.5646,-4.5159,-4.4693,-4.4693,-4.4693,-4.4693,-4.4693,-4.457,-4.4323,-4.4323,-4.4199,-4.3678,-4.2956,-4.2192,-4.119,-4.0295,-3.919,-3.7856,-3.7374,-3.6646,-3.5541,-3.4389,-3.3287,-3.1996,-3.0456,-2.9076,-6.0468,-6.1664,-6.2745,-6.3026,-6.4545,-6.6117,-6.6617,-6.7654,-6.8884,-7.0304,-7.1634,-7.299,-7.4259,-7.5619,-7.7138,-7.9019,-7.9487,-8.027,-8.1946,-8.3488,-8.43,-8.4025,-8.5036,-8.5475,-8.4803,-8.3989,-8.3264,-8.2647,-8.1574,-8.0548,-7.9558,-7.8217,-7.694,-7.5608,-7.4373,-7.294,-7.158,-7.0356,-6.8356,-6.5978,-6.4554,-6.3413,-6.2381,-6.0865,-5.9787,-5.9114,-5.7953,-5.7235,-5.6656,-5.5485,-5.5041,-5.477,-5.2986,-5.2283,-5.2139,-5.1081,-5.0954,-5.1211,-5.1211,-5.0506,-4.9903,-5.0846,-5.0494,-4.9847,-5.0867,-5.1346,-5.1485,-5.0601,-5.0618,-5.059,-4.9418,-4.9125,-4.9125,-4.9125,-4.8895,-4.8663,-4.8289,-4.7938,-4.7677,-4.7324,-4.7205,-4.7205,-4.7205,-4.7205,-4.7205,-4.7205,-4.7205,-4.673,-4.555,-4.5453,-4.5453,-4.5453,-4.5453,-4.5453,-4.5331,-4.5331,-4.5061,-4.4422,-4.3964,-4.3118,-4.1989,-4.0847,-3.9859,-3.8857,-3.7976,-3.7011,-3.5932,-3.5294,-3.4202,-3.2793,-3.138,-2.9984,-6.1282,-6.1946,-6.2737,-6.4183,-6.5207,-6.6097,-6.712,-6.7973,-6.8884,-7.0173,-7.1552,-7.2922,-7.4204,-7.6018,-7.7754,-7.9081,-7.9977,-8.0891,-8.2024,-8.3488,-8.43,-8.4025,-8.5036,-8.5475,-8.4803,-8.3989,-8.3148,-8.227,-8.1336,-8.0326,-7.9356,-7.7961,-7.6634,-7.545,-7.3869,-7.2517,-7.1218,-6.8945,-6.6846,-6.5222,-6.4066,-6.3018,-6.1951,-6.0728,-5.9787,-5.9114,-5.7953,-5.7235,-5.6801,-5.5779,-5.5337,-5.4918,-5.3546,-5.2985,-5.255,-5.1791,-5.1541,-5.1656,-5.2327,-5.1743,-5.0846,-5.1114,-5.1017,-5.0867,-5.1346,-5.1747,-5.1733,-5.0963,-5.0857,-5.059,-4.9418,-4.9125,-4.9125,-4.9125,-4.901,-4.901,-4.8895,-4.8663,-4.8431,-4.8315,-4.7938,-4.7442,-4.7205,-4.7205,-4.7205,-4.7205,-4.7205,-4.7087,-4.673,-4.673,-4.673,-4.673,-4.673,-4.661,-4.6396,-4.618,-4.5817,-4.5428,-4.5061,-4.4403,-4.3142,-4.2472,-4.1351,-3.9739,-3.8635,-3.7594,-3.6646,-3.5665,-3.4573,-3.3164,-3.2037,-3.0612,-6.1608,-6.2524,-6.3581,-6.4806,-6.5692,-6.6551,-6.7396,-6.8033,-6.8948,-7.0616,-7.1776,-7.3,-7.4631,-7.6388,-7.7965,-7.912,-8.0124,-8.1123,-8.2063,-8.3488,-8.43,-8.3938,-8.4966,-8.5398,-8.4618,-8.3922,-8.309,-8.2011,-8.1126,-8.0243,-7.9411,-7.8136,-7.6778,-7.5469,-7.4023,-7.2272,-7.0098,-6.8029,-6.6352,-6.4996,-6.3806,-6.262,-6.1546,-6.0453,-5.9508,-5.8806,-5.781,-5.7235,-5.6801,-5.5926,-5.5336,-5.4745,-5.3763,-5.3127,-5.2665,-5.1975,-5.1935,-5.2302,-5.2466,-5.222,-5.1885,-5.1885,-5.1666,-5.1346,-5.1747,-5.2121,-5.2375,-5.1561,-5.1449,-5.1296,-5.0222,-4.981,-4.9697,-4.9697,-4.9469,-4.9354,-4.9354,-4.9125,-4.8895,-4.8895,-4.8548,-4.8289,-4.8055,-4.8029,-4.8029,-4.8029,-4.8029,-4.8029,-4.8029,-4.756,-4.7205,-4.7205,-4.7205,-4.7087,-4.6968,-4.6755,-4.6516,-4.6059,-4.5817,-4.5206,-4.4038,-4.3264,-4.2019,-4.0545,-3.93,-3.8194,-3.7132,-3.6258,-3.5149,-3.3937,-3.2603,-3.1264,-6.1793,-6.3208,-6.4626,-6.5105,-6.6066,-6.704,-6.7506,-6.8033,-6.9059,-7.1254,-7.2075,-7.3116,-7.5206,-7.6773,-7.8098,-7.912,-8.0241,-8.1276,-8.2063,-8.3488,-8.4242,-8.385,-8.4933,-8.5357,-8.4465,-8.3817,-8.2994,-8.1842,-8.0984,-8.0298,-7.9677,-7.8529,-7.7046,-7.5267,-7.4097,-7.1903,-6.8772,-6.7578,-6.6228,-6.4868,-6.3545,-6.2354,-6.1302,-6.0065,-5.9228,-5.8523,-5.7667,-5.7235,-5.6801,-5.5926,-5.5309,-5.4762,-5.3928,-5.3242,-5.2558,-5.2157,-5.2491,-5.2941,-5.2387,-5.2501,-5.2802,-5.2725,-5.223,-5.1721,-5.2121,-5.2738,-5.2985,-5.2154,-5.2178,-5.2108,-5.1098,-5.0711,-5.0487,-5.0487,-5.015,-4.967,-4.967,-4.9469,-4.9125,-4.9125,-4.9125,-4.9125,-4.9125,-4.9178,-4.9232,-4.9232,-4.9312,-4.9365,-4.9365,-4.825,-4.7442,-4.7442,-4.7442,-4.7442,-4.7442,-4.7324,-4.7112,-4.6541,-4.6421,-4.5835,-4.4738,-4.36,-4.2472,-4.1235,-4.0127,-3.888,-3.7495,-3.6746,-3.589,-3.4922,-3.3277,-3.2066,-6.2234,-6.3341,-6.445,-6.5565,-6.6222,-6.675,-6.7286,-6.7736,-6.8729,-7.1079,-7.1907,-7.2966,-7.5173,-7.7189,-7.8665,-7.922,-8.0729,-8.1933,-8.218,-8.3488,-8.4242,-8.385,-8.4933,-8.5357,-8.4465,-8.3817,-8.2935,-8.1641,-8.1382,-8.0834,-7.9627,-7.8314,-7.6301,-7.3588,-7.1807,-6.9964,-6.8148,-6.7091,-6.5882,-6.4612,-6.3413,-6.2354,-6.1302,-6.0065,-5.9228,-5.8523,-5.7667,-5.7235,-5.6801,-5.6365,-5.5601,-5.4762,-5.4502,-5.3786,-5.3097,-5.313,-5.3341,-5.3376,-5.3356,-5.332,-5.314,-5.2644,-5.2271,-5.2121,-5.3105,-5.347,-5.3347,-5.2712,-5.2586,-5.2311,-5.121,-5.0906,-5.0795,-5.0795,-5.0599,-5.0375,-5.0375,-4.9924,-4.9469,-4.9125,-4.9125,-4.9125,-4.9125,-4.9525,-4.9844,-4.9844,-5.0244,-5.0564,-5.0564,-4.9478,-4.8753,-4.8753,-4.8753,-4.8753,-4.8753,-4.8289,-4.7938,-4.7847,-4.7138,-4.6516,-4.603,-4.4882,-4.3625,-4.2496,-4.1044,-3.9602,-3.8194,-3.7231,-3.6279,-3.5294,-3.4093,-3.298,-6.2877,-6.3917,-6.4918,-6.5697,-6.6207,-6.6632,-6.7174,-6.763,-6.8679,-7.0938,-7.182,-7.2888,-7.5077,-7.7246,-7.881,-7.9187,-8.0836,-8.2125,-8.218,-8.3488,-8.4242,-8.385,-8.4933,-8.5357,-8.4465,-8.3763,-8.2839,-8.1574,-8.1307,-8.0759,-7.9845,-7.7809,-7.5798,-7.3734,-7.1231,-6.9325,-6.7909,-6.6846,-6.5601,-6.4512,-6.331,-6.2086,-6.1029,-6.0065,-5.9228,-5.8523,-5.7667,-5.7235,-5.7091,-5.651,-5.5572,-5.4652,-5.4804,-5.42,-5.3394,-5.3691,-5.4022,-5.4299,-5.3685,-5.3712,-5.373,-5.3183,-5.2952,-5.2983,-5.347,-5.3833,-5.3974,-5.3204,-5.2959,-5.2681,-5.1655,-5.1238,-5.1155,-5.1155,-5.0822,-5.0515,-5.0515,-5.015,-4.9783,-4.9556,-4.9825,-5.0013,-5.0013,-5.0524,-5.0927,-5.0927,-5.1169,-5.1449,-5.1566,-5.108,-5.0505,-4.9605,-4.9312,-4.9125,-4.9125,-4.8779,-4.8521,-4.8172,-4.7729,-4.7257,-4.6566,-4.5629,-4.4343,-4.3117,-4.1757,-4.0267,-3.8812,-3.7856,-3.6889,-3.589,-3.4673,-3.3552,-6.3236,-6.4348,-6.5282,-6.5675,-6.6083,-6.6512,-6.704,-6.756,-6.8578,-7.0795,-7.1739,-7.281,-7.501,-7.7224,-7.881,-7.917,-8.0825,-8.2203,-8.2454,-8.3605,-8.432,-8.4121,-8.5049,-8.5357,-8.4465,-8.3672,-8.2719,-8.1574,-8.0964,-8.0422,-7.9658,-7.7279,-7.5209,-7.3881,-7.1213,-6.9093,-6.7668,-6.6446,-6.5348,-6.4354,-6.3046,-6.1844,-6.0865,-5.9927,-5.9228,-5.8523,-5.781,-5.7523,-5.7523,-5.6801,-5.5854,-5.4845,-5.5152,-5.4606,-5.3614,-5.4132,-5.4537,-5.4942,-5.3896,-5.399,-5.444,-5.3877,-5.3592,-5.3592,-5.3833,-5.4221,-5.4449,-5.3692,-5.3329,-5.305,-5.2124,-5.1706,-5.1486,-5.1376,-5.0934,-5.0599,-5.0487,-5.0344,-5.02,-5.02,-5.0688,-5.1095,-5.1095,-5.1611,-5.2018,-5.2135,-5.2244,-5.2443,-5.2794,-5.2685,-5.2178,-5.0874,-5.0086,-4.9542,-4.9542,-4.932,-4.8983,-4.8521,-4.8289,-4.7847,-4.7138,-4.6231,-4.5017,-4.3643,-4.2375,-4.1023,-3.9587,-3.8522,-3.7495,-3.6502,-3.517,-3.4047,-6.3031,-6.4007,-6.4843,-6.5379,-6.5768,-6.6207,-6.6867,-6.7341,-6.832,-7.0611,-7.1606,-7.2692,-7.4974,-7.7224,-7.881,-7.917,-8.0825,-8.2402,-8.3274,-8.3956,-8.4553,-8.4933,-8.5395,-8.5357,-8.4465,-8.3672,-8.2719,-8.1574,-8.0643,-7.9623,-7.8456,-7.6842,-7.498,-7.281,-7.0474,-6.8623,-6.7121,-6.6103,-6.5094,-6.4095,-6.2914,-6.1979,-6.1166,-6.0065,-5.9368,-5.8947,-5.8212,-5.7784,-5.7784,-5.7523,-5.6571,-5.5574,-5.5574,-5.4996,-5.3997,-5.4697,-5.5099,-5.5075,-5.4543,-5.4754,-5.5041,-5.3972,-5.3592,-5.3713,-5.4671,-5.4908,-5.4775,-5.4262,-5.3782,-5.3388,-5.2452,-5.2004,-5.1677,-5.1514,-5.1155,-5.0795,-5.0487,-5.0671,-5.0824,-5.0824,-5.1312,-5.1747,-5.1747,-5.2235,-5.2761,-5.2998,-5.3554,-5.4029,-5.4323,-5.3917,-5.3558,-5.3386,-5.2108,-5.1195,-5.1195,-5.0222,-4.9556,-4.9442,-4.8637,-4.8198,-4.8081,-4.6849,-4.583,-4.4898,-4.3406,-4.1947,-4.0499,-3.9016,-3.7834,-3.6868,-3.5788,-3.4797,-6.338,-6.4288,-6.4775,-6.5282,-6.5704,-6.611,-6.6655,-6.723,-6.8268,-7.0549,-7.147,-7.257,-7.4828,-7.7061,-7.8722,-7.9095,-8.0818,-8.2417,-8.3354,-8.4005,-8.4591,-8.5049,-8.5401,-8.5278,-8.4465,-8.3545,-8.2527,-8.1507,-8.0113,-7.8844,-7.7841,-7.6465,-7.4659,-7.2381,-7.0245,-6.8386,-6.6999,-6.5853,-6.4839,-6.3965,-6.262,-6.1816,-6.1302,-6.0065,-5.9368,-5.9114,-5.8212,-5.7927,-5.7901,-5.7138,-5.6406,-5.5688,-5.5606,-5.5125,-5.4671,-5.5232,-5.5393,-5.5519,-5.5049,-5.5014,-5.5074,-5.4828,-5.479,-5.479,-5.5144,-5.5613,-5.5678,-5.4685,-5.4203,-5.3919,-5.2561,-5.2004,-5.1787,-5.1706,-5.1376,-5.1239,-5.1263,-5.1199,-5.1271,-5.1394,-5.1936,-5.2371,-5.2371,-5.2978,-5.3599,-5.3718,-5.4176,-5.446,-5.4817,-5.4595,-5.4547,-5.4781,-5.3232,-5.2118,-5.1618,-5.1031,-5.0417,-4.9924,-4.9328,-4.8753,-4.8172,-4.7468,-4.6595,-4.5329,-4.4179,-4.2808,-4.1117,-3.9956,-3.8747,-3.7495,-3.6524,-3.5397,-6.3549,-6.4251,-6.4672,-6.5082,-6.551,-6.5985,-6.6536,-6.7061,-6.8108,-7.0397,-7.1331,-7.2444,-7.4676,-7.6958,-7.8632,-7.902,-8.0779,-8.2514,-8.3706,-8.4171,-8.4668,-8.5423,-8.5483,-8.5238,-8.4465,-8.3169,-8.198,-8.1165,-7.9686,-7.8248,-7.7075,-7.5823,-7.4118,-7.1983,-6.9921,-6.8298,-6.6999,-6.5601,-6.4612,-6.3965,-6.2487,-6.1681,-6.1438,-6.0204,-5.9508,-5.9228,-5.8355,-5.807,-5.8018,-5.7165,-5.6622,-5.6193,-5.5898,-5.5595,-5.5498,-5.5868,-5.6019,-5.5942,-5.5698,-5.5498,-5.5381,-5.5485,-5.5729,-5.5961,-5.5961,-5.6079,-5.5908,-5.4963,-5.439,-5.3794,-5.2556,-5.2004,-5.1896,-5.1787,-5.1736,-5.1655,-5.182,-5.1866,-5.1932,-5.2018,-5.2561,-5.2968,-5.3087,-5.3681,-5.4194,-5.4314,-5.458,-5.4817,-5.5144,-5.5144,-5.5261,-5.5496,-5.439,-5.3264,-5.2512,-5.1925,-5.1199,-5.0422,-5.0005,-4.9328,-4.8521,-4.8055,-4.7262,-4.5935,-4.4928,-4.3649,-4.2162,-4.0805,-3.9522,-3.8198,-3.7054,-3.5767,-6.3078,-6.3892,-6.4322,-6.4878,-6.5247,-6.5704,-6.6355,-6.6831,-6.7872,-7.0206,-7.12,-7.2321,-7.4638,-7.6958,-7.8632,-7.902,-8.0779,-8.2748,-8.4526,-8.4551,-8.4863,-8.6236,-8.5829,-8.5238,-8.4465,-8.2499,-8.0948,-8.0339,-7.9234,-7.7892,-7.6072,-7.4959,-7.3371,-7.1218,-6.9672,-6.8298,-6.6999,-6.5601,-6.4612,-6.3965,-6.2487,-6.1789,-6.1789,-6.0315,-5.9648,-5.9508,-5.8806,-5.8523,-5.847,-5.7895,-5.7598,-5.7267,-5.6686,-5.6372,-5.6132,-5.6915,-5.6794,-5.617,-5.6349,-5.6354,-5.6311,-5.5693,-5.6077,-5.688,-5.688,-5.6221,-5.5394,-5.507,-5.4115,-5.2923,-5.2358,-5.2221,-5.2113,-5.1896,-5.2044,-5.2183,-5.193,-5.2526,-5.3052,-5.2696,-5.3185,-5.3713,-5.4074,-5.4074,-5.4314,-5.4908,-5.5026,-5.5144,-5.5496,-5.5496,-5.5496,-5.5496,-5.5496,-5.5126,-5.4162,-5.2623,-5.1704,-5.1391,-5.0476,-4.967,-4.9125,-4.8521,-4.7703,-4.6755,-4.5604,-4.447,-4.3529,-4.1539,-4.0066,-3.9052,-3.7593,-3.5767,-6.2419,-6.3293,-6.3965,-6.4637,-6.5046,-6.5474,-6.6136,-6.6772,-6.7872,-7.0206,-7.1141,-7.2228,-7.4676,-7.6925,-7.8552,-7.9039,-8.08,-8.2717,-8.449,-8.4596,-8.4961,-8.6275,-8.5399,-8.4341,-8.3264,-8.2003,-8.0948,-8.0339,-7.8624,-7.7124,-7.6039,-7.4291,-7.2563,-7.0917,-6.9557,-6.8298,-6.6999,-6.5601,-6.4612,-6.3965,-6.2487,-6.1789,-6.1789,-6.0591,-5.9927,-5.9648,-5.9088,-5.871,-5.8289,-5.7709,-5.7267,-5.709,-5.6505,-5.6423,-5.6861,-5.6584,-5.6549,-5.6541,-5.6447,-5.6311,-5.6128,-5.6365,-5.6737,-5.722,-5.7445,-5.6897,-5.595,-5.488,-5.3877,-5.3001,-5.268,-5.267,-5.2792,-5.2543,-5.2799,-5.3275,-5.3323,-5.3364,-5.3543,-5.3599,-5.3577,-5.3713,-5.4074,-5.4341,-5.458,-5.4908,-5.5144,-5.5379,-5.5496,-5.5496,-5.5496,-5.5496,-5.5496,-5.5243,-5.451,-5.3744,-5.2959,-5.2126,-5.1313,-5.0558,-4.9697,-4.8868,-4.8172,-4.7468,-4.6458,-4.525,-4.3917,-4.2853,-4.1098,-3.8687,-3.6982,-3.5541,-6.1821,-6.2733,-6.3366,-6.4358,-6.4843,-6.5278,-6.5985,-6.6595,-6.7668,-7.0048,-7.1032,-7.2177,-7.456,-7.6824,-7.8535,-7.8998,-8.0753,-8.2689,-8.4453,-8.4584,-8.487,-8.5861,-8.4957,-8.387,-8.2708,-8.1605,-8.0692,-7.9914,-7.8067,-7.6597,-7.5637,-7.3928,-7.223,-7.0726,-6.9588,-6.8298,-6.6999,-6.5601,-6.4612,-6.3965,-6.2487,-6.1789,-6.1789,-6.0728,-6.0039,-5.9761,-5.9269,-5.8673,0.0,-5.7456,-5.733,-5.7329,-5.6739,-5.6915,-5.7478,-5.7102,-5.6996,-5.6996,-5.6886,-5.6617,-5.6537,-5.6993,-5.7158,-5.7231,-5.7218,-5.6786,-5.5874,-5.4487,-5.3743,-5.3271,-5.3074,-5.3229,-5.3241,-5.3135,-5.3557,-5.4005,-5.4051,-5.4068,-5.3992,-5.4112,-5.3954,-5.3833,-5.4221,-5.458,-5.4817,-5.5144,-5.5379,-5.5496,-5.5496,-5.5613,-5.5729,-5.5729,-5.5729,-5.5676,-5.5193,-5.4594,-5.3915,-5.302,-5.2094,-5.1199,-5.0363,-4.932,-4.8521,-4.7938,-4.6993,-4.5885,-4.4694,-4.3381,-4.1399,-3.8687,-3.7299,-3.5831,0.0,-6.2027,-6.2741,-6.4007,-6.4637,-6.5114,-6.5796,-6.6355,0.0,-6.9761,-7.0796,-7.2041,-7.444,-7.6794,-7.8479,-7.8998,-8.0742,-8.2647,-8.4453,-8.465,-8.4804,-8.5246,-8.4597,-8.3726,-8.2708,-8.1401,-8.0179,-7.924,-7.765,-7.6241,-7.4902,-7.3595,-7.223,-7.0726,-6.9588,-6.8298,-6.6999,-6.5601,-6.4612,-6.3965,-6.2487,-6.1789,-6.1789,-6.0728,-6.015,-6.0096,-5.912,-5.8689,-5.8529,-5.7437,-5.7488,-5.7906,-5.752,-5.7661,-5.8186,-5.8171,-5.78,-5.7422,-5.742,-5.7369,-5.7416,-5.7416,-5.7313,-5.7104,-5.6485,-5.6035,-5.5557,-5.3954,-5.3559,-5.3627,-5.356,-5.368,-5.377,-5.3698,-5.4203,-5.4538,-5.4306,-5.4429,-5.446,-5.4194,-5.4074,-5.4194,-5.4607,-5.4817,-5.5144,-5.5496,-5.5496,-5.5496,-5.5496,-5.5729,-5.599,-5.599,-5.6193,-5.6308,-5.5961,-5.5221,-5.451,-5.4134,-5.2792,-5.1673,-5.102,-4.9818,-4.8806,-4.8172,-4.7231,-4.6396,-4.5696,-4.3303,-4.1076,-3.9187,-3.8182,-3.6809,-5.9194,0.0,-6.2301,-6.3466,-6.4145,-6.4671,0.0,-6.5985,-6.7207,-6.9577,-7.0745,-7.2041,-7.4396,-7.6759,-7.845,-7.8889,-8.0668,-8.2635,-8.4452,-8.5439,-8.5815,-8.5361,-8.4597,-8.3726,-8.2708,-8.1401,-8.0179,-7.8963,-7.744,-7.5926,-7.4671,-7.3285,-7.1906,-7.0356,-6.9441,-6.8298,-6.6999,-6.5601,-6.4612,-6.3965,-6.2487,-6.1789,-6.1789,-6.1029,-6.0237,-5.9505,-5.9207,-5.8644,-5.7785,-5.7755,-5.777,-5.7751,-5.7871,-5.802,-5.8143,-5.765,-5.7752,-5.7945,-5.754,-5.7674,-5.7974,-5.8335,-5.8001,-5.7458,-5.6776,-5.5925,-5.4972,-5.4048,-5.3984,-5.4206,-5.3675,-5.4337,-5.4996,-5.4458,-5.485,-5.5299,-5.5182,-5.4825,-5.4607,-5.446,-5.4341,-5.4194,-5.4607,-5.4817,-5.5144,-5.5496,-5.5496,-5.5496,-5.5496,-5.5729,-5.599,-5.599,-5.6193,-5.6308,-5.5961,-5.5848,-5.5334,-5.451,-5.3712,-5.2784,-5.1618,-5.0424,-4.9346,-4.8521,-4.6874,-4.5671,-4.5037,-4.3033,-4.1545,-4.057,-3.8941,-3.7698,-5.8117,-5.9768,-6.1415,-6.2763,-6.3687,-6.4463,-6.5078,-6.576,-6.7029,-6.9409,-7.0554,-7.1818,-7.4233,-7.6577,-7.8292,-7.8805,-8.0612,-8.258,-8.4356,-8.5641,-8.6114,-8.5399,-8.4551,-8.3618,-8.2548,-8.1263,-7.9952,-7.8718,-7.7263,-7.5798,-7.4572,-7.3044,-7.158,-7.0212,-6.9209,-6.8059,-6.6753,-6.5601,-6.4612,-6.3965,-6.262,-6.1813,-6.1402,-6.0864,-6.0023,-5.9184,-5.9021,-5.8666,-5.8042,-5.8004,-5.8219,-5.8424,-5.8272,-5.8435,-5.8653,-5.7957,-5.8002,-5.8203,-5.7873,-5.7974,-5.8445,-5.8773,-5.8226,-5.7421,-5.7391,-5.639,-5.5142,-5.458,-5.4439,-5.4554,-5.4448,-5.4994,-5.5481,-5.5049,-5.5271,-5.5496,-5.5496,-5.5172,-5.4817,-5.4817,-5.4671,-5.4552,-5.4699,-5.5026,-5.5261,-5.5496,-5.5496,-5.5496,-5.5496,-5.5845,-5.6193,-5.6193,-5.6509,-5.6623,-5.6193,-5.6193,-5.582,-5.5018,-5.4157,-5.3337,-5.2674,-5.0972,-4.9361,-4.7938,-4.6874,-4.5793,-4.5061,-4.3517,-4.2389,-4.1535,-3.9885,-3.8506,-5.7442,-5.8863,-6.0502,-6.1998,-6.3231,-6.4252,-6.4944,-6.5633,-6.6848,-6.9274,-7.0381,-7.1626,-7.4104,-7.6427,-7.8199,-7.8781,-8.0825,-8.2858,-8.431,-8.5599,-8.6114,-8.5399,-8.4458,-8.347,-8.2386,-8.1123,-7.9834,-7.8587,-7.7175,-7.5798,-7.4473,-7.294,-7.1438,-7.0098,-6.8976,-6.7789,-6.6382,-6.5504,-6.4612,-6.3965,-6.2802,-6.183,-6.0905,-6.0529,-5.9773,-5.8962,-5.8811,-5.8667,-5.8659,-5.8419,-5.8648,-5.9008,-5.8597,-5.8625,-5.8942,-5.8581,-5.8346,-5.8399,-5.8401,-5.8664,-5.8912,-5.9099,-5.8368,-5.7468,-5.7932,-5.7063,-5.5797,-5.5389,-5.5099,-5.4931,-5.5364,-5.5594,-5.5567,-5.55,-5.5496,-5.5496,-5.5496,-5.5261,-5.5026,-5.5026,-5.5026,-5.5054,-5.5165,-5.5401,-5.5664,-5.5777,-5.5777,-5.5777,-5.5777,-5.6361,-5.668,-5.668,-5.7166,-5.7222,-5.6537,-5.6451,-5.6193,-5.5496,-5.4552,-5.3751,-5.3523,-5.1323,-4.9153,-4.7452,-4.7019,-4.6276,-4.5331,-4.4323,-4.3215,-4.2172,-4.077,-3.9406,-5.6768,-5.823,-5.9977,-6.1367,-6.2867,-6.4074,-6.4637,-6.5409,-6.6665,-6.9018,-7.0219,-7.1578,-7.3846,-7.6312,-7.8168,-7.8708,-8.1894,-8.4326,-8.4492,-8.5599,-8.6114,-8.5399,-8.4458,-8.347,-8.2386,-8.1123,-7.9834,-7.8266,-7.7085,-7.5703,-7.4273,-7.2729,-7.1328,-6.9839,-6.8858,-6.7668,-6.6132,-6.5378,-6.4612,-6.3965,-6.2352,-6.1518,-6.1274,-6.0512,-5.9669,-5.9118,-5.9008,-5.8934,-5.8717,-5.9011,-5.8896,-5.8758,-5.928,-5.9068,-5.8436,-5.8577,-5.862,-5.8703,-5.9129,-5.9529,-5.9773,-5.9529,-5.8911,-5.8339,-5.8112,-5.7362,-5.6538,-5.678,-5.6632,-5.6252,-5.5676,-5.5908,-5.6165,-5.5584,-5.5496,-5.5496,-5.5496,-5.5261,-5.5026,-5.5026,-5.5026,-5.5193,-5.575,-5.6045,-5.6451,-5.7013,-5.7097,-5.7097,-5.7097,-5.7667,-5.8022,-5.8022,-5.8119,-5.7916,-5.7339,-5.6737,-5.6193,-5.5496,-5.506,-5.4165,-5.2934,-5.1062,-4.9455,-4.8402,-4.7342,-4.6276,-4.5331,-4.4323,-4.3404,-4.2706,-4.1287,-4.0212,-5.6323,-5.7773,-5.9443,-6.0401,-6.2112,-6.3747,-6.4287,-6.5396,-6.6952,-6.885,-7.033,-7.2049,-7.4431,-7.6538,-7.8436,-8.019,-8.2864,-8.4658,-8.4513,-8.5599,-8.6114,-8.5399,-8.4458,-8.3415,-8.226,-8.1053,-7.9757,-7.8047,-7.6996,-7.5703,-7.4206,-7.2591,-7.1218,-6.9984,-6.8858,-6.7397,-6.5725,-6.5074,-6.4318,-6.3422,-6.2123,-6.1155,-6.0431,-6.0023,-5.945,-5.8868,-5.9122,-5.9207,-5.9273,-5.9456,-5.9508,-5.9525,-5.9188,-5.9043,-5.883,-5.8896,-5.915,-5.9452,-5.9667,-5.988,-6.0016,-5.9773,-5.9214,-5.8655,-5.8774,-5.8171,-5.7464,-5.7685,-5.7298,-5.6683,-5.6135,-5.6194,-5.6279,-5.5613,-5.5496,-5.5496,-5.5496,-5.5379,-5.5261,-5.5261,-5.5541,-5.5849,-5.6157,-5.6584,-5.7041,-5.735,-5.7378,-5.7378,-5.7378,-5.7979,-5.8308,-5.8308,-5.8667,-5.861,-5.788,-5.7308,-5.6446,-5.5289,-5.4936,-5.4157,-5.2815,-5.1588,-5.0287,-4.8677,-4.794,-4.6819,-4.5331,-4.4693,-4.3927,-4.3075,-4.1934,-4.0906,-5.5927,-5.7456,-5.9059,-5.9544,-6.1461,-6.3343,-6.3967,-6.5406,-6.7059,-6.8703,-7.0454,-7.2399,-7.4948,-7.6958,-7.9054,-8.1504,-8.3428,-8.4619,-8.4513,-8.5599,-8.6114,-8.5399,-8.4458,-8.3415,-8.2095,-8.1053,-7.9679,-7.7875,-7.6906,-7.5703,-7.4206,-7.2485,-7.1218,-7.0212,-6.8705,-6.7095,-6.5618,-6.471,-6.3756,-6.2892,-6.1883,-6.0935,-5.9977,-5.9837,-5.9529,-5.908,-5.9329,-5.9617,-5.9786,-5.9812,-5.9914,-5.9888,-5.924,-5.9221,-5.9377,-5.9308,-5.9667,-6.0092,-6.0092,-6.0092,-6.0197,-6.0092,-5.9546,-5.9032,-5.9379,-5.8954,-5.8334,-5.8187,-5.7621,-5.7027,-5.6622,-5.6394,-5.6308,-5.5729,-5.5496,-5.5496,-5.5496,-5.5608,-5.5721,-5.5721,-5.6226,-5.6704,-5.6845,-5.7266,-5.7659,-5.78,-5.78,-5.78,-5.78,-5.8285,-5.8646,-5.8765,-5.9126,-5.8982,-5.8218,-5.7501,-5.6581,-5.5277,-5.4782,-5.4121,-5.3033,-5.2178,-5.0975,-4.9187,-4.8446,-4.7268,-4.5503,-4.4988,-4.4299,-4.3326,-4.2316,-4.1293,-5.5766,-5.7296,-5.898,-5.9185,-6.112,-6.3124,-6.3895,-6.5337,-6.6927,-6.8553,-7.0245,-7.2203,-7.466,-7.7607,-8.0126,-8.1563,-8.338,-8.4589,-8.4531,-8.5599,-8.6114,-8.5399,-8.4458,-8.3415,-8.2095,-8.1053,-7.9643,-7.7961,-7.6906,-7.5703,-7.4206,-7.2729,-7.1438,-7.0243,-6.8359,-6.6998,-6.6011,-6.4188,-6.3047,-6.2668,-6.1633,-6.104,-6.0955,-6.0385,-6.01,-6.0043,-6.0071,-6.0094,-6.0146,-6.0206,-5.9859,-5.9345,-5.9785,-5.9945,-5.9971,-5.991,-6.0092,-6.0377,-6.0377,-6.0481,-6.069,-6.0481,-6.0167,-5.9819,-5.9636,-5.9285,-5.8931,-5.8305,-5.8166,-5.7915,-5.7078,-5.6652,-5.6308,-5.6077,-5.5729,-5.5496,-5.5496,-5.5945,-5.6367,-5.6367,-5.6873,-5.7491,-5.8053,-5.8193,-5.8446,-5.9008,-5.9093,-5.9093,-5.9093,-5.9341,-5.9711,-6.0051,-5.9537,-5.8817,-5.786,-5.7027,-5.6304,-5.5918,-5.515,-5.4433,-5.4019,-5.2541,-5.1467,-5.0629,-4.898,-4.7445,-4.6019,-4.5158,-4.4299,-4.3326,-4.2316,-4.1293,-5.6075,-5.7331,-5.8789,-5.9671,-6.1144,-6.2591,-6.3565,-6.5443,-6.7295,-6.8435,-7.0506,-7.296,-7.6035,-7.8807,-8.0873,-8.1659,-8.3419,-8.4602,-8.4474,-8.5574,-8.6134,-8.5399,-8.4458,-8.347,-8.2323,-8.1123,-7.9834,-7.8301,-7.7085,-7.5798,-7.4373,-7.2835,-7.1356,-6.9951,-6.8312,-6.663,-6.5109,-6.3921,-6.3,-6.2253,-6.1264,-6.0782,-6.0537,-6.0279,-6.0209,-6.0196,-6.0196,-6.0177,-6.012,-6.0196,-5.9978,-5.9836,-5.9964,-6.0092,-6.0302,-6.0302,-6.0377,-6.069,-6.069,-6.069,-6.0794,-6.069,-6.0407,-6.0016,-5.988,-5.9452,-5.8991,-5.8305,-5.8195,-5.7974,-5.7107,-5.6652,-5.6279,-5.6077,-5.5729,-5.5608,-5.6002,-5.6254,-5.6535,-5.6929,-5.7519,-5.8025,-5.825,-5.8615,-5.8952,-5.9177,-5.9205,-5.9205,-5.9205,-5.9482,-5.973,-5.9825,-5.9626,-5.9229,-5.8483,-5.7837,-5.7024,-5.5788,-5.5058,-5.446,-5.4074,-5.289,-5.1865,-5.1128,-4.9826,-4.8277,-4.6489,-4.5896,-4.486,-4.3326,-4.242,-4.1421,-5.615,-5.7196,-5.8445,-5.9794,-6.0979,-6.2223,-6.3501,-6.5468,-6.7375,-6.8249,-7.1149,-7.4316,-7.6986,-7.9412,-8.1207,-8.1698,-8.3401,-8.4608,-8.4429,-8.5582,-8.6219,-8.5475,-8.4597,-8.358,-8.2449,-8.1193,-7.9911,-7.8587,-7.7263,-7.5926,-7.4572,-7.2816,-7.1328,-6.9903,-6.7982,-6.6308,-6.4964,-6.3944,-6.303,-6.2321,-6.1523,-6.1044,-6.0774,-6.0572,-6.0493,-6.0413,-6.0326,-6.0206,-6.0126,-6.0156,-6.0295,-6.0378,-6.038,-6.0481,-6.0794,-6.0794,-6.0794,-6.0897,-6.0897,-6.0897,-6.0794,-6.0794,-6.0407,-6.0016,-6.0016,-5.956,-5.8991,-5.8305,-5.8195,-5.7974,-5.722,-5.6737,-5.6394,-5.6193,-5.5987,-5.5917,-5.6339,-5.6732,-5.7154,-5.7575,-5.8165,-5.8587,-5.8587,-5.8952,-5.9205,-5.9205,-5.9205,-5.9205,-5.9205,-5.9358,-5.9606,-5.9606,-5.9606,-5.9436,-5.9012,-5.8541,-5.7696,-5.6126,-5.5325,-5.4534,-5.3954,-5.3105,-5.2156,-5.1417,-5.0343,-4.8886,-4.7009,-4.6389,-4.5275,-4.3561,-4.2742,-4.1527,-5.5898,-5.686,-5.791,-5.9333,-6.0687,-6.2152,-6.3767,-6.5446,-6.6989,-6.7919,-7.2248,-7.6206,-7.721,-7.9312,-8.107,-8.162,-8.3332,-8.457,-8.4518,-8.5699,-8.6339,-8.5692,-8.4823,-8.3847,-8.2597,-8.1328,-7.9992,-7.8587,-7.7475,-7.6114,-7.4572,-7.2769,-7.1237,-7.009,-6.7637,-6.6177,-6.5903,-6.3924,-6.3019,-6.3019,-6.2438,-6.2087,-6.2087,-6.1438,-6.1143,-6.1084,-6.0778,-6.0462,-6.0086,-6.0385,-6.0669,-6.0794,-6.1103,-6.141,-6.1582,-6.1582,-6.141,-6.1206,-6.1206,-6.1,-6.0794,-6.0794,-6.0407,-6.0016,-6.0016,-5.956,-5.8991,-5.8305,-5.8195,-5.8085,-5.7416,-5.6851,-5.6423,-5.6423,-5.6443,-5.6423,-5.6423,-5.7407,-5.8306,-5.8306,-5.8812,-5.9205,-5.9205,-5.9205,-5.9205,-5.9205,-5.9205,-5.9205,-5.9205,-5.9205,-5.9205,-5.9205,-5.9482,-5.9606,-5.9205,-5.8643,-5.8059,-5.7287,-5.6182,-5.4974,-5.3619,-5.2983,-5.2342,-5.1596,-5.0426,-4.9141,-4.7868,-4.6634,-4.5469,-4.4078,-4.2928,-4.1527,-5.6253,-5.7162,-5.804,-5.9924,-6.097,-6.191,-6.3532,-6.5255,-6.7269,-6.9908,-7.3303,-7.6042,-7.6866,-7.9019,-8.0854,-8.1475,-8.3282,-8.4603,-8.4564,-8.5735,-8.6389,-8.5757,-8.4953,-8.4003,-8.2935,-8.1769,-8.055,-7.9479,-7.7473,-7.5698,-7.4545,-7.2482,-7.0577,-6.8946,-6.7571,-6.6402,-6.5165,-6.4392,-6.3932,-6.3736,-6.3026,-6.2331,-6.1727,-6.1549,-6.1213,-6.0655,-6.0556,-6.0434,-6.0365,-6.0788,-6.1186,-6.141,-6.1512,-6.1512,-6.1582,-6.1582,-6.1582,-6.1512,-6.1308,-6.1134,-6.1,-6.0897,-6.0407,-6.0016,-6.0016,-5.956,-5.8991,-5.8305,-5.8195,-5.8085,-5.7416,-5.7196,-5.708,-5.708,-5.6755,-5.6648,-5.7547,-5.8025,-5.8446,-5.8868,-5.9093,-5.9205,-5.9205,-5.9205,-5.9205,-5.9205,-5.9205,-5.9205,-5.9205,-5.9205,-5.9205,-5.9205,-5.9329,-5.9329,-5.9205,-5.9064,-5.8507,-5.7314,-5.6541,-5.5456,-5.3874,-5.3075,-5.2342,-5.1596,-5.0813,-4.9647,-4.8125,-4.7548,-4.6415,-4.4642,-4.3461,-4.2176,-5.6303,-5.7066,-5.7818,-5.9899,-6.0769,-6.1732,-6.3905,-6.5855,-6.8046,-7.0815,-7.3575,-7.5782,-7.6639,-7.8825,-8.0696,-8.1296,-8.2898,-8.4152,-8.4563,-8.5519,-8.6139,-8.5915,-8.5202,-8.4303,-8.334,-8.2159,-8.0837,-7.9558,-7.7556,-7.5721,-7.4238,-7.2208,-7.0468,-6.893,-6.7737,-6.6569,-6.5515,-6.5046,-6.4482,-6.4095,-6.3476,-6.2768,-6.178,-6.1477,-6.1167,-6.0819,-6.0761,-6.0849,-6.0897,-6.1308,-6.1613,-6.1815,-6.1916,-6.1916,-6.1916,-6.1916,-6.1815,-6.1714,-6.141,-6.1308,-6.1134,-6.0897,-6.0407,-6.0016,-6.0016,-5.956,-5.8991,-5.8305,-5.8195,-5.8143,-5.7736,-5.7542,-5.7394,-5.7394,-5.7293,-5.7378,-5.8137,-5.8502,-5.8783,-5.9149,-5.9205,-5.9205,-5.9205,-5.9205,-5.9289,-5.9542,-5.9795,-5.9964,-5.9964,-5.9739,-5.957,-5.957,-5.9345,-5.9205,-5.9205,-5.9205,-5.8815,-5.7673,-5.7066,-5.5963,-5.4244,-5.3165,-5.2218,-5.1471,-5.0842,-4.9926,-4.8471,-4.7967,-4.6924,-4.5207,-4.3993,-4.2564,-5.5954,-5.6686,-5.7387,-5.9469,-6.0443,-6.175,-6.4529,-6.685,-6.8964,-7.0923,-7.324,-7.5329,-7.645,-7.8622,-8.0493,-8.1169,-8.234,-8.3488,-8.4375,-8.5078,-8.5621,-8.5959,-8.5282,-8.4499,-8.3554,-8.2375,-8.0854,-7.9032,-7.7585,-7.5948,-7.3855,-7.2102,-7.0726,-6.9777,-6.8049,-6.6974,-6.6628,-6.5745,-6.494,-6.4226,-6.3873,-6.3193,-6.2333,-6.1355,-6.1111,-6.1475,-6.1382,-6.141,-6.1683,-6.2016,-6.2116,-6.2116,-6.2315,-6.2446,-6.2414,-6.2446,-6.2216,-6.2016,-6.1683,-6.141,-6.1206,-6.0897,-6.0407,-6.0016,-6.0016,-5.956,-5.8991,-5.8305,-5.8254,-5.832,-5.8259,-5.7916,-5.7565,-5.7565,-5.7945,-5.8334,-5.8362,-5.8812,-5.9205,-5.9205,-5.9205,-5.9233,-5.9289,-5.9289,-5.9514,-6.0132,-6.0722,-6.1088,-6.1088,-6.0582,-6.0188,-6.0132,-5.9626,-5.9289,-5.9205,-5.9205,-5.8955,-5.8198,-5.7618,-5.6412,-5.4607,-5.3308,-5.2173,-5.112,-5.0741,-4.9976,-4.86,-4.8059,-4.7167,-4.5724,-4.4526,-4.3083,-5.5809,-5.6631,-5.7387,-5.924,-6.1541,-6.3533,-6.488,-6.6996,-6.8986,-7.0336,-7.2907,-7.5178,-7.6056,-7.8321,-8.0314,-8.1003,-8.2259,-8.3234,-8.362,-8.4255,-8.4608,-8.4403,-8.3835,-8.3091,-8.2134,-8.1139,-8.0084,-7.8777,-7.697,-7.5299,-7.4032,-7.2267,-7.0683,-6.9772,-6.8764,-6.7641,-6.6384,-6.594,-6.5281,-6.4349,-6.3712,-6.3406,-6.3123,-6.2301,-6.1815,-6.1597,-6.1947,-6.2184,-6.2284,-6.271,-6.2905,-6.2905,-6.2808,-6.271,-6.271,-6.2513,-6.2315,-6.2216,-6.1815,-6.1582,-6.141,-6.1,-6.0407,-6.0016,-6.0016,-5.956,-5.8991,-5.8305,-5.8578,-5.8908,-5.8376,-5.8579,-5.8851,-5.8851,-5.8568,-5.8446,-5.8924,-5.9121,-5.9205,-5.9205,-5.9205,-5.9373,-5.9851,-5.9935,-6.016,-6.0807,-6.1003,-6.1088,-6.1088,-6.0975,-6.0694,-6.0188,-6.002,-5.9739,-5.9261,-5.9205,-5.8955,-5.8198,-5.7618,-5.6604,-5.5195,-5.3947,-5.247,-5.0741,-5.0588,-4.9976,-4.86,-4.8477,-4.7724,-4.6241,-4.5036,-4.3713,-5.5543,-5.6423,-5.7387,-5.9502,-6.189,-6.3969,-6.4708,-6.6824,-6.8822,-6.9849,-7.2076,-7.4308,-7.5708,-7.7655,-7.951,-8.069,-8.1693,-8.2575,-8.321,-8.3648,-8.392,-8.4026,-8.3538,-8.2874,-8.2089,-8.1162,-8.0008,-7.8581,-7.7055,-7.5519,-7.4101,-7.2605,-7.1444,-7.0448,-6.9273,-6.8079,-6.7132,-6.6181,-6.5368,-6.4434,-6.3984,-6.3666,-6.3249,-6.2751,-6.233,-6.2184,-6.2612,-6.2808,-6.2808,-6.3099,-6.3228,-6.3228,-6.2905,-6.2808,-6.2808,-6.2513,-6.2446,-6.2315,-6.1815,-6.1582,-6.1481,-6.1,-6.0407,-6.0016,-6.0016,-5.956,-5.905,-5.8719,-5.8932,-5.9232,-5.9161,-5.9331,-5.9429,-5.9622,-5.922,-5.884,-5.9149,-5.9205,-5.9205,-5.9205,-5.9458,-5.9767,-6.0076,-6.0638,-6.1144,-6.1481,-6.179,-6.1987,-6.1987,-6.1706,-6.1397,-6.1059,-6.0497,-5.9992,-5.9683,-5.9402,-5.8955,-5.8198,-5.7894,-5.6959,-5.5382,-5.4666,-5.3286,-5.1024,-5.0742,-4.9976,-4.86,-4.86,-4.7786,-4.6405,-4.5453,-4.4097,-5.5207,-5.6335,-5.7634,-5.9707,-6.1791,-6.35,-6.4267,-6.6325,-6.8301,-6.927,-7.1151,-7.325,-7.5292,-7.693,-7.8561,-8.0272,-8.1076,-8.1796,-8.283,-8.3046,-8.3284,-8.3765,-8.3308,-8.2765,-8.2222,-8.1301,-8.006,-7.8333,-7.7341,-7.6016,-7.4216,-7.3311,-7.2364,-7.1274,-6.9678,-6.8506,-6.7805,-6.6355,-6.532,-6.4705,-6.4417,-6.4031,-6.3484,-6.3196,-6.3002,-6.2905,-6.3099,-6.3228,-6.3325,-6.3325,-6.3325,-6.3325,-6.3002,-6.2905,-6.2808,-6.2513,-6.2414,-6.2315,-6.1815,-6.1582,-6.1481,-6.1,-6.0407,-6.0016,-6.0016,-5.965,-5.9289,-5.9162,-5.9374,-5.9673,-6.0033,-6.0027,-5.9899,-6.0173,-5.9702,-5.9205,-5.9205,-5.9289,-5.9373,-5.9373,-5.9964,-6.0469,-6.0469,-6.1425,-6.2183,-6.2183,-6.2605,-6.2942,-6.2942,-6.2492,-6.2127,-6.2015,-6.1088,-6.0357,-6.016,-5.9529,-5.8941,-5.8198,-5.8198,-5.7341,-5.5542,-5.5306,-5.4129,-5.1793,-5.1101,-5.0077,-4.86,-4.86,-4.7762,-4.6405,-4.5595,-4.4481,-5.4345,-5.6125,-5.8125,-5.9402,-6.0913,-6.2411,-6.3718,-6.5318,-6.7099,-6.8682,-7.0839,-7.2962,-7.4764,-7.6588,-7.8338,-8.0087,-8.0876,-8.1458,-8.192,-8.2137,-8.2261,-8.2221,-8.1892,-8.1412,-8.0831,-8.0106,-7.9203,-7.794,-7.7144,-7.6172,-7.5009,-7.4181,-7.3032,-7.1503,-7.0425,-6.9043,-6.7324,-6.6502,-6.5739,-6.5016,-6.4741,-6.4616,-6.4518,-6.4485,-6.3959,-6.3131,-6.3421,-6.3517,-6.358,-6.3802,-6.3929,-6.3929,-6.3612,-6.3293,-6.3131,-6.2808,-6.2612,-6.2315,-6.1815,-6.1582,-6.1481,-6.1,-6.0407,-6.0016,-6.0016,-5.9951,-5.9857,-5.931,-6.0023,-6.0705,-6.0266,-6.0374,-6.0445,-6.0287,-5.9948,-5.9606,-5.9205,-5.9626,-6.002,-6.002,-6.0947,-6.1762,-6.1762,-6.2352,-6.2802,-6.2802,-6.2886,-6.2942,-6.2942,-6.2858,-6.2605,-6.2071,-6.1874,-6.1312,-6.0216,-5.9794,-5.9134,-5.8226,-5.7944,-5.7248,-5.5998,-5.5519,-5.4524,-5.3053,-5.1895,-5.0482,-4.86,-4.8313,-4.7497,-4.6405,-4.5347,-4.4228,-5.4988,-5.6588,-5.8165,-5.9434,-6.0729,-6.2193,-6.3601,-6.5169,-6.6804,-6.8454,-6.9954,-7.1596,-7.3532,-7.5493,-7.7249,-7.8929,-8.0217,-8.113,-8.1563,-8.1828,-8.198,-8.1954,-8.1714,-8.1381,-8.0935,-8.0276,-7.9463,-7.8602,-7.7715,-7.6846,-7.5859,-7.4618,-7.337,-7.2196,-7.0471,-6.905,-6.798,-6.6711,-6.5724,-6.5066,-6.4976,-6.4885,-6.4702,-6.4702,-6.4426,-6.4053,-6.4053,-6.3959,-6.3959,-6.3991,-6.4024,-6.4024,-6.3707,-6.3421,-6.3131,-6.2905,-6.2612,-6.2315,-6.1815,-6.1582,-6.1481,-6.1,-6.0407,-6.0016,-6.0016,-6.0012,-6.0036,-5.9753,-6.0406,-6.0999,-6.079,-6.0841,-6.0831,-6.0316,-6.0328,-6.0336,-5.9865,-5.9935,-6.0329,-6.1059,-6.165,-6.2127,-6.2464,-6.2745,-6.2942,-6.2942,-6.2942,-6.2942,-6.2942,-6.2942,-6.283,-6.2549,-6.2212,-6.179,-6.1228,-6.0142,-5.9384,-5.8723,-5.8136,-5.7174,-5.6132,-5.5865,-5.4919,-5.3284,-5.2049,-5.071,-4.9018,-4.8304,-4.7497,-4.6405,-4.5347,-4.4228,-5.5543,-5.6804,-5.7852,-5.9226,-6.0424,-6.1673,-6.3082,-6.4653,-6.6211,-6.7757,-6.8943,-7.0238,-7.2083,-7.4028,-7.6005,-7.793,-7.9362,-8.0523,-8.1306,-8.1664,-8.1906,-8.1992,-8.1859,-8.1648,-8.1344,-8.0683,-8.0048,-7.932,-7.8484,-7.7467,-7.6428,-7.4961,-7.3618,-7.2453,-7.0531,-6.9198,-6.8542,-6.7049,-6.6009,-6.5425,-6.5425,-6.5246,-6.5033,-6.4976,-6.4976,-6.4976,-6.461,-6.4333,-6.4333,-6.4179,-6.3991,-6.4024,-6.3802,-6.3517,-6.3228,-6.3002,-6.2612,-6.2216,-6.1784,-6.1613,-6.141,-6.0897,-6.0407,-6.0047,-6.0092,-6.0283,-6.0365,-6.0314,-6.0878,-6.1263,-6.1197,-6.1193,-6.1102,-6.0516,-6.0765,-6.0972,-6.0653,-6.061,-6.0947,-6.2015,-6.224,-6.238,-6.2858,-6.2942,-6.2942,-6.2942,-6.2942,-6.2942,-6.2942,-6.2942,-6.2942,-6.2942,-6.2521,-6.2183,-6.2015,-6.0756,-5.9672,-5.911,-5.8282,-5.7336,-5.6132,-5.6132,-5.5261,-5.3515,-5.2408,-5.1089,-4.9338,-4.8548,-4.7484,-4.6405,-4.521,-4.409,-5.5093,-5.601,-5.6981,-5.8652,-5.9596,-6.0402,-6.164,-6.3166,-6.4768,-6.6097,-6.7842,-6.9344,-7.0374,-7.2351,-7.4754,-7.734,-7.8424,-7.9504,-8.0926,-8.1462,-8.1778,-8.1984,-8.1987,-8.1867,-8.16,-8.1182,-8.063,-7.9844,-7.9048,-7.7936,-7.6295,-7.5361,-7.392,-7.1693,-7.0799,-6.9742,-6.8388,-6.7312,-6.6643,-6.6473,-6.6182,-6.6009,-6.6009,-6.5867,-6.5692,-6.5692,-6.4976,-6.4518,-6.4333,-6.4333,-6.4146,-6.4024,-6.4024,-6.3612,-6.3228,-6.3228,-6.271,-6.2016,-6.1683,-6.141,-6.1103,-6.0586,-6.0197,-6.0001,-6.0391,-6.0726,-6.1081,-6.1023,-6.1556,-6.1939,-6.1313,-6.1193,-6.1218,-6.106,-6.1079,-6.12,-6.1779,-6.1931,-6.2099,-6.2745,-6.2886,-6.2886,-6.2914,-6.2942,-6.2942,-6.2942,-6.2942,-6.2942,-6.2942,-6.2942,-6.2942,-6.2942,-6.2886,-6.2633,-6.2071,-6.1247,-6.0325,-5.9165,-5.8434,-5.7509,-5.6132,-5.6132,-5.5445,-5.3945,-5.3356,-5.1873,-4.9338,-4.867,-4.7575,-4.6405,-4.4937,-4.3836,-5.5124,-5.592,-5.6772,-5.8563,-5.9419,-6.0141,-6.1521,-6.2931,-6.4503,-6.5982,-6.7688,-6.9083,-6.992,-7.191,-7.3881,-7.5506,-7.6806,-7.8176,-7.978,-8.0345,-8.0941,-8.1816,-8.2021,-8.1981,-8.1817,-8.148,-8.0772,-7.9624,-7.8798,-7.7727,-7.6212,-7.4816,-7.3551,-7.2299,-7.1085,-6.9809,-6.8628,-6.7925,-6.7441,-6.7112,-6.6694,-6.6473,-6.6388,-6.6095,-6.5955,-6.578,-6.5514,-6.5156,-6.4826,-6.4426,-6.424,-6.4146,-6.4085,-6.3707,-6.3228,-6.3228,-6.271,-6.2016,-6.1683,-6.141,-6.1103,-6.0586,-6.0471,-6.0546,-6.0542,-6.0946,-6.1422,-6.12,-6.1468,-6.1732,-6.1313,-6.1483,-6.1913,-6.2205,-6.1955,-6.1824,-6.2408,-6.2605,-6.2661,-6.2886,-6.2942,-6.2942,-6.2942,-6.2942,-6.2942,-6.2942,-6.2942,-6.2942,-6.2942,-6.2942,-6.2942,-6.2942,-6.2942,-6.283,-6.2633,-6.1817,-6.1004,-6.0297,-5.9133,-5.796,-5.6691,-5.6318,-5.5445,-5.3997,-5.3792,-5.2633,-5.037,-4.9034,-4.7766,-4.6899,-4.5096,-4.3836,-5.4722,-5.5552,-5.6441,-5.8243,-5.9081,-5.9902,-6.1054,-6.2396,-6.3885,-6.5284,-6.6917,-6.8392,-6.949,-7.1072,-7.2656,-7.4162,-7.5507,-7.6928,-7.8594,-7.9191,-7.9858,-8.0824,-8.1141,-8.117,-8.108,-8.0837,-8.0275,-7.9215,-7.8446,-7.7414,-7.6016,-7.464,-7.3428,-7.2291,-7.1063,-6.9955,-6.9008,-6.8551,-6.8083,-6.7604,-6.7312,-6.698,-6.6728,-6.6473,-6.6182,-6.5867,-6.5867,-6.5548,-6.5099,-6.461,-6.4426,-6.4333,-6.4085,-6.3707,-6.3228,-6.3228,-6.2612,-6.1815,-6.1683,-6.141,-6.1031,-6.0652,-6.07,-6.091,-6.1067,-6.1261,-6.1519,-6.1525,-6.1527,-6.1523,-6.1546,-6.2,-6.2467,-6.295,-6.2677,-6.2436,-6.283,-6.2942,-6.2942,-6.2942,-6.2942,-6.2942,-6.2942,-6.2942,-6.2942,-6.2942,-6.2942,-6.2942,-6.2942,-6.2942,-6.2942,-6.2942,-6.2942,-6.2942,-6.2942,-6.2285,-6.1552,-6.0905,-5.9704,-5.839,-5.6984,-5.6425,-5.5445,-5.3997,-5.3997,-5.3113,-5.1255,-4.9664,-4.8315,-4.744,-4.5597,-4.4184,0.0,0.0,0.0,-5.7548,-5.8606,-5.9508,-6.0206,-6.1447,-6.2766,-6.4001,-6.5561,-6.7187,-6.8908,-6.9885,-7.1123,-7.334,-7.4583,-7.5788,-7.7338,-7.807,-7.8605,-7.902,-7.9325,-7.9473,-7.9424,-7.9351,-7.9078,-7.8605,-7.8026,-7.7075,-7.5664,-7.4873,-7.3536,-7.1593,-7.0811,-7.02,-6.9598,-6.9008,-6.8551,-6.8162,-6.7959,-6.7557,-6.718,-6.6896,-6.6558,-6.6095,-6.5867,-6.5548,-6.5099,-6.4793,-6.4518,-6.4333,-6.4085,-6.3707,-6.3228,-6.3228,-6.2513,-6.1582,-6.1582,-6.1308,-6.0813,-6.0822,-6.0957,-6.1122,-6.1928,-6.1863,-6.1638,-6.2056,-6.185,-6.164,-6.2069,-6.2582,-6.3022,-6.3051,-6.3017,-6.2942,-6.2942,-6.2942,-6.2942,-6.2942,-6.2942,-6.2942,-6.2942,-6.2942,-6.297,-6.297,-6.297,-6.2942,-6.2942,-6.2942,-6.2942,-6.2942,-6.2942,-6.2942,-6.2942,-6.2648,-6.1997,-6.096,-6.0089,-5.8826,-5.7037,-5.6451,-5.5472,-5.3997,-5.3997,-5.3316,-5.182,-5.0562,-4.9197,-4.8028,-4.6439,-4.4848,-5.413,0.0,0.0,0.0,0.0,0.0,-5.9914,-6.1074,-6.2264,-6.3329,-6.5026,-6.6745,-6.7835,-6.9246,-7.0579,-7.1863,-7.3075,-7.441,-7.6057,-7.6804,-7.766,-7.8834,-7.919,-7.9385,-7.945,-7.9448,-7.9024,-7.8021,-7.7467,-7.659,-7.5246,-7.411,-7.3038,-7.2048,-7.1332,-7.0745,-7.0272,-6.967,-6.9231,-6.8932,-6.8319,-6.7959,-6.7879,-6.7312,-6.6896,-6.6558,-6.6182,-6.5867,-6.5514,-6.4976,-6.4702,-6.4518,-6.4179,-6.3707,-6.3228,-6.3228,-6.2513,-6.1582,-6.1582,-6.1308,-6.0813,-6.0822,-6.1261,-6.1728,-6.2048,-6.2076,-6.1997,-6.2057,-6.1761,-6.1546,-6.2529,-6.2928,-6.3136,-6.3593,-6.3328,-6.2942,-6.2942,-6.2942,-6.2942,-6.2942,-6.2942,-6.3054,-6.3476,-6.356,-6.3729,-6.4178,-6.3869,-6.356,-6.356,-6.3195,-6.2942,-6.2942,-6.2942,-6.2942,-6.2942,-6.2781,-6.2431,-6.1568,-6.0855,-5.9718,-5.7758,-5.7064,-5.5867,-5.3997,-5.3997,-5.3316,-5.182,-5.0562,-4.9388,-4.8545,-4.6029,-4.4294,-5.3982,-5.4847,-5.5837,-5.7164,0.0,0.0,-5.9772,-6.0586,-6.1664,-6.2665,-6.414,-6.572,-6.7225,-6.8498,-6.9809,-7.1002,-7.2212,-7.341,-7.4915,-7.5665,-7.6459,-7.7512,-7.7971,-7.8219,-7.8419,-7.8458,-7.8124,-7.7326,-7.6877,-7.6094,-7.4903,-7.3916,-7.3141,-7.248,-7.1891,-7.1304,-7.0682,-7.0202,-6.9742,-6.9305,-6.8781,-6.8319,-6.8083,-6.7557,-6.718,-6.6812,-6.6268,-6.6042,-6.578,-6.5156,-6.4793,-6.4702,-6.4179,-6.3707,-6.3228,-6.3228,-6.2513,-6.1582,-6.1582,-6.1494,-6.1212,-6.1247,-6.1807,-6.2365,-6.2528,-6.2288,-6.2116,-6.2116,-6.2023,-6.2209,-6.3225,-6.3446,-6.3508,-6.3879,-6.3442,-6.2998,-6.3251,-6.3279,-6.3279,-6.3279,-6.3279,-6.3476,-6.4094,-6.4207,-6.4319,-6.4712,-6.4431,-6.4207,-6.4207,-6.3897,-6.3588,-6.3307,-6.3279,-6.3195,-6.2942,-6.2942,-6.2648,-6.1816,-6.1236,-6.0073,-5.8399,-5.7677,-5.6419,-5.4355,-5.4355,-5.3406,-5.1352,-5.0616,-4.9487,-4.8062,-4.6033,-4.4733,-5.3833,-5.4818,-5.584,-5.6892,-5.8101,0.0,-5.954,-6.0206,-6.0967,-6.2166,-6.3107,-6.4425,-6.6616,-6.7788,-6.8893,-7.0596,-7.1696,-7.2724,-7.3859,-7.4702,-7.5344,-7.5813,-7.6273,-7.6669,-7.6886,-7.6953,-7.6919,-7.6729,-7.632,-7.5656,-7.4702,-7.4222,-7.3653,-7.3017,-7.2401,-7.1744,-7.111,-7.075,-7.0202,-6.9379,-6.9157,-6.8705,-6.8162,-6.7719,-6.7312,-6.6812,-6.6354,-6.6042,-6.578,-6.5369,-6.5008,-6.4702,-6.4179,-6.3707,-6.3228,-6.3228,-6.2513,-6.1613,-6.1676,-6.1702,-6.1827,-6.1916,-6.2445,-6.2971,-6.3099,-6.2585,-6.2116,-6.2086,-6.2666,-6.3312,-6.3893,-6.3993,-6.3965,-6.3965,-6.3498,-6.3167,-6.3673,-6.3841,-6.3926,-6.3982,-6.3954,-6.4094,-6.4769,-6.4853,-6.4881,-6.4965,-6.4909,-6.4853,-6.4853,-6.4797,-6.4544,-6.3954,-6.3841,-6.3588,-6.3083,-6.297,-6.2515,-6.1789,-6.1292,-6.0319,-5.8906,-5.8263,-5.7051,-5.497,-5.4756,-5.3293,-5.0624,-5.0482,-4.9342,-4.7186,-4.6299,-4.5555,-5.3956,-5.516,-5.6402,-5.6804,-5.792,0.0,-5.9331,-5.9946,-6.0666,-6.1501,-6.2656,-6.3883,-6.5007,-6.6869,-6.854,-6.9644,-7.0961,-7.227,-7.3378,-7.4325,-7.5094,-7.5664,-7.6108,-7.6457,-7.6799,-7.6931,-7.6941,-7.6809,-7.6256,-7.571,-7.5132,-7.4573,-7.3944,-7.3401,-7.2816,-7.2248,-7.1583,-7.111,-7.0579,-7.0062,-6.9525,-6.9008,-6.8551,-6.8162,-6.7799,-6.7312,-6.6896,-6.6473,-6.6009,-6.5514,-6.5066,-6.4702,-6.4333,-6.377,-6.3228,-6.3228,-6.2513,-6.1676,-6.2237,-6.2105,-6.1888,-6.2464,-6.2809,-6.2971,-6.3099,-6.2585,-6.2086,-6.2136,-6.2971,-6.3893,-6.4009,-6.3993,-6.3965,-6.3965,-6.381,-6.3645,-6.3757,-6.4207,-6.4712,-6.5218,-6.4909,-6.4769,-6.5387,-6.5499,-6.5668,-6.6173,-6.5808,-6.5499,-6.5499,-6.5078,-6.4712,-6.46,-6.4094,-6.3757,-6.3645,-6.2928,-6.2248,-6.1789,-6.1436,-6.0484,-5.8933,-5.8662,-5.763,-5.556,-5.3959,-5.2288,-5.0624,-5.0056,-4.8789,-4.7186,-4.6299,-4.5555,-5.47,-5.5658,-5.6621,-5.7089,-5.799,0.0,0.0,-5.9684,-6.0345,-6.0969,-6.1977,-6.3069,-6.4179,-6.5664,-6.72,-6.8453,-6.9957,-7.1391,-7.2421,-7.3747,-7.4825,-7.5485,-7.6018,-7.6438,-7.6741,-7.6919,-7.6912,-7.6716,-7.6316,-7.589,-7.5383,-7.4824,-7.4312,-7.3703,-7.3087,-7.248,-7.1866,-7.1368,-7.0883,-7.0341,-6.9742,-6.9231,-6.8857,-6.8319,-6.7879,-6.7475,-6.698,-6.6525,-6.6095,-6.578,-6.5246,-6.4702,-6.4393,-6.3865,-6.3228,-6.3228,-6.2513,-6.1707,-6.2362,-6.2341,-6.2166,-6.2737,-6.3062,-6.3199,-6.3074,-6.2822,-6.2704,-6.2913,-6.3545,-6.4125,-6.4415,-6.4224,-6.405,-6.4365,-6.4122,-6.3954,-6.46,-6.4993,-6.5415,-6.6005,-6.5892,-6.578,-6.6089,-6.6145,-6.623,-6.6539,-6.6314,-6.6145,-6.6145,-6.5864,-6.5555,-6.5246,-6.4937,-6.4488,-6.3841,-6.3264,-6.2553,-6.1816,-6.1438,-6.062,-5.9222,-5.9195,-5.8236,-5.6124,-5.3853,-5.2152,-5.1032,-5.0056,-4.8644,-4.7186,-4.6299,-4.5555,-5.5466,-5.6185,-5.6778,-5.7339,-5.8026,-5.8701,0.0,0.0,0.0,-6.0633,-6.135,-6.2358,-6.3674,-6.464,-6.5828,-6.7262,-6.8938,-7.0314,-7.1268,-7.2742,-7.4124,-7.5203,-7.589,-7.635,-7.666,-7.6878,-7.6911,-7.6669,-7.6457,-7.6096,-7.5584,-7.5132,-7.4615,-7.4038,-7.3401,-7.2761,-7.2167,-7.1682,-7.1146,-7.0547,-6.9991,-6.9452,-6.9083,-6.8474,-6.7925,-6.7557,-6.7146,-6.6643,-6.6095,-6.5955,-6.5425,-6.4702,-6.4518,-6.3865,-6.3228,-6.3228,-6.2608,-6.1894,-6.258,-6.2637,-6.2622,-6.3041,-6.3169,-6.3339,-6.3113,-6.315,-6.3319,-6.3844,-6.4125,-6.4328,-6.4851,-6.4569,-6.4279,-6.4765,-6.4519,-6.4431,-6.5471,-6.578,-6.6005,-6.6511,-6.6595,-6.6595,-6.6595,-6.6595,-6.6595,-6.6595,-6.6735,-6.6735,-6.6595,-6.6735,-6.6538,-6.5892,-6.5752,-6.5274,-6.4235,-6.366,-6.2918,-6.201,-6.1603,-6.0864,-5.9648,-5.9368,-5.8376,-5.6508,-5.4177,-5.2543,-5.1586,-5.0341,-4.8882,-4.7186,-4.6299,-4.5555,-5.5589,-5.6526,-5.7371,-5.7464,-5.8026,-5.8701,-5.8914,0.0,-5.9946,-6.0548,0.0,-6.203,-6.2881,0.0,0.0,-6.6418,-6.7955,-6.9334,-7.0054,-7.1095,-7.2579,-7.4941,-7.5648,-7.6135,-7.6573,-7.6855,-7.697,-7.6882,-7.657,-7.6243,-7.587,-7.5417,-7.4903,-7.4438,-7.3896,-7.335,-7.2798,-7.2226,-7.162,-7.0913,-7.041,-6.9813,-6.9231,-6.8857,-6.8319,-6.7719,-6.7475,-6.6896,-6.6095,-6.6095,-6.557,-6.4702,-6.4702,-6.4053,-6.3228,-6.3228,-6.2893,-6.258,-6.3267,-6.3455,-6.3403,-6.3771,-6.3334,-6.2733,-6.3061,-6.3352,-6.3661,-6.396,-6.4444,-6.488,-6.4967,-6.4886,-6.4793,-6.4879,-6.5199,-6.5499,-6.564,-6.6117,-6.6511,-6.6595,-6.6595,-6.6595,-6.6595,-6.6595,-6.6595,-6.6595,-6.6875,-6.7014,-6.6595,-6.6875,-6.6986,-6.6483,-6.6005,-6.5612,-6.5471,-6.4249,-6.3253,-6.2673,-6.1931,-6.0993,-5.9675,-5.8381,-5.7241,-5.6508,-5.4927,-5.3327,-5.2115,-5.0862,-4.9229,-4.7186,-4.6299,-4.5555,-5.6234,-5.6803,-5.7306,-5.7495,-5.7871,-5.8335,-5.8914,-5.9241,-5.9684,-6.0378,0.0,0.0,0.0,0.0,0.0,0.0,-6.6874,-6.8258,-6.9155,-7.0323,-7.1658,-7.3345,-7.4484,-7.5581,-7.6669,-7.6917,-7.6977,-7.6887,-7.6653,-7.6376,-7.6083,-7.5584,-7.5132,-7.4695,-7.4038,-7.3452,-7.2908,-7.2343,-7.1744,-7.1146,-7.0615,-7.0062,-6.9452,-6.9083,-6.8551,-6.7959,-6.7638,-6.7063,-6.6268,-6.6182,-6.557,-6.4702,-6.4702,-6.4053,-6.3228,-6.3228,-6.2956,-6.2705,-6.3392,-6.3333,-6.3163,-6.3411,-6.3318,-6.315,-6.3563,-6.3877,-6.4151,-6.4542,-6.4793,-6.4996,-6.4996,-6.4944,-6.4993,-6.5336,-6.5567,-6.578,-6.6145,-6.6398,-6.6595,-6.6595,-6.6595,-6.6595,-6.6595,-6.6595,-6.6595,-6.6595,-6.6735,-6.6735,-6.6595,-6.6735,-6.6735,-6.6595,-6.637,-6.6061,-6.5696,-6.4722,-6.3888,-6.328,-6.1814,-6.0515,-5.9675,-5.8239,-5.7277,-5.7021,-5.5226,-5.3766,-5.2668,-5.1431,-4.9901,-4.8037,-4.6861,-4.5853,-5.6664,-5.6923,-5.718,-5.737,-5.7684,-5.8058,-5.8824,-5.9062,-5.9419,-6.0206,-6.0886,0.0,0.0,0.0,-6.3858,-6.474,0.0,-6.7245,-6.8201,-6.9414,-7.0677,-7.2162,-7.352,-7.485,-7.6054,-7.6236,-7.6365,-7.6574,-7.6416,-7.6264,-7.6234,-7.5772,-7.5315,-7.4901,-7.4267,-7.3653,-7.3141,-7.2537,-7.1988,-7.1467,-7.0883,-7.0341,-6.9742,-6.9231,-6.8705,-6.8162,-6.7719,-6.7146,-6.6473,-6.6182,-6.557,-6.4702,-6.4702,-6.415,-6.3484,-6.3484,-6.3209,-6.2986,-6.3704,-6.3641,-6.3183,-6.3129,-6.3265,-6.3446,-6.3826,-6.4136,-6.4406,-6.492,-6.4996,-6.5025,-6.5199,-6.5203,-6.5307,-6.5936,-6.602,-6.6061,-6.6511,-6.6595,-6.6595,-6.6595,-6.6595,-6.6595,-6.6595,-6.6595,-6.6595,-6.6595,-6.6735,-6.6735,-6.6595,-6.6735,-6.6735,-6.6595,-6.6595,-6.6398,-6.5949,-6.5222,-6.4523,-6.3609,-6.1609,-6.0314,-5.9888,-5.8317,-5.7379,-5.7235,-5.5355,-5.3985,-5.3096,-5.1852,-5.055,-4.8866,-4.7542,-4.633,-5.6664,-5.6923,-5.718,-5.737,-5.7684,-5.8058,-5.8824,-5.9004,-5.9241,-6.0206,-6.0685,-6.1235,-6.2156,-6.3042,-6.3858,-6.4568,-6.5445,0.0,0.0,-6.793,-6.9407,-7.2011,-7.3206,-7.3956,-7.4247,-7.4402,-7.4832,-7.567,-7.5596,-7.575,-7.6266,-7.5947,-7.5589,-7.5095,-7.4695,-7.4214,-7.3703,-7.3141,-7.2573,-7.1988,-7.1304,-7.0714,-7.0132,-6.9379,-6.8781,-6.8319,-6.7799,-6.7146,-6.6473,-6.6182,-6.557,-6.4702,-6.4702,-6.4442,-6.4188,-6.4188,-6.3937,-6.3704,-6.4421,-6.4381,-6.3849,-6.3309,-6.306,-6.3236,-6.3855,-6.4012,-6.4183,-6.4793,-6.4996,-6.5112,-6.5751,-6.5836,-6.5965,-6.6622,-6.6672,-6.6567,-6.6595,-6.6595,-6.6595,-6.6595,-6.6595,-6.6595,-6.6595,-6.6595,-6.6595,-6.6595,-6.6875,-6.7014,-6.6595,-6.6875,-6.7014,-6.6595,-6.6595,-6.6595,-6.6567,-6.589,-6.4929,-6.3442,-6.1568,-6.0501,-6.0474,-5.8525,-5.7235,-5.6801,-5.5607,-5.4421,-5.3195,-5.2245,-5.1082,-4.9381,-4.8408,-4.716,-5.7986,-5.8184,-5.8381,-5.8771,-5.8965,-5.9253,-6.0195,-6.0028,-5.9949,-6.0925,-6.1014,-6.1235,-6.2156,-6.3042,-6.3892,-6.4568,-6.5379,-6.6146,0.0,-6.8074,-6.9364,-7.0723,-7.2101,-7.3196,-7.4048,-7.4304,-7.4545,-7.4861,-7.5308,-7.5595,-7.5663,-7.5774,-7.5686,-7.5315,-7.4778,-7.426,-7.3703,-7.3141,-7.263,-7.1988,-7.1467,-7.0883,-7.0202,-6.9525,-6.9008,-6.8551,-6.7799,-6.7229,-6.6643,-6.6268,-6.557,-6.4702,-6.4485,-6.438,-6.422,-6.422,-6.4254,-6.4346,-6.4272,-6.4117,-6.394,-6.379,-6.3654,-6.3855,-6.4474,-6.4656,-6.4706,-6.4938,-6.4996,-6.5141,-6.5751,-6.5865,-6.5993,-6.665,-6.67,-6.6595,-6.6595,-6.6595,-6.6595,-6.6595,-6.6595,-6.6595,-6.6595,-6.6595,-6.6595,-6.6595,-6.6735,-6.6735,-6.6595,-6.6735,-6.6735,-6.6595,-6.6595,-6.6595,-6.6595,-6.5917,-6.4786,-6.3154,-6.2175,-6.1183,-6.0101,-5.8719,-5.7593,-5.6801,-5.5632,-5.4446,-5.3243,-5.2599,-5.1592,-4.9897,-4.9585,-4.8278,-5.8662,-5.8793,-5.8893,-5.9487,-5.9586,-5.9878,-6.0835,-6.0764,-6.0688,-6.1676,-6.1607,-6.1634,-6.2481,-6.306,-6.3712,-6.4498,-6.5247,-6.6048,0.0,-6.832,-6.9385,-7.0071,-7.1161,-7.222,-7.309,-7.3364,-7.3627,-7.402,-7.4429,-7.487,-7.5292,-7.5451,-7.5503,-7.5455,-7.4941,-7.4438,-7.3848,-7.3298,-7.2761,-7.2167,-7.1656,-7.1015,-7.0272,-6.967,-6.9157,-6.8628,-6.7959,-6.7312,-6.6728,-6.6268,-6.557,-6.4735,-6.4687,-6.4673,-6.4537,-6.4406,-6.4587,-6.4816,-6.4178,-6.3993,-6.3971,-6.403,-6.3981,-6.415,-6.4799,-6.4978,-6.4996,-6.4996,-6.5141,-6.546,-6.5969,-6.6107,-6.6336,-6.6857,-6.6732,-6.6595,-6.6595,-6.6595,-6.6595,-6.6595,-6.6595,-6.6595,-6.6595,-6.6595,-6.6595,-6.6595,-6.6595,-6.6595,-6.6595,-6.6595,-6.6595,-6.6595,-6.6595,-6.6455,-6.6173,-6.5775,-6.4895,-6.3162,-6.2538,-6.1649,-6.0421,-5.917,-5.7932,-5.6642,-5.5757,-5.4616,-5.2916,-5.2764,-5.1824,-5.0165,-5.0165,-4.8872]}]]